[[{"header":{"parameterUnit":"m.s-1","parameterCategory":1,"la1":31.0,"la2":29.5877,"lo1":-88.7671,"lo2":-86.6584,"dy":0.0162,"dx":0.0185,"nx":115,"ny":88,"refTime":"2023-09-03T06:00:00:Z","depth":0,"parameterNumber":2,"parameterNumberName":"U-component_of_WINDS"},"data":[0.0,0.0,0.0,0.0,0.0,0.0,0.0,0.0,0.0,0.0,0.0,0.0,0.0,0.0,0.0,0.0,0.0,0.0,0.0,0.0,0.0,0.0,0.0,0.0,0.0,0.0,0.0,0.0,0.0,0.0,0.0,0.0,0.0,0.0,0.0,0.0,0.0,0.0,0.0,0.0,0.0,0.0,0.0,0.0,0.0,0.0,0.0,0.0,0.0,0.0,0.0,0.0,0.0,0.0,0.0,0.0,0.0,0.0,0.0,0.0,0.0,0.0,0.0,0.0,0.0,0.0,0.0,0.0,0.0,0.0,0.0,0.0,0.0,0.0,0.0,0.0,0.0,0.0,0.0,0.0,0.0,0.0,0.0,0.0,0.0,0.0,0.0,0.0,0.0,0.0,0.0,0.0,0.0,0.0,0.0,0.0,0.0,0.0,0.0,0.0,0.0,0.0,0.0,0.0,0.0,0.0,0.0,0.0,0.0,0.0,0.0,0.0,0.0,0.0,0.0,0.0,0.0,0.0,0.0,0.0,0.0,0.0,0.0,0.0,0.0,0.0,0.0,0.0,0.0,0.0,0.0,0.0,0.0,0.0,0.0,0.0,0.0,0.0,0.0,0.0,0.0,0.0,0.0,0.0,0.0,0.0,0.0,0.0,0.0,0.0,0.0,0.0,0.0,0.0,0.0,0.0,0.0,0.0,0.0,0.0,0.0,0.0,0.0,0.0,0.0,0.0,0.0,0.0,0.0,0.0,0.0,0.0,0.0,0.0,0.0,0.0,0.0,0.0,0.0,0.0,0.0,0.0,0.0,0.0,0.0,0.0,0.0,0.0,0.0,0.0,0.0,0.0,0.0,0.0,0.0,0.0,0.0,0.0,0.0,0.0,0.0,0.0,0.0,0.0,0.0,0.0,0.0,0.0,0.0,0.0,0.0,0.0,0.0,0.0,0.0,0.0,0.0,0.0,0.0,0.0,0.0,0.0,0.0,0.0,0.0,0.0,0.0,0.0,0.0,0.0,0.0,0.0,0.0,0.0,0.0,0.0,0.0,0.0,0.0,0.0,0.0,0.0,0.0,0.0,0.0,0.0,0.0,0.0,0.0,0.0,0.0,0.0,0.0,0.0,0.0,0.0,0.0,0.0,0.0,0.0,0.0,0.0,0.0,0.0,0.0,0.0,0.0,0.0,0.0,0.0,0.0,0.0,0.0,0.0,0.0,0.0,0.0,0.0,0.0,0.0,0.0,0.0,0.0,0.0,0.0,0.0,0.0,0.0,0.0,0.0,0.0,0.0,0.0,0.0,0.0,0.0,0.0,0.0,0.0,0.0,0.0,0.0,0.0,0.0,0.0,0.0,0.0,0.0,0.0,0.0,0.0,0.0,0.0,0.0,0.0,0.0,0.0,0.0,0.0,0.0,0.0,0.0,0.0,0.0,0.0,0.0,0.0,0.0,0.0,0.0,0.0,0.0,0.0,0.0,0.0,0.0,0.0,0.0,0.0,0.0,0.0,0.0,0.0,0.0,0.0,0.0,0.0,0.0,0.0,0.0,0.0,0.0,0.0,0.0,0.0,0.0,0.0,0.0,0.0,0.0,0.0,0.0,0.0,0.0,0.0,0.0,0.0,0.0,0.0,0.0,0.0,0.0,0.0,0.0,0.0,0.0,0.0,0.0,0.0,0.0,0.0,0.0,0.0,0.0,0.0,0.0,0.0,0.0,0.0,0.0,0.0,0.0,0.0,0.0,0.0,0.0,0.0,0.0,0.0,0.0,0.0,0.0,0.0,0.0,0.0,0.0,0.0,0.0,0.0,0.0,0.0,0.0,0.0,0.0,0.0,0.0,0.0,0.0,0.0,0.0,0.0,0.0,0.0,0.0,0.0,0.0,0.0,0.0,0.0,0.0,0.0,0.0,0.0,0.0,0.0,0.0,0.0,0.0,0.0,0.0,0.0,0.0,0.0,0.0,0.0,0.0,0.0,0.0,0.0,0.0,0.0,0.0,0.0,0.0,0.0,0.0,0.0,0.0,0.0,0.0,0.0,0.0,0.0,0.0,0.0,0.0,0.0,0.0,0.0,0.0,0.0,0.0,0.0,0.0,0.0,0.0,0.0,0.0,0.0,0.0,0.0,0.0,0.0,0.0,0.0,0.0,0.0,0.0,0.0,0.0,0.0,0.0,0.0,0.0,0.0,0.0,0.0,0.0,0.0,0.0,0.0,0.0,0.0,0.0,0.0,0.0,0.0,0.0,0.0,0.0,0.0,0.0,0.0,0.0,0.0,0.0,0.0,0.0,0.0,0.0,0.0,0.0,0.0,0.0,0.0,0.0,0.0,0.0,0.0,0.0,0.0,0.0,0.0,0.0,0.0,0.0,0.0,0.0,0.0,0.0,0.0,0.0,0.0,0.0,0.0,0.0,0.0,0.0,0.0,0.0,0.0,0.0,0.0,0.0,0.0,0.0,0.0,0.0,0.0,0.0,0.0,0.0,0.0,0.0,0.0,0.0,0.0,0.0,0.0,0.0,0.0,0.0,0.0,0.0,0.0,0.0,0.0,0.0,0.0,0.0,0.0,0.0,0.0,0.0,0.0,0.0,0.0,0.0,0.0,0.0,0.0,0.0,0.0,0.0,0.0,0.0,0.0,0.0,0.0,0.0,0.0,0.0,0.0,0.0,0.0,0.0,0.0,0.0,0.0,0.0,0.0,0.0,0.0,0.0,0.0,0.0,0.0,0.0,0.0,0.0,0.0,0.0,0.0,0.0,0.0,0.0,0.0,0.0,0.0,0.0,0.0,0.0,0.0,0.0,0.0,0.0,0.0,0.0,0.0,0.0,0.0,0.0,0.0,0.0,0.0,0.0,0.0,0.0,0.0,0.0,0.0,0.0,0.0,0.0,0.0,0.0,0.0,0.0,0.0,0.0,0.0,0.0,0.0,0.0,0.0,0.0,0.0,0.0,0.0,0.0,0.0,0.0,0.0,0.0,0.0,0.0,0.0,0.0,0.0,0.0,0.0,0.0,0.0,0.0,0.0,0.0,0.0,0.0,0.0,0.0,0.0,0.0,0.0,0.0,0.0,0.0,0.0,0.0,0.0,0.0,0.0,0.0,0.0,0.0,0.0,0.0,0.0,0.0,0.0,0.0,0.0,0.0,0.0,0.0,0.0,0.0,0.0,0.0,0.0,0.0,0.0,0.0,0.0,0.0,0.0,0.0,0.0,0.0,0.0,0.0,0.0,0.0,0.0,0.0,0.0,0.0,0.0,0.0,0.0,0.0,0.0,0.0,0.0,0.0,0.0,0.0,0.0,0.0,0.0,0.0,0.0,0.0,0.0,0.0,0.0,0.0,0.0,0.0,0.0,0.0,0.0,0.0,0.0,0.0,0.0,0.0,0.0,0.0,0.0,0.0,0.0,0.0,0.0,0.0,0.0,0.0,0.0,0.0,0.0,0.0,0.0,0.0,0.0,0.0,0.0,0.0,0.0,0.0,0.0,0.0,0.0,0.0,0.0,0.0,0.0,0.0,0.0,0.0,0.0,0.0,0.0,0.0,0.0,0.0,0.0,0.0,0.0,0.0,0.0,0.0,0.0,0.0,0.0,0.0,0.0,0.0,0.0,0.0,0.0,0.0,0.0,0.0,0.0,0.0,0.0,0.0,0.0,0.0,0.0,0.0,0.0,0.0,0.0,0.0,0.0,0.0,0.0,0.0,0.0,0.0,0.0,0.0,0.0,0.0,0.0,0.0,0.0,0.0,0.0,0.0,0.0,0.0,0.0,0.0,0.0,0.0,0.0,0.0,0.0,0.0,0.0,0.0,0.0,0.0,0.0,0.0,0.0,0.0,0.0,0.0,0.0,0.0,0.0,0.0,0.0,0.0,0.0,0.0,0.0,0.0,0.0,0.0,0.0,0.0,0.0,0.0,0.0,0.0,0.0,0.0,0.0,0.0,0.0,0.0,0.0,0.0,0.0,0.0,0.0,0.0,0.0,0.0,0.0,0.0,0.0,0.0,0.0,0.0,0.0,0.0,0.0,0.0,0.0,0.0,0.0,0.0,0.0,0.0,0.0,0.0,0.0,0.0,0.0,0.0,0.0,0.0,0.0,0.0,0.0,0.0,0.0,0.0,0.0,0.0,0.0,0.0,0.0,0.0,0.0,0.0,0.0,0.0,0.0,0.0,0.0,0.0,0.0,0.0,0.0,0.0,0.0,0.0,0.0,0.0,0.0,0.0,0.0,0.0,0.0,0.0,0.0,0.0,0.0,0.0,0.0,0.0,0.3441,0.0,0.0,0.0,0.0,0.0,0.0,0.0,0.0,0.0,0.0,0.0,0.0,0.0,0.0,0.0,0.0,0.0,0.0,0.0,0.0,0.0,0.0,0.0,0.0,0.0,0.0,0.0,0.0,0.0,0.0,0.0,0.0,0.0,0.0,0.0,0.0,0.0,0.0,0.0,0.0,0.0,0.0,0.0,0.0,0.0,0.0,0.0,0.0,0.0,0.0,0.0,0.0,0.0,0.0,0.0,0.0,0.0,0.0,0.0,0.0,0.0,0.0,0.0,0.0,0.0,0.0,0.0,0.0,0.0,0.0,0.0,0.0,0.0,0.0,0.0,0.0,0.0,0.0,0.0,0.0,0.0,0.0,0.0,0.0,0.0,0.0,0.0,0.0,0.0,0.0,0.0,0.0,0.0,0.0,0.0,0.0,0.0,0.0,0.0,0.0,0.0,0.0,0.0,0.0,0.0,0.0,0.0,0.0,0.0,0.0,0.6858,0.6709,0.6702,0.5897,0.4146,0.0,0.0,0.0,0.0,0.0,0.0,0.0,0.0,0.0,0.0,0.0,0.0,0.0,0.0,0.0,0.0,0.0,0.0,0.0,0.0,0.0,0.0,0.0,0.0,0.0,0.0,0.0,0.0,0.0,0.0,0.0,0.0,0.0,0.0,0.0,0.0,0.0,0.0,0.0,0.0,0.0,0.0,0.0,0.0,0.0,0.0,0.0,0.0,0.0,0.0,0.0,0.0,0.0,0.0,0.0,0.0,0.0,0.0,0.0,0.0,0.0,0.0,0.0,0.0,0.0,0.0,0.0,0.0,0.0,0.0,0.0,0.0,0.0,0.0,0.0,0.0,0.0,0.0,0.0,0.0,0.0,0.0,0.0,0.0,0.0,0.0,0.0,0.0,0.0,0.0,0.0,0.0,0.0,0.0,0.0,0.0,0.0,0.0,0.0,0.0,0.0,0.0,0.0,0.0,0.0,0.0,0.0,0.0,0.0,0.0,0.0,0.0,0.6756,0.6028,0.4496,0.0,0.0,0.0,0.0,0.0,0.0,0.0,0.0,0.0,0.0,0.0,0.0,0.0,0.0,0.0,0.0,0.0,0.0,0.0,0.0,0.0,0.0,0.0,0.0,0.0,0.0,0.0,0.0,0.0,0.0,0.0,0.0,0.0,0.0,0.0,0.0,0.0,0.0,0.0,0.0,0.0,0.0,0.0,0.0,0.0,0.0,0.0,0.0,0.0,0.0,0.0,0.0,0.0,0.0,0.0,0.0,0.0,0.0,0.0,0.0,0.0,0.0,0.0,0.0,0.0,0.0,0.0,0.0,0.0,0.0,0.0,0.0,0.0,0.0,0.0,0.0,0.0,0.0,0.0,0.0,0.0,0.0,0.0,0.0,0.0,0.0,0.0,0.0,0.0,0.0,0.0,0.0,0.0,0.0,0.0,0.0,0.0,0.0,0.0,0.0,0.0,0.0,0.0,0.0,0.0,0.0,0.0,0.0,0.0,0.0,0.6641,0.6898,0.6905,0.0,0.3802,0.0,0.0,0.0,0.0,0.0,0.0,0.0,0.0,0.0,0.0,0.0,0.0,0.0,0.0,0.0,0.0,0.0,0.0,0.0,0.0,0.0,0.0,0.0,0.0,0.0,0.0,0.0,0.0,0.0,0.0,0.0,0.0,0.0,0.0,0.0,0.0,0.0,0.0,0.0,0.0,0.0,0.0,0.0,0.0,0.0,0.0,0.0,0.0,0.0,0.0,0.0,0.0,0.0,0.0,0.0,0.0,0.0,0.0,0.0,0.0,0.0,0.0,0.0,0.0,0.0,0.0,0.0,0.0,0.0,0.0,0.0,0.0,0.0,0.0,0.0,0.0,0.0,0.0,0.0,0.0,0.0,0.0,0.0,0.0,0.0,0.0,0.0,0.0,0.0,0.0,0.0,0.0,0.0,0.0,0.0,0.0,0.0,0.0,0.0,0.0,0.0,0.0,0.0,0.0,0.0,0.0,0.0,0.0,0.0,0.0,0.6485,0.679,0.6709,0.5903,0.0,0.0,0.0,0.0,0.0,0.0,0.0,0.0,0.0,0.0,0.0,0.0,0.0,0.0,0.0,0.0,0.0,0.0,0.0,0.0,0.0,0.0,0.0,0.0,0.0,0.0,0.0,0.0,0.0,0.0,0.0,0.0,0.0,0.0,0.0,0.0,0.0,0.0,0.0,0.0,0.0,0.0,0.0,0.0,0.0,0.0,0.0,0.0,0.0,0.0,0.0,0.0,0.0,0.0,0.0,0.0,0.0,0.0,0.0,0.0,0.0,0.0,0.0,0.0,0.0,0.0,0.0,0.0,0.0,0.0,0.0,0.0,0.0,0.0,0.0,0.0,0.0,0.0,0.0,0.0,0.0,0.0,0.0,0.0,0.0,0.0,0.0,0.0,0.0,0.0,0.0,0.0,0.0,0.0,0.0,0.0,0.0,0.0,0.0,0.0,0.0,0.0,0.0,0.0,0.0,0.0,0.0,0.0,0.0,0.0,0.6247,0.6424,0.6729,0.6539,0.5921,0.4857,0.0,0.0,0.0,0.0,0.0,0.0,0.0,0.0,0.0,0.0,0.0,0.0,0.0,0.0,0.0,0.0,0.0,0.0,0.0,0.0,0.0,0.0,0.0,0.0,0.0,0.0,0.0,0.0,0.0,0.0,0.0,0.0,0.0,0.0,0.0,0.0,0.0,0.0,0.0,0.0,0.0,0.0,0.0,0.0,0.0,0.0,0.0,0.0,0.0,0.0,0.0,0.0,0.0,0.0,0.0,0.0,0.0,0.0,0.0,0.0,0.0,0.0,0.0,0.0,0.0,0.0,0.0,0.0,0.0,0.0,0.0,0.0,0.0,0.0,0.0,0.0,0.0,0.0,0.0,0.0,0.0,0.0,0.0,0.0,0.0,0.0,0.0,0.0,0.0,0.0,0.0,0.0,0.0,0.0,0.0,0.0,0.0,0.0,0.0,0.0,0.0,0.0,0.0,0.0,0.0,0.0,0.0,0.0,0.662,0.6396,0.6471,0.6885,0.6498,0.5915,0.0,0.0,0.0,0.0,0.0,0.0,0.0,0.0,0.0,0.0,0.0,0.0,0.0,0.0,0.0,0.0,0.0,0.0,0.0,0.0,0.0,0.0,0.0,0.0,0.0,0.0,0.0,0.0,0.0,0.0,0.0,0.0,0.0,0.0,0.0,0.0,0.0,0.0,0.0,0.0,0.0,0.0,0.0,0.0,0.0,0.0,0.0,0.0,0.0,0.0,0.0,0.0,0.0,0.0,0.0,0.0,0.0,0.0,0.0,0.0,0.0,0.0,0.0,0.0,0.0,0.0,0.0,0.0,0.0,0.0,0.0,0.0,0.0,0.0,0.0,0.0,0.0,0.0,0.0,0.0,0.0,0.0,0.0,0.0,0.0,0.0,0.0,0.0,0.0,0.0,0.0,0.0,0.0,0.0,0.0,0.0,0.0,0.0,0.0,0.0,0.0,0.0,0.0,0.0,0.0,0.0,0.0,0.0,0.0,0.5983,0.6254,0.6471,0.6627,0.6573,0.6384,0.0,0.0,0.0,0.0,0.0,0.0,0.0,0.0,0.0,0.0,0.0,0.0,0.0,0.0,0.0,0.0,0.0,0.0,0.0,0.0,0.0,0.0,0.0,0.0,0.0,0.0,0.0,0.0,0.0,0.0,0.0,0.0,0.0,0.0,0.0,0.0,0.0,0.0,0.0,0.0,0.0,0.0,0.0,0.0,0.0,0.0,0.0,0.0,0.0,0.0,0.0,0.0,0.0,0.0,0.0,0.0,0.0,0.0,0.0,0.0,0.0,0.0,0.0,0.0,0.0,0.0,0.0,0.0,0.0,0.0,0.0,0.0,0.0,0.0,0.0,0.0,0.0,0.0,0.0,0.0,0.0,0.0,0.0,0.0,0.0,0.0,0.0,0.0,0.0,0.0,0.0,0.0,0.0,0.0,0.0,0.0,0.0,0.0,0.0,0.0,0.0,0.0,0.0,0.0,0.0,0.0,0.0,0.0,0.0,0.5739,0.0,0.6573,0.6478,0.6573,0.6559,0.0,0.0,0.0,0.0,0.0,0.0,0.0,0.0,0.0,0.0,0.0,0.0,0.0,0.0,0.0,0.0,0.0,0.0,0.0,0.0,0.0,0.0,0.0,0.0,0.0,0.0,0.0,0.0,0.0,0.0,0.0,0.0,0.0,0.0,0.0,0.0,0.0,0.0,0.0,0.0,0.0,0.0,0.0,0.0,0.0,0.0,0.0,0.0,0.0,0.0,0.0,0.0,0.0,0.0,0.0,0.0,0.0,0.0,0.0,0.0,0.0,0.0,0.0,0.0,0.0,0.0,0.0,0.0,0.0,0.0,0.0,0.0,0.0,0.0,0.0,0.0,0.0,0.0,0.0,0.0,0.0,0.0,0.0,0.0,0.0,0.0,0.0,0.0,0.0,0.0,0.0,0.0,0.0,0.0,0.0,0.0,0.0,0.0,0.0,0.0,0.0,0.0,0.0,0.0,0.0,0.0,0.0,0.0,0.6531,0.6017,0.6593,0.6826,0.6491,0.6478,0.641,0.0,0.0,0.0,0.0,0.0,0.0,0.0,0.0,0.0,0.0,0.0,0.0,0.0,0.0,0.0,0.0,0.0,0.0,0.0,0.0,0.0,0.0,0.0,0.0,0.0,0.0,0.0,0.0,0.0,0.0,0.0,0.0,0.0,0.0,0.0,0.0,0.0,0.0,0.0,0.0,0.0,0.0,0.0,0.0,0.0,0.0,0.0,0.0,0.0,0.0,0.0,0.0,0.0,0.0,0.0,0.0,0.0,0.0,0.0,0.0,0.0,0.0,0.0,0.0,0.0,0.0,0.0,0.0,0.0,0.0,0.0,0.0,0.0,0.0,0.0,0.0,0.0,0.0,0.0,0.0,0.0,0.0,0.0,0.0,0.0,0.0,0.0,0.0,0.0,0.0,0.0,0.0,0.0,0.0,0.0,0.0,0.0,0.0,0.0,0.0,0.0,0.0,0.0,0.0,0.0,0.0,0.0,0.0,0.0,0.5947,0.6836,0.7168,0.6756,0.6485,0.6451,0.0,0.0,0.0,0.0,0.0,0.0,0.0,0.0,0.0,0.0,0.0,0.0,0.0,0.0,0.0,0.0,0.0,0.0,0.0,0.0,0.0,0.0,0.0,0.0,0.0,0.0,0.0,0.0,0.0,0.0,0.0,0.0,0.0,0.0,0.0,0.0,0.0,0.0,0.0,0.0,0.0,0.0,0.0,0.0,0.0,0.0,0.0,0.0,0.0,0.0,0.0,0.0,0.0,0.0,0.0,0.0,0.0,0.0,0.0,0.0,0.0,0.0,0.0,0.0,0.0,0.0,0.0,0.0,0.0,0.0,0.0,0.0,0.0,0.0,0.0,0.0,0.0,0.0,0.0,0.0,0.0,0.0,0.0,0.0,0.0,0.0,0.0,0.0,0.0,0.0,0.0,0.0,0.0,0.0,0.0,0.0,0.0,0.0,0.0,0.0,0.0,0.0,0.0,0.0,0.0,0.0,0.0,0.0,0.0,0.7467,0.8075,0.8145,0.7416,0.7237,0.7067,0.6742,0.0,0.0,0.0,0.0,0.0,0.0,0.0,0.0,0.0,0.0,0.0,0.0,0.0,0.0,0.0,0.0,0.0,0.0,0.0,0.0,0.0,0.0,0.0,0.0,0.0,0.0,0.0,0.0,0.0,0.0,0.0,0.0,0.0,0.0,0.0,0.0,0.0,0.0,0.0,0.0,0.0,0.0,0.0,0.0,0.0,0.0,0.0,0.0,0.0,0.0,0.0,0.0,0.0,0.0,0.0,0.0,0.0,0.0,0.0,0.0,0.0,0.0,0.0,0.0,0.0,0.0,0.0,0.0,0.0,0.0,0.0,0.0,0.0,0.0,0.0,0.0,0.0,0.0,0.0,0.0,0.0,0.0,0.0,0.0,0.0,0.0,0.0,0.0,0.0,0.0,0.0,0.0,0.0,0.0,0.0,0.0,0.0,0.0,0.0,0.0,0.0,0.0,0.0,0.0,0.0,0.0,0.0,0.0,1.0137,1.0254,0.9625,0.8311,0.8438,0.7947,0.0,0.0,0.0,0.0,0.0,0.0,0.0,0.0,0.0,0.0,0.0,0.0,0.0,0.0,0.0,0.0,0.0,0.0,0.0,0.0,0.0,0.0,0.0,0.0,0.0,0.0,0.0,0.0,0.0,0.0,0.0,0.0,0.0,0.0,0.0,0.0,0.0,0.0,0.0,0.0,0.0,0.0,0.0,0.0,0.0,0.0,0.0,0.0,0.0,0.0,0.0,0.0,0.0,0.0,0.0,0.0,0.0,0.0,0.0,0.0,0.0,0.0,0.0,0.0,0.0,0.0,0.0,0.0,0.0,0.0,0.0,0.0,0.0,0.0,0.0,0.0,0.0,0.0,0.0,0.0,0.0,0.0,0.0,0.0,0.0,0.0,0.0,0.0,0.0,0.0,0.0,0.0,0.0,0.0,0.0,0.0,0.0,0.0,0.0,0.0,0.0,0.0,0.0,0.0,0.0,0.0,0.0,0.0,0.0,1.2965,1.2357,1.1065,0.9043,0.7943,0.7282,0.0,0.0,0.0,0.0,0.0,0.0,0.0,0.0,0.0,0.0,0.0,0.0,0.0,0.0,0.0,0.0,0.0,0.0,0.0,0.0,0.0,0.0,0.0,0.0,0.0,0.0,0.0,0.0,0.0,0.0,0.0,0.0,0.0,0.0,0.0,0.0,0.0,0.0,0.0,0.0,0.0,0.0,0.0,0.0,0.0,0.0,0.0,0.0,0.0,0.0,0.0,0.0,0.0,0.0,0.0,0.0,0.0,0.0,0.0,0.0,0.0,0.0,0.0,0.0,0.0,0.0,0.0,0.0,0.0,0.0,0.0,0.0,0.0,0.0,0.0,0.0,0.0,0.0,0.0,0.0,0.0,0.0,0.0,0.0,0.0,0.0,0.0,0.0,0.0,0.0,0.0,0.0,0.0,0.0,0.0,0.0,0.0,0.0,0.0,0.0,0.0,0.0,0.0,0.0,0.0,0.0,0.0,0.0,1.3681,1.4255,1.3517,1.2242,1.0315,0.8755,0.762,0.0,0.0,0.0,0.0,0.0,0.0,0.0,0.0,0.0,0.0,0.0,0.0,0.0,0.0,0.0,0.0,0.0,0.0,0.0,0.0,0.0,0.0,0.0,0.0,0.0,0.0,0.0,0.0,0.0,0.0,0.0,0.0,0.0,0.0,0.0,0.0,0.0,0.0,0.0,0.0,0.0,0.0,0.0,0.0,0.0,0.0,0.0,0.0,0.0,0.0,0.0,0.0,0.0,0.0,0.0,0.0,0.0,0.0,0.0,0.0,0.0,0.0,0.0,0.0,0.0,0.0,0.0,0.0,0.0,0.0,0.0,0.0,0.0,0.0,0.0,0.0,0.0,0.0,0.0,0.0,0.0,0.0,0.0,0.0,0.0,0.0,0.0,0.0,0.0,0.0,0.0,0.0,0.0,0.0,0.0,0.0,0.0,0.0,0.0,0.0,0.0,0.0,0.0,0.0,0.0,0.0,0.0,0.0,1.3988,1.4603,1.4173,1.329,1.1931,1.0211,0.8658,0.0,0.0,0.0,0.0,0.0,0.0,0.0,0.0,0.0,0.0,0.0,0.0,0.0,0.0,0.0,0.0,0.0,0.0,0.0,0.0,0.0,0.0,0.0,0.0,0.0,0.0,0.0,0.0,0.0,0.0,0.0,0.0,0.0,0.0,0.0,0.0,0.0,0.0,0.0,0.0,0.0,0.0,0.0,0.0,0.0,0.0,0.0,0.0,0.0,0.0,0.0,0.0,0.0,0.0,0.0,0.0,0.0,0.0,0.0,0.0,0.0,0.0,0.0,0.0,0.0,0.0,0.0,0.0,0.0,0.0,0.0,0.0,0.0,0.0,0.0,0.0,0.0,0.0,0.0,0.0,0.0,0.0,0.0,0.0,0.0,0.0,0.0,0.0,0.0,0.0,0.0,0.0,0.0,0.0,0.0,0.0,0.0,0.0,0.0,0.0,0.0,0.0,0.0,0.0,0.0,0.0,0.0,0.0,1.4389,1.519,1.4358,1.3753,1.3408,1.0991,0.8925,0.0,0.0,0.0,0.0,0.0,0.0,0.0,0.0,0.0,0.0,0.0,0.0,0.0,0.0,0.0,0.0,0.0,0.0,0.0,0.0,0.0,0.0,0.0,0.0,0.0,0.0,0.0,0.0,0.0,0.0,0.0,0.0,0.0,0.0,0.0,0.0,0.0,0.0,0.0,0.0,0.0,0.0,0.0,0.0,0.0,0.0,0.0,0.0,0.0,0.0,0.0,0.0,0.0,0.0,0.0,0.0,0.0,0.0,0.0,0.0,0.0,0.0,0.0,0.0,0.0,0.0,0.0,0.0,0.0,0.0,0.0,0.0,0.0,0.0,0.0,0.0,0.0,0.0,0.0,0.0,0.0,0.0,0.0,0.0,0.0,0.0,0.0,0.0,0.0,0.0,0.0,0.0,0.0,0.0,0.0,0.0,0.0,0.0,0.0,0.0,0.0,0.0,0.0,0.0,0.0,0.0,0.0,0.0,1.4643,1.5364,1.4999,1.4459,1.3872,1.2491,1.099,0.0,0.0,0.0,0.0,0.0,0.0,0.0,0.0,0.0,0.0,0.0,0.0,0.0,0.0,0.0,0.0,0.0,0.0,0.0,0.0,0.0,0.0,0.0,0.0,0.0,0.0,0.0,0.0,0.0,0.0,0.0,0.0,0.0,0.0,0.0,0.0,0.0,0.0,0.0,0.0,0.0,0.0,0.0,0.0,0.0,0.0,0.0,0.0,0.0,0.0,0.0,0.0,0.0,0.0,0.0,0.0,0.0,0.0,0.0,0.0,0.0,0.0,0.0,0.0,0.0,0.0,0.0,0.0,0.0,0.0,0.0,0.0,0.0,0.0,0.0,0.0,0.0,0.0,0.0,0.0,0.0,0.0,0.0,0.0,0.0,0.0,0.0,0.0,0.0,0.0,0.0,0.0,0.0,0.0,0.0,0.0,0.0,0.0,0.0,0.0,0.0,0.0,0.0,0.0,0.0,0.0,0.0,1.4282,1.483,1.5431,1.5698,1.5235,1.4268,1.4172,1.3449,1.1946,0.0,0.0,0.0,0.0,0.0,0.0,0.0,0.0,0.0,0.0,0.0,0.0,0.0,0.0,0.0,0.0,0.0,0.0,0.0,0.0,0.0,0.0,0.0,0.0,0.0,0.0,0.0,0.0,0.0,0.0,0.0,0.0,0.0,0.0,0.0,0.0,0.0,0.0,0.2296,0.109,0.0,0.0,0.0,0.0,0.0,0.0,0.0,0.0,0.0,0.0,0.0,0.0,0.0,0.0,0.0,0.0,0.0,0.0,0.0,0.0,0.0,0.0,0.0,0.0,0.0,0.0,0.0,0.0,0.0,0.0,0.0,0.0,0.0,0.0,0.0,0.0,0.0,0.0,0.0,0.0,0.0,0.0,0.0,0.0,0.0,0.0,0.0,0.0,0.0,0.0,0.0,0.0,0.0,0.0,0.0,0.0,0.0,0.0,0.0,0.0,0.0,0.0,0.0,0.0,0.0,1.4723,1.4603,1.4923,1.5725,1.5805,1.5737,1.5534,1.5439,1.5165,1.4359,0.0,0.0,0.0,0.0,0.0,0.0,0.0,0.0,0.0,0.0,0.0,0.0,0.0,0.0,0.0,0.0,0.0,0.0,0.0,0.0,0.0,0.0,0.0,0.0,0.0,0.0,0.0,0.0,0.0,0.0,0.0,0.0,0.0,0.0,0.0,0.0,0.0,0.0,0.0,0.264,0.1845,0.0,0.0,0.0,0.0,0.0,0.0,0.0,0.0,0.0,0.0,0.0,0.0,0.0,0.0,0.0,0.0,0.0,0.0,0.0,0.0,0.0,0.0,0.0,0.0,0.0,0.0,0.0,0.0,0.0,0.0,0.0,0.0,0.0,0.0,0.0,0.0,0.0,0.0,0.0,0.0,0.0,0.0,0.0,0.0,0.0,0.0,0.0,0.0,0.0,0.0,0.0,0.0,0.0,0.0,0.0,0.0,0.0,0.0,0.0,0.0,0.0,0.0,0.0,0.0,1.4469,1.4816,1.5257,1.5805,1.5832,1.5832,1.5818,1.5538,1.4969,0.0,0.0,0.0,0.0,0.0,0.0,0.0,0.0,0.0,0.0,0.0,0.0,0.0,0.0,0.0,0.0,0.0,0.0,0.0,0.0,0.0,0.0,0.0,0.0,0.0,0.0,0.0,0.0,0.0,0.0,0.0,0.0,0.0,0.0,0.0,0.0,0.0,0.0,0.0,0.0,0.3984,0.3389,0.4031,0.0,0.0,0.0,0.0,0.0,0.0,0.0,0.0,0.0,0.0,0.0,0.0,0.0,0.0,0.0,0.0,0.0,0.0,0.0,0.0,0.0,0.0,0.0,0.0,0.0,0.0,0.0,0.0,0.0,0.0,0.0,0.0,0.0,0.0,0.0,0.0,0.0,0.0,0.0,0.0,0.0,0.0,0.0,0.0,0.0,0.0,0.0,0.0,0.0,0.0,0.0,0.0,0.0,0.0,0.0,0.0,0.0,0.0,0.0,0.0,0.0,0.0,0.0,1.4188,1.4977,1.5538,1.5818,1.5832,1.5805,1.5738,1.5284,1.4527,0.0,0.0,0.0,0.0,0.0,0.0,0.0,0.0,0.0,0.0,0.0,0.0,0.0,0.0,0.0,0.0,0.0,0.0,0.0,0.0,0.0,0.0,0.0,0.0,0.0,0.0,0.0,0.0,0.0,0.0,0.0,0.0,0.0,0.0,0.0,0.0,0.0,0.0,0.0,0.0,0.0,0.4965,0.5851,0.5218,0.0,0.0,0.0,0.0,0.0609,0.0205,0.0,0.0,0.0,0.0,0.0,0.0,0.0,0.0,0.0,0.0,0.0,0.0,0.0,0.0,0.0,0.0,0.0,0.0,0.0,0.0,0.0,0.0,0.0,0.0,0.0,0.0,0.0,0.0,0.0,0.0,0.0,0.0,0.0,0.0,0.0,0.0,0.0,0.0,0.0,0.0,0.0,0.0,0.0,0.0,0.0,0.0,0.0,0.0,0.0,0.0,0.0,0.0,0.0,0.0,0.0,0.0,1.4469,1.507,1.5538,1.5805,1.5832,1.5698,1.5458,1.5378,1.5006,0.0,0.0,0.0,0.0,0.0,0.0,0.0,0.0,0.0,0.0,0.0,0.0,0.0,0.0,0.0,0.0,0.0,0.0,0.0,0.0,0.0,0.0,0.0,0.0,0.0,0.0,0.0,0.0,0.0,0.0,0.0,0.0,0.0,0.0,0.0,0.0,0.0,0.0,0.0,0.0,0.0,0.6273,0.6073,0.6107,0.5775,0.0,0.0,0.3357,0.2172,0.086,0.0,0.0,0.0,0.0,0.0,0.0,0.0,0.0,0.0,0.0,0.0,0.0,0.0,0.0,0.0,0.0,0.0,0.0,0.0,0.0,0.0,0.0,0.0,0.0,0.0,0.0,0.0,0.0,0.0,0.0,0.0,0.0,0.0,0.0,0.0,0.0,0.0,0.0,0.0,0.0,0.0,0.0,0.0,0.0,0.0,0.0,0.0,0.0,0.0,0.0,0.0,0.0,0.0,0.0,0.0,1.4108,1.4522,1.5257,1.5712,1.5818,1.5671,1.5524,1.5391,1.475,1.4442,0.0,0.0,0.0,0.0,0.0,0.0,0.0,0.0,0.0,0.0,0.0,0.0,0.0,0.0,0.0,0.0,0.0,0.0,0.0,0.0,0.0,0.0,0.0,0.0,0.0,0.0,0.0,0.0,0.0,0.0,0.0,0.0,0.0,0.0,0.0,0.0,0.0,0.0,0.0,0.0,0.0,0.0,0.7492,0.7046,0.0,0.0,0.0,0.2835,0.2384,0.0,0.0,0.0,0.0,0.0,0.0,0.0,0.0,0.0,0.0,0.0,0.0,0.0,0.0,0.0,0.0,0.0,0.0,0.0,0.0,0.0,0.0,0.0,0.0,0.0,0.0,0.0,0.0,0.0,0.0,0.0,0.0,0.0,0.0,0.0,0.0,0.0,0.0,0.0,0.0,0.0,0.0,0.0,0.0,0.0,0.0,0.0,0.0,0.0,0.0,0.0,0.0,0.0,0.0,0.0,0.0,0.0,1.4643,1.5418,1.5832,1.5818,1.5551,1.5364,1.5271,1.4295,0.0,0.0,0.0,0.0,0.0,0.0,0.0,0.0,0.0,0.0,0.0,0.0,0.0,0.0,0.0,0.0,0.0,0.0,0.0,0.0,0.0,0.0,0.0,0.0,0.0,0.0,0.0,0.7068,0.0,0.0,0.0,0.0,0.0,0.0,0.0,0.0,0.0,0.0,0.0,0.0,0.0,0.0,0.8771,0.8615,0.7656,0.6894,0.0,0.0,0.2161,0.2379,0.1022,0.0,0.0,0.0,0.0,0.0,0.0,0.0,0.0,0.0,0.0,0.0,0.0,0.0,0.0,0.0,0.0,0.0,0.0,0.0,0.0,0.0,0.0,0.0,0.0,0.0,0.0,0.0,0.0,0.0,0.0,0.0,0.0,0.0,0.0,0.0,0.0,0.0,0.0,0.0,0.0,0.0,0.0,0.0,0.0,0.0,0.0,0.0,0.0,0.0,0.0,0.0,0.0,0.0,0.0,0.0,0.0,1.4937,1.5524,1.5832,1.5818,1.5551,1.5271,1.499,1.4376,1.4068,0.0,0.0,0.0,0.0,0.0,0.0,0.0,0.0,0.0,0.0,0.0,0.0,0.0,0.0,0.0,0.0,0.0,0.0,0.0,0.0,0.0,0.0,0.0,0.0,0.0,0.0,0.0,0.0,0.0,0.0,0.0,0.0,0.0,0.0,0.0,0.0,0.0,0.0,0.0,0.0,0.0,0.9069,0.8927,0.7887,0.7005,0.0,0.0,0.2025,0.2229,0.0973,0.0,0.0,0.0,0.0,0.0,0.0,0.0,0.0,0.0,0.0,0.0,0.0,0.0,0.0,0.0,0.0,0.0,0.0,0.0,0.0,0.0,0.0,0.0,0.0,0.0,0.0,0.0,0.0,0.0,0.0,0.0,0.0,0.0,0.0,0.0,0.0,0.0,0.0,0.0,0.0,0.0,0.0,0.0,0.0,0.0,0.0,0.0,0.0,0.0,0.0,0.0,0.0,0.0,0.0,0.0,1.4482,1.4963,1.5364,1.5645,1.5805,1.5378,1.507,1.4963,1.4041,1.3627,0.0,0.0,0.0,0.0,0.0,0.0,0.0,0.0,0.0,0.0,0.0,0.0,0.0,0.0,0.0,0.0,0.0,0.0,0.0,0.0,0.0,0.0,0.0,0.0,0.0,0.0,0.0,0.0,0.7461,0.7448,0.7509,0.0,0.0,0.0,0.0,0.0,0.0,0.0,0.0,0.0,0.0,0.885,0.7812,0.7475,0.0,0.0,0.3601,0.2247,0.2336,0.1104,0.0,0.0,-0.0654,0.0,0.0,0.0,0.0,0.0,0.0,0.0,0.0,0.0,0.0,0.0,0.0,0.0,0.0,0.0,0.0,0.0,0.0,0.0,0.0,0.0,0.0,0.0,0.0,0.0,0.0,0.0,0.0,0.0,0.0,0.0,0.0,0.0,0.0,0.0,0.0,0.0,0.0,0.0,0.0,0.0,0.0,0.0,0.0,0.0,0.0,0.0,0.0,0.0,0.0,0.0,0.0,1.4549,1.4963,1.5337,1.5618,1.5818,1.5257,1.5053,1.4937,1.3908,1.3467,0.0,0.0,0.0,0.0,0.0,0.0,0.0,0.0,0.0,0.0,0.0,0.0,0.0,0.0,0.0,0.0,0.0,0.0,0.0,0.0,0.0,0.0,0.0,0.0,0.0,0.0,0.0,0.0,0.7624,0.7584,0.7536,0.0,0.0,0.0,0.0,0.0,0.0,0.0,0.0,0.0,0.0,0.8266,0.7271,0.6465,0.556,0.4175,0.2675,0.1533,0.1779,0.0749,0.0,0.0,0.0,0.0,0.0,0.0,0.0,0.0,0.0,0.0,0.0,0.0,0.0,0.0,0.0,0.0,0.0,0.0,0.0,0.0,0.0,0.0,0.0,0.0,0.0,0.0,0.0,0.0,0.0,0.0,0.0,0.0,1.2964,0.0,0.0,0.0,0.0,0.0,0.0,0.0,0.0,0.0,0.0,0.0,0.0,0.0,0.0,0.0,0.0,0.0,0.0,0.0,0.0,0.0,0.0,1.4937,1.4963,1.5511,1.5818,1.5818,1.5257,1.4977,1.495,1.4108,1.3774,1.4055,0.0,0.0,0.0,0.0,0.0,0.0,0.0,0.0,0.0,0.0,0.0,0.0,0.0,0.0,0.0,0.0,0.0,0.0,0.0,0.0,0.0,0.0,0.0,0.0,0.0,0.0,0.7787,0.7685,0.755,0.0,0.0,0.0,0.0,0.0,0.0,0.0,0.0,0.0,0.0,0.7977,0.7276,0.7505,0.4829,0.2828,0.2573,0.1147,0.0,0.0,0.0,0.0,0.0,0.0,0.0,0.0,0.0,0.0,0.0,0.0,0.0,0.0,0.0,0.0,0.0,0.0,0.0,0.0,0.0,0.0,0.0,0.0,0.0,0.0,0.0,0.0,0.0,0.0,0.0,1.5045,1.5027,0.0,0.0,0.0,0.0,0.0,0.0,0.0,0.0,0.0,0.0,0.0,1.3627,1.3534,0.0,0.0,0.0,0.0,0.0,0.0,0.0,0.0,0.0,0.0,0.0,0.0,1.4763,1.4977,1.5337,1.5631,1.5818,1.5444,1.5257,1.5244,1.4402,1.3895,1.3801,0.0,0.0,0.0,0.0,0.0,0.0,0.0,0.0,0.0,0.0,0.0,0.0,0.0,0.0,0.0,0.0,0.0,0.0,0.0,0.0,0.0,0.0,0.0,0.0,0.0,0.776,0.0,0.0,0.0,0.0,0.0,0.0,0.0,0.0,0.0,0.0,0.0,0.8798,0.9245,0.8158,0.6936,0.5966,0.4002,0.2226,0.0,0.0,0.0,0.0,0.0,0.0,0.0,0.0,0.0,0.0,0.0,0.0,0.0,0.0,-0.9148,-0.8809,-0.8602,-0.8692,-0.9305,0.0,0.0,0.0,0.0,0.0,0.0,0.0,0.0,0.0,0.0,0.0,0.0,0.0,0.0,1.6749,0.0,1.6384,0.0,0.0,0.0,0.0,0.0,0.0,0.0,0.0,1.4058,1.4213,1.4082,1.4082,1.4695,0.0,1.4888,1.4601,0.0,0.0,0.0,0.0,0.0,0.0,0.0,0.0,1.4776,1.4977,1.5351,1.5631,1.5805,1.5551,1.5391,1.5391,1.475,1.4202,1.3814,1.3895,1.4041,0.0,0.0,0.0,0.0,0.0,0.0,0.0,0.0,0.0,0.0,0.0,0.0,0.0,0.0,0.0,0.0,0.0,0.0,0.0,0.0,0.0,0.0,0.0,0.7868,0.0,0.0,0.0,0.0,0.0,0.0,0.0,0.0,0.0,0.8535,0.8266,0.8194,0.8598,0.6991,0.5283,0.4257,0.0,0.0,0.0,0.0,0.0,0.0,0.0,-0.4392,-0.5694,-0.6541,-0.7265,-0.7941,-0.9606,-1.0826,-1.0677,0.0,0.0,-1.0222,-0.9998,-0.9992,-1.0188,-1.0385,-1.0561,-1.0717,-1.0982,-1.1185,0.0,0.0,0.0,0.0,0.0,0.0,0.0,0.0,1.7891,1.7988,0.0,1.7832,0.0,0.0,0.0,0.0,0.0,1.6597,0.0,0.0,1.539,1.5187,1.422,1.4162,1.4148,1.426,1.4811,1.5408,1.6004,1.4448,0.0,0.0,0.0,0.0,0.0,0.0,1.5053,1.5003,1.5538,1.5832,1.5818,1.5565,1.5404,1.5391,1.5124,1.471,1.4162,1.4389,1.4536,1.4549,1.3473,0.0,0.0,0.0,0.0,0.0,0.0,0.0,0.0,0.0,0.0,0.0,0.0,0.0,0.0,0.0,0.0,0.0,0.0,0.0,0.0,0.795,0.0,0.0,0.0,0.0,0.0,0.0,0.0,0.0,0.0,0.0,0.8437,0.7612,0.6926,0.7237,0.0,0.0,0.0,0.0,-0.0132,-0.0132,-0.1867,-0.3242,-0.3283,-0.5175,-0.6512,-0.6577,0.0,0.0,-0.7978,-0.9887,-1.1151,-1.1016,-1.1233,-1.1409,-1.1543,-1.1124,-1.1036,-1.1314,-1.1382,-1.1463,-1.177,-1.215,-1.2359,2.0625,0.0,0.0,0.0,0.0,2.0195,2.0547,2.1328,2.0156,1.9785,1.9961,1.9121,0.0,0.0,0.0,0.0,0.0,0.0,1.6766,1.5869,1.6443,1.6138,1.503,1.5231,1.5782,1.6588,1.5741,1.584,1.6758,1.5144,1.4723,1.5461,0.0,0.0,0.0,0.0,1.507,1.5284,1.5645,1.5832,1.5832,1.5752,1.5605,1.5404,1.5324,1.5097,1.4723,1.4803,1.4937,1.5137,1.3927,0.0,0.0,0.0,0.0,0.0,0.0,0.0,0.0,0.0,0.0,0.0,0.0,0.0,0.0,0.0,0.0,0.0,0.0,0.0,0.7904,0.795,0.8024,0.0,0.0,0.0,0.0,0.0,0.0,0.0,0.0,0.0,0.5904,0.5675,0.5346,0.0,0.0,0.2615,0.2627,0.0,-0.1987,-0.2027,-0.3698,0.0,0.0,-0.8959,-1.0747,-1.1861,-1.2037,-1.1775,-1.0934,-1.1142,-1.166,-1.1721,-1.1809,-1.2332,-1.3722,-1.2691,-1.1695,-1.1803,-1.1959,-1.2707,-1.431,-1.4855,-1.5007,2.207,2.1562,2.123,2.125,2.1465,2.1191,2.1543,2.2207,2.125,2.1016,2.1269,2.043,2.0,1.9922,1.9746,0.0,0.0,0.0,1.8462,1.7087,1.7617,1.7054,1.5671,1.6209,1.6936,1.7591,1.675,1.6926,1.8068,1.6388,1.6155,1.7156,0.0,0.0,1.4696,1.499,1.5217,1.5404,1.5685,1.5832,1.5832,1.5832,1.5738,1.5578,1.5565,1.5431,1.515,1.5137,1.5217,1.5391,1.4625,1.4596,0.0,0.0,0.0,0.0,0.0,0.0,0.0,0.0,0.0,0.0,0.0,1.4396,1.5046,0.0,0.0,0.0,0.9931,0.8698,0.7896,0.8038,0.0,0.0,0.0,0.0,0.0,0.0,0.0,0.5689,0.4463,0.3626,0.3744,0.3252,0.313,0.3919,0.2624,0.1317,0.0529,0.0,-0.2939,-0.3823,-0.5726,-0.7402,-0.8652,-1.1444,-1.3913,-1.5525,-1.5015,-1.4153,-1.3252,-1.2415,-1.2199,-1.3118,-1.3327,-1.4121,-1.6232,-1.5388,-1.4498,-1.4578,-1.4765,-1.5437,-1.6961,-1.7335,-1.7472,2.3144,2.3066,2.2305,2.1992,2.1992,2.1992,2.1992,2.1953,2.1523,2.1777,2.2441,2.1641,2.1504,2.1855,2.1465,0.0,2.0762,2.1602,2.0697,1.8485,1.8814,1.7903,1.6075,1.7116,1.7572,1.7572,1.7572,1.821,1.9055,1.7751,1.7763,1.8896,1.6184,1.4926,1.5349,1.5531,1.5589,1.5616,1.5698,1.5832,1.5832,1.5832,1.5832,1.5818,1.5832,1.5698,1.5444,1.5431,1.5431,1.5431,1.5431,1.5551,1.5805,0.0,0.0,0.0,0.0,0.0,0.0,0.0,0.0,0.0,0.0,0.0,0.0,0.0,0.0,0.0,0.926,0.0,0.8045,0.8187,0.0,0.0,0.0,0.7762,0.6027,0.618,0.5806,0.4216,0.0,0.0,0.1975,0.081,0.0682,0.2287,0.0931,-0.0796,-0.2412,-0.2952,-0.3775,-0.5607,-0.7631,-0.9168,-0.9595,-1.2707,-1.572,-1.7292,-1.6112,-1.4694,-1.46,-1.3306,-1.3133,-1.4769,-1.5428,-1.6223,-1.8381,-1.8662,-1.8854,-1.8994,-1.8734,-1.8812,-1.9335,-1.9529,-1.9651,2.3144,2.3038,2.293,2.2832,2.2852,2.2852,2.2852,2.2812,2.2383,2.2324,2.248,2.1973,2.1797,2.1875,2.1777,2.1855,2.207,2.2617,2.2221,2.1066,2.0492,1.9383,1.8028,1.726,1.698,1.6881,1.6881,1.6953,1.7021,1.6663,1.7065,1.7934,1.7323,1.7341,1.8055,1.7221,1.693,1.7101,1.6264,1.5832,1.5832,1.5832,1.5832,1.5832,1.5832,1.5805,1.5725,1.5725,1.5725,1.5725,1.5725,1.5765,1.5818,1.5765,0.0,0.0,0.0,0.0,0.0,0.0,0.0,0.0,0.0,1.4266,1.4266,0.0,1.1482,0.0,0.8962,0.8052,0.8201,0.8248,0.0,0.0,0.6911,0.6398,0.5035,0.3877,0.3113,0.2781,0.1422,0.0527,0.0534,0.0269,0.0135,0.0538,-0.0947,-0.2168,-0.2689,-0.5091,-0.7022,-0.7745,-0.9456,-1.0999,-1.1482,-1.3401,-1.5624,-1.7414,-1.591,-1.4593,-1.4872,-1.4629,-1.4605,-1.5387,-1.683,-1.8512,-2.0508,-2.0694,-2.1242,-2.2472,-2.0894,-1.944,-2.1068,-2.1635,-2.1669,2.3144,2.3144,2.3144,2.3144,2.3144,2.3144,2.3144,2.3125,2.2891,2.2793,2.2773,2.2539,2.2441,2.2461,2.2656,2.2871,2.3105,2.3535,2.3195,2.2204,2.1156,1.9894,1.8656,1.7867,1.7484,1.7484,1.7484,1.8076,1.8951,1.8468,1.8956,2.0388,2.0388,2.0564,2.0748,1.8568,1.7565,1.7988,1.655,1.5832,1.5832,1.5832,1.5832,1.5832,1.5832,1.5765,1.5645,1.5765,1.5765,1.5645,1.5765,1.5832,1.5818,1.5698,1.5618,0.0,0.0,0.0,0.0,0.0,0.0,0.0,0.0,0.0,0.0,0.0,1.052,0.933,0.8542,0.8235,0.8445,0.7886,0.7277,0.6527,0.5996,0.5094,0.3544,0.2757,0.2046,0.1299,0.0524,0.0,0.0,0.0,0.0,0.0,-0.2299,-0.3924,-0.4166,-0.6293,-0.8365,-0.9377,-1.055,-1.1966,-1.3163,-1.4187,-1.5413,-1.7028,-1.5836,-1.4811,-1.5813,-1.5518,-1.565,-1.7485,-1.8957,-2.034,-2.2178,-2.2493,-2.2891,-2.3601,-2.3133,-2.2657,-2.3339,-2.3604,-2.3604,2.3262,2.3223,2.3223,2.3184,2.3144,2.3144,2.3144,2.3144,2.3144,2.3144,2.3144,2.3144,2.3164,2.3242,2.3613,2.3828,2.3906,2.4113,2.3636,2.2582,2.1185,1.9842,1.8874,1.8478,1.8379,1.8394,1.8592,1.9794,2.1847,2.105,2.1602,2.3442,2.3512,2.3357,2.3047,1.9803,1.81,1.7992,1.6552,1.5885,1.5885,1.5885,1.5872,1.5832,1.5792,1.5658,1.5418,1.5631,1.5671,1.5471,1.5698,1.5832,1.5818,1.5591,1.5565,0.0,1.5591,0.0,0.0,0.0,0.0,0.0,0.0,0.0,0.0,1.0547,0.9446,0.8392,0.8296,0.8307,0.8467,0.7292,0.6298,0.5961,0.4965,0.3656,0.2008,0.2041,0.1682,0.0131,0.0,0.0,0.0,0.0,0.0,0.0,-0.3064,-0.5066,-0.5478,-0.7089,-0.9018,-1.0657,-1.1219,-1.213,-1.3728,-1.4196,-1.4856,-1.653,-1.539,-1.4919,-1.6979,-1.644,-1.6571,-1.9681,-2.0991,-2.1921,-2.3469,-2.3789,-2.3877,-2.4045,-2.5114,-2.5906,-2.5465,-2.5417,-2.5634,2.3984,2.3672,2.3672,2.3457,2.3144,2.3144,2.3144,2.3144,2.3144,2.3144,2.3144,2.3144,2.334,2.3672,2.375,2.3984,2.4224,2.3578,2.3172,2.2901,2.0712,1.9653,1.9346,1.833,1.7721,1.7825,1.8832,1.9366,1.9228,2.0184,2.0994,2.1786,2.1786,2.2382,2.3524,0.0,0.0,0.0,1.6195,1.6192,1.6192,1.6192,1.6072,1.5832,1.5605,0.0,1.5404,1.5444,1.5565,1.5738,1.5805,0.0,0.0,0.0,0.0,0.0,0.0,0.0,0.0,0.0,0.0,0.0,1.4178,1.3193,1.0706,0.9445,0.8723,0.8438,0.8438,0.8085,0.7061,0.6743,0.5539,0.3262,0.2766,0.2099,0.063,0.0,0.0258,0.0,0.0,0.0,0.0,0.0,0.0,0.0,-0.2982,-0.5076,-0.5398,-0.8106,-1.0232,-1.0806,-1.128,-1.1674,-1.208,-1.2265,-1.3069,-1.4239,-1.3484,-1.3658,-1.6644,-1.7448,-1.7857,-2.0301,-2.1864,-2.2897,-2.3394,-2.4106,-2.4636,-2.4989,-2.6172,-2.6934,-2.6283,-2.7336,-2.83,2.4297,0.0,2.4102,2.3965,0.0,2.3769,2.3769,2.375,2.3555,2.3574,2.3769,2.3769,2.3887,2.4121,2.4316,2.4531,2.4766,2.4507,2.4291,2.4212,2.2481,2.1253,2.0641,1.9213,1.8603,1.8603,1.9067,1.9814,2.0753,2.1247,2.1813,2.2528,2.2528,2.2815,2.3368,2.2036,1.9753,1.6763,1.6266,1.6059,1.6059,1.6059,1.5979,1.5832,0.0,0.0,0.0,0.0,0.0,0.0,0.0,0.0,0.0,1.5832,0.0,1.5832,1.5832,1.5832,1.5832,1.5965,1.5519,1.4445,1.4779,1.4015,1.1887,1.115,1.0931,1.0911,1.0289,0.9305,0.7967,0.6478,0.4651,0.2661,0.1594,0.0747,0.0,0.0,0.0,0.0,0.0,0.0,0.0,0.0,0.0,0.0,-0.2927,-0.5107,-0.5569,-0.8274,-1.0683,-1.0907,-1.1185,-1.1362,-1.1321,-1.1531,-1.1811,-1.2529,-1.2066,-1.3216,-1.6525,-1.7248,-1.825,-2.0641,-2.216,-2.2969,-2.3728,-2.4363,-2.4975,-2.6012,-2.7358,-2.8256,-2.7966,-2.8309,-2.875,2.4609,2.4531,2.4531,2.4473,2.4414,2.4414,2.4453,2.4512,0.0,0.0,0.0,2.4336,2.4394,2.4551,2.4824,2.5039,2.5195,2.5276,2.5333,2.5333,2.3998,2.2767,2.1659,2.0538,1.9937,2.0025,1.9867,2.085,2.2883,2.2749,2.3038,2.3621,2.3672,2.3496,2.3076,2.1943,2.0296,1.8411,1.6899,1.6184,1.6184,1.5994,1.5872,1.5832,1.5778,1.5645,1.5404,1.5631,1.5671,1.5498,1.5698,1.5832,1.5832,1.5832,1.5832,1.5832,1.5872,1.5899,1.5912,1.6179,1.6085,1.5345,1.6266,1.5822,1.3541,1.3699,1.3795,1.363,1.2265,1.0731,0.9245,0.6667,0.4425,0.3111,0.1488,0.0499,0.0,0.0127,0.0,0.0,0.0,0.0,0.0,0.0,-0.0123,0.0,-0.3115,-0.5397,-0.6125,-0.8694,-1.0582,-1.0806,-1.1009,-1.1131,-1.1158,-1.1341,-1.147,-1.1516,-1.1489,-1.2594,-1.5339,-1.6442,-1.7873,-2.0755,-2.1619,-2.2362,-2.381,-2.4419,-2.5138,-2.6586,-2.8377,-2.9678,-2.9719,-2.9322,-2.9172,2.5332,2.498,2.498,2.4766,2.4414,2.4414,2.4629,2.4941,2.4512,2.4355,2.4394,2.4043,2.4277,2.4961,2.4648,2.4922,2.5528,2.4473,2.3998,2.3899,2.2567,2.1845,2.1643,2.144,2.144,2.144,2.2515,2.2859,2.2654,2.3579,2.3822,2.3232,2.3223,2.3203,2.3038,2.1943,2.1123,2.0764,1.8785,1.7721,1.7721,1.6773,1.6086,1.5832,1.5605,1.5444,1.5404,1.5444,1.5551,1.5752,1.5805,1.5832,1.5832,1.5832,1.5832,1.5845,1.6072,1.6206,1.6219,1.6486,1.7351,1.895,2.0504,1.9194,1.4094,1.5051,1.5331,1.3899,1.2599,1.1062,0.9264,0.7624,0.5996,0.4596,0.3058,0.2099,0.1986,0.0,0.0,0.0,0.0,0.0,0.0,0.0,-0.0597,-0.1932,-0.3756,-0.5981,-0.8398,-0.9927,-1.0487,-1.0582,-1.0799,-1.0955,-1.0995,-1.1111,-1.1219,-1.1206,-1.1192,-1.1877,-1.419,-1.4583,-1.5905,-1.9131,-1.9783,-2.0734,-2.3015,-2.4423,-2.5551,-2.7011,-2.8811,-3.0045,-3.0409,-3.0622,-3.1191,2.5625,2.543,2.543,2.5312,2.5137,2.5137,2.5254,2.541,2.5215,2.5137,2.5078,2.4668,2.4844,2.5371,2.4961,2.5117,2.5645,2.502,2.4805,2.4707,2.4196,2.3484,2.2868,2.2767,2.2767,2.2833,2.2939,2.3158,2.3448,2.3673,2.3516,2.3144,2.3144,2.3144,2.3057,2.258,2.2296,2.2227,2.0012,1.8628,1.8067,1.7601,1.694,1.6299,1.6166,1.6032,1.5885,1.5872,1.5858,1.5832,1.5832,1.5832,1.5832,1.5832,1.6184,1.7085,1.7337,1.777,1.8692,1.9193,1.9999,2.1099,2.2078,2.1243,1.7767,1.8343,1.8255,1.639,1.4437,1.2346,1.0347,0.8329,0.6483,0.4924,0.3413,0.2585,0.2339,0.0986,0.0,0.0,0.0,0.0,0.0,-0.0706,-0.1414,-0.249,-0.4388,-0.6936,-0.9411,-0.9992,-1.0222,-1.0453,-1.0677,-1.0806,-1.0833,-1.1023,-1.1111,-1.1063,-1.105,-1.1718,-1.3325,-1.3663,-1.5167,-1.8046,-1.8653,-2.0206,-2.3505,-2.4691,-2.5929,-2.8048,-2.9106,-3.0019,-3.0449,-3.1035,-3.1719,2.5723,2.5723,2.5723,2.5723,2.5723,2.5723,2.5723,2.5723,2.5723,2.5723,2.5664,2.5254,2.5312,2.5664,2.5273,2.5312,2.5703,2.5723,2.5723,2.5723,2.5723,2.5118,2.4196,2.4097,2.4097,2.4122,2.3363,2.3467,2.4244,2.3652,2.3223,2.3144,2.3144,2.3144,2.3144,2.3144,2.3184,2.3086,2.1446,1.9853,1.8529,1.8258,1.7663,1.6773,1.67,1.6607,1.638,1.6313,1.6166,1.5939,1.5872,1.5953,1.6293,1.6388,1.7085,1.8605,1.8904,1.962,2.1014,2.1962,2.2605,2.3046,2.3182,2.2544,2.1002,2.0624,1.979,1.7981,1.5296,1.2964,1.1093,0.8993,0.6931,0.5399,0.3886,0.294,0.246,0.0984,0.0,0.0,0.0,0.0,0.0,-0.1277,-0.244,-0.3611,-0.5727,-0.8014,-0.9308,-0.9659,-0.989,-1.0236,-1.05,-1.0602,-1.0636,-1.0785,-1.0873,-1.0812,-1.0785,-1.1311,-1.2359,-1.2931,-1.428,-1.6968,-1.7966,-1.9619,-2.3395,-2.4743,-2.5783,-2.7865,-2.9355,-3.0418,-3.0997,-3.1536,-3.1821,2.5723,2.5723,2.5723,2.5723,2.5723,2.5723,2.5723,2.5723,2.5723,2.5723,2.5684,2.5273,2.5312,2.5644,2.5273,2.5312,2.5723,2.5723,2.5723,2.5723,2.5723,2.5645,2.543,2.5528,2.5528,2.545,2.4909,2.4539,2.4355,2.3926,2.3516,2.3184,2.3144,2.3144,2.3144,2.3144,2.332,2.373,2.3531,2.2245,1.9837,1.864,1.7663,1.67,1.6714,1.67,1.676,1.6406,1.6259,1.6219,1.6074,1.651,1.7882,1.8118,1.8827,2.0408,2.0817,2.1312,2.2162,2.3356,2.4427,2.518,2.4553,2.3272,2.1048,1.9277,1.778,1.5955,1.3595,1.1942,1.1293,0.986,0.8272,0.6565,0.5167,0.3996,0.2569,0.0974,0.0,0.0,0.0,0.0,0.0,-0.1345,-0.339,-0.5707,-0.7514,-0.8878,-0.9278,-0.9422,-0.9544,-0.9849,-1.0127,-1.0304,-1.0344,-1.0337,-1.0426,-1.0385,-1.0358,-1.0684,-1.1394,-1.2234,-1.3491,-1.6076,-1.7066,-1.891,-2.1464,-2.3383,-2.4884,-2.6829,-2.9153,-3.1746,-3.2517,-3.2871,-3.2819,2.5723,2.5723,2.5723,2.5723,2.5723,2.5723,2.5723,2.5723,2.5449,2.5488,2.5664,2.5273,2.5312,2.5703,2.5273,2.5312,2.5723,2.5723,2.5723,2.5723,2.5723,2.5723,2.5723,2.5723,2.5605,2.5312,2.4883,2.4453,2.4043,2.3613,2.3301,2.3164,2.3144,2.3144,2.3144,2.3144,2.3359,2.3769,2.3789,2.3072,2.1865,2.1264,2.0165,1.8586,1.844,1.8339,1.8168,1.8024,1.8174,1.8464,1.8392,1.8659,1.9367,1.9383,2.0194,2.2127,2.3564,2.4454,2.4702,2.5451,2.604,2.6399,2.4284,2.2231,2.0373,1.6273,1.3131,1.1852,1.1672,1.1313,1.0039,0.8749,0.7375,0.5856,0.4272,0.3123,0.2633,0.0963,0.0,0.0,0.0,0.0,0.0,-0.2117,-0.4349,-0.6473,-0.8121,-0.915,-0.9225,-0.9245,-0.9334,-0.953,-0.9747,-0.9992,-1.0195,-1.0276,-1.0276,-1.0276,-1.0276,-1.0445,-1.1703,-1.2083,-1.3546,-1.6252,-1.7054,-1.8696,-2.154,-2.3016,-2.4435,-2.6427,-2.9085,-3.2032,-3.2532,-3.3652,-3.3931,2.5723,2.5723,2.5723,2.5723,2.5723,2.5605,2.5625,2.5664,2.5254,2.5312,2.5684,2.5391,2.543,2.5664,2.5391,2.543,2.5703,2.5723,2.5723,2.5723,2.5723,2.5723,2.5723,2.5723,2.5566,2.5215,2.4687,2.4141,2.3633,2.332,2.3144,2.3144,2.3144,2.3203,2.332,2.332,2.3594,2.4102,2.4141,2.4028,2.3758,2.3754,2.2391,1.9907,1.9627,1.9523,1.9284,1.9194,1.9605,2.0338,2.0235,2.0406,2.0968,2.09,2.1795,2.3962,2.5618,2.6562,2.6562,2.6855,2.6807,2.6302,2.3538,2.0873,1.8309,1.3674,0.9903,0.83,0.9145,0.8981,0.7901,0.6925,0.5754,0.4243,0.293,0.2365,0.1768,0.0594,0.0,0.0,0.0,-0.0338,-0.1219,-0.3081,-0.515,-0.7002,-0.8188,-0.8967,-0.9062,-0.9096,-0.915,-0.9293,-0.9422,-0.9639,-1.0012,-1.0107,-1.0266,-1.0649,-1.0628,-1.0885,-1.2657,-1.3154,-1.3899,-1.6453,-1.7253,-1.8339,-2.0508,-2.226,-2.4975,-2.7416,-2.9888,-3.2138,-3.2595,-3.4096,-3.5024,2.5723,2.5723,2.5723,2.5723,2.5703,2.5388,2.5352,2.58,2.5349,2.5388,2.5761,2.5684,2.5703,2.5703,2.5664,2.5703,2.5723,2.5723,2.5723,2.5723,2.5723,2.5723,2.5723,2.5723,2.5723,2.5527,2.4844,2.4043,2.3262,2.3164,2.3144,2.3144,2.3232,2.334,2.3633,2.3691,2.416,2.4785,2.4902,2.51,2.5412,2.5489,2.3565,2.0231,1.9731,1.9819,1.9671,1.9415,1.9906,2.1147,2.0707,2.1114,2.2811,2.2691,2.3629,2.5817,2.6598,2.6953,2.6832,2.6851,2.634,2.5021,2.2535,1.976,1.6228,1.2223,0.8917,0.6605,0.5593,0.4836,0.4785,0.4654,0.3951,0.2627,0.2295,0.1507,0.0,0.0,0.0,0.0,0.0,0.0,-0.3316,-0.4256,-0.5692,-0.7492,-0.8722,-0.894,-0.896,-0.896,-0.9028,-0.9123,-0.9205,-0.9293,-0.9578,-1.0158,-1.0822,-1.1339,-1.1271,-1.1225,-1.3081,-1.4811,-1.5785,-1.6851,-1.7997,-1.8971,-1.9924,-2.2291,-2.5869,-2.8545,-3.077,-3.2385,-3.2784,-3.4183,-3.5068,2.5469,2.5723,2.5723,2.5723,2.5781,2.5993,2.6411,2.6853,2.6064,2.5982,2.6276,2.5674,2.5312,2.5332,2.5605,2.5723,2.5723,2.5723,2.5723,2.5723,2.5723,2.5723,2.5723,2.5723,2.5566,2.5273,2.498,2.4742,2.4568,2.4574,2.441,2.4251,2.4211,2.3967,2.3487,2.3652,2.4082,2.4609,2.4922,2.5293,2.5684,2.5723,2.451,2.2366,2.2265,2.1862,2.0947,2.1628,2.2554,2.3684,2.3484,2.3654,2.4355,2.4507,2.4948,2.5839,2.6367,2.6198,2.5432,2.533,2.4699,2.3255,2.0225,1.7612,1.4767,1.0497,0.6742,0.4976,0.2789,0.168,0.18,0.249,0.2438,0.0,0.0,0.0,0.0,0.0,0.0,0.0,0.0,0.0,-0.2641,-0.3689,-0.51,-0.6956,-0.8151,-0.8716,-0.892,-0.894,-0.8967,-0.9015,-0.9096,-0.9191,-0.9273,-1.0582,-1.1462,-1.2005,-1.2397,-1.3504,-1.5152,-1.5522,-1.6195,-1.7407,-1.8691,-1.9339,-2.0061,-2.2322,-2.594,-2.8665,-3.0903,-3.1932,-3.2972,-3.3982,-3.4803,2.5332,2.5703,2.5723,2.5917,2.632,2.6465,2.702,2.7757,2.6832,2.6836,2.7168,2.6609,2.632,2.6411,2.6335,2.6572,2.6744,2.6091,2.5723,2.5723,2.5723,2.5723,2.5723,2.5723,2.5508,2.5153,2.5212,2.5058,2.4764,2.5464,2.5188,2.4296,2.4638,2.4292,2.3536,2.3652,2.3984,2.4414,2.4844,2.5234,2.5508,2.5664,2.5096,2.4162,2.4299,2.3981,2.2638,2.3462,2.4369,2.5295,2.5234,2.5059,2.5117,2.5625,2.5937,2.5977,2.5948,2.5383,2.4336,2.3776,2.2842,2.1269,1.8496,1.5939,1.3902,0.9069,0.5797,0.382,0.1118,-0.0515,0.0,0.053,0.0542,0.0,0.0,0.0,0.0,0.0,0.0,0.0,0.0,-0.1497,-0.3028,-0.4309,-0.5611,-0.6995,-0.8107,-0.8716,-0.8913,-0.894,-0.8913,-0.8886,-0.8988,-0.9055,-0.9349,-1.0433,-1.2009,-1.2687,-1.2633,-1.43,-1.6069,-1.6257,-1.6745,-1.8007,-1.8974,-1.9417,-2.0832,-2.2796,-2.5371,-2.8164,-2.9408,-3.029,-3.1686,-3.3317,-3.3763,2.5312,2.5664,2.5723,2.636,2.7076,2.6725,2.7187,2.8255,2.7584,2.7651,2.8344,2.8455,2.8407,2.8782,2.7964,2.8236,2.8588,2.703,2.6014,2.5917,2.582,2.582,2.5917,2.611,2.5873,2.5491,2.5468,2.4743,2.3941,2.5613,2.5654,2.3993,2.4553,2.4633,2.384,2.384,2.3984,2.4375,2.4805,2.5078,2.5117,2.5508,2.5271,2.4574,2.5572,2.561,2.4361,2.438,2.5088,2.6013,2.5566,2.5117,2.5234,2.5742,2.6229,2.5971,2.5405,2.459,2.3655,2.2432,2.0913,1.8979,1.7176,1.5035,1.2542,0.845,0.5295,0.3814,0.0604,-0.1421,-0.0619,-0.1143,-0.1372,0.0,0.0,0.0,0.0,0.0,-0.0668,-0.1863,-0.2159,-0.3273,-0.5313,-0.6063,-0.6653,-0.788,-0.8582,-0.8879,-0.892,-0.894,-0.8872,-0.8811,-0.8879,-0.8981,-0.9565,-1.0389,-1.2001,-1.3173,-1.2899,-1.3695,-1.6287,-1.7189,-1.7102,-1.8114,-1.9509,-2.0172,-2.2166,-2.4022,-2.4896,-2.7024,-2.7915,-2.8803,-2.9925,-3.1268,-3.228,2.5611,2.5444,2.6202,2.6384,2.6526,2.7832,2.8646,2.8633,2.831,2.8477,2.8765,2.863,2.85,2.85,2.8627,2.9028,2.9326,2.8495,2.7861,2.7125,2.703,2.703,2.7125,2.784,2.7957,2.7463,2.7127,2.6995,2.7105,2.7704,2.7483,2.667,2.613,2.5464,2.4543,2.4058,2.3887,2.4043,2.4707,2.5059,2.5098,2.5508,2.5508,2.5427,2.6013,2.6303,2.6149,2.6168,2.6256,2.6406,2.6133,2.584,2.545,2.4862,2.4467,2.4128,2.3061,2.1728,2.0522,1.9948,1.9079,1.7244,1.5084,1.3469,1.2044,0.7553,0.461,0.3613,0.0402,-0.1718,-0.1727,-0.2566,-0.2833,-0.1632,-0.1536,-0.188,-0.2676,-0.2905,-0.3329,-0.3611,-0.3796,-0.4589,-0.5832,-0.6453,-0.7032,-0.8269,-0.8601,-0.871,-0.8886,-0.894,-0.8933,-0.8886,-0.8933,-0.903,-0.9699,-1.0492,-1.1917,-1.3598,-1.376,-1.4134,-1.6466,-1.7751,-1.7672,-1.8454,-1.9837,-2.1356,-2.3459,-2.4476,-2.5138,-2.5874,-2.6924,-2.7673,-2.8087,-2.9221,-3.0438,2.5523,2.5228,2.6445,2.6972,2.7191,2.9141,2.9839,2.9582,2.9522,2.9488,2.9494,2.9413,2.9285,2.9332,2.9658,3.0004,3.0318,2.9761,2.9212,2.8866,2.8402,2.833,2.8287,2.8851,2.888,2.8476,2.8218,2.808,2.7952,2.8769,2.8602,2.7568,2.7197,2.6295,2.4978,2.439,2.4067,2.3742,2.4219,2.459,2.4707,2.5176,2.5566,2.5762,2.6172,2.6582,2.6973,2.7012,2.6894,2.6602,2.6348,2.6016,2.5645,2.438,2.3456,2.2947,2.1455,1.9791,1.8716,1.8213,1.7148,1.5553,1.3523,1.1746,1.0311,0.6326,0.4017,0.2812,-0.0402,-0.2515,-0.2318,-0.3751,-0.4261,-0.3868,-0.3237,-0.3374,-0.4192,-0.4453,-0.4786,-0.5068,-0.5247,-0.592,-0.6785,-0.7264,-0.7503,-0.8441,-0.8621,-0.8682,-0.8886,-0.8933,-0.892,-0.8913,-0.8913,-0.9216,-0.9719,-1.0724,-1.1964,-1.3454,-1.4831,-1.5634,-1.7193,-1.7676,-1.7716,-1.9477,-2.1024,-2.1966,-2.3843,-2.3837,-2.4172,-2.5164,-2.5951,-2.5944,-2.631,-2.8063,-2.9413,2.5358,2.5337,2.6568,2.7861,2.899,2.9986,3.0544,3.0959,3.0678,3.0348,3.0373,3.0363,3.0692,3.1034,3.0652,3.1051,3.1699,3.0655,3.0418,3.0687,3.0214,2.9738,2.9693,2.9484,2.9003,2.85,2.8751,2.8281,2.7499,2.8889,2.8791,2.7302,2.7683,2.7012,2.5378,2.4872,2.4186,2.335,2.3633,2.3867,2.3926,2.4609,2.5234,2.5644,2.6016,2.6426,2.6836,2.6914,2.6934,2.6855,2.6133,2.5684,2.5412,2.4082,2.2955,2.2751,2.0232,1.8671,1.7949,1.7105,1.5945,1.4569,1.2975,1.0858,0.8689,0.6006,0.3516,0.2211,-0.1305,-0.3215,-0.2816,-0.4329,-0.5732,-0.6307,-0.5341,-0.4859,-0.4579,-0.4875,-0.5682,-0.6564,-0.6827,-0.7072,-0.8353,-0.8454,-0.8568,-0.8703,-0.8784,-0.8852,-0.8913,-0.892,-0.8866,-0.8872,-0.8899,-0.9545,-1.0062,-1.1376,-1.2615,-1.4245,-1.5791,-1.6987,-1.7662,-1.7925,-1.8603,-2.0339,-2.1956,-2.2963,-2.3808,-2.4153,-2.4098,-2.4597,-2.4693,-2.4194,-2.5048,-2.6954,-2.8325,2.6598,2.5612,2.7984,2.8208,2.7521,2.9891,3.044,2.9658,2.9915,3.008,3.008,3.0432,3.0658,3.0829,3.1431,3.1938,3.2037,3.2056,3.2239,3.2525,3.2326,3.1883,3.1406,3.0918,3.0406,2.9894,2.9616,2.9332,2.8973,2.9468,2.9468,2.8949,2.8267,2.7522,2.613,2.5294,2.4211,2.3359,2.3555,2.3769,2.3848,2.4277,2.4785,2.5215,2.5371,2.582,2.6445,2.6562,2.6562,2.6484,2.5723,2.5254,2.5043,2.2889,2.1388,2.0769,1.8631,1.6829,1.6484,1.6239,1.5708,1.5166,1.3102,1.1239,0.9527,0.609,0.3613,0.181,-0.0804,-0.2814,-0.3516,-0.5027,-0.6417,-0.7595,-0.7511,-0.7362,-0.7408,-0.768,-0.7931,-0.8263,-0.8225,-0.8381,-0.8534,-0.8723,-0.8723,-0.873,-0.8771,-0.8832,-0.8906,-0.8933,-0.8899,-0.8906,-0.9037,-0.9779,-1.0748,-1.1955,-1.347,-1.5079,-1.6698,-1.8199,-1.8527,-1.8617,-1.9731,-2.1285,-2.2707,-2.3852,-2.4754,-2.5436,-2.5056,-2.4468,-2.3921,-2.3697,-2.4457,-2.5883,-2.7122,2.7309,2.6282,2.8533,2.8703,2.7917,3.0348,3.0654,2.9756,2.994,3.0005,2.9905,3.0105,3.0281,3.0357,3.116,3.1662,3.1938,3.2466,3.2842,3.3068,3.2982,3.2682,3.2181,3.1838,3.1361,3.0633,3.0306,3.003,2.9752,2.9779,2.9779,2.9624,2.9131,2.8291,2.7197,2.6521,2.5378,2.4166,2.4062,2.4027,2.3535,2.3926,2.4219,2.459,2.4844,2.543,2.6016,2.6113,2.6191,2.6152,2.5586,2.5059,2.4811,2.2055,2.0351,1.9931,1.7567,1.6005,1.5885,1.5832,1.5534,1.4758,1.3006,1.1132,0.9151,0.6399,0.4218,0.2113,0.0,-0.1907,-0.392,-0.5761,-0.728,-0.8267,-0.9176,-0.9479,-0.8955,-0.8673,-0.8933,-0.894,-0.8933,-0.8913,-0.8811,-0.8804,-0.8804,-0.8811,-0.8825,-0.8872,-0.892,-0.8927,-0.894,-0.894,-0.9251,-0.9991,-1.1167,-1.2586,-1.4393,-1.6001,-1.7462,-1.8962,-1.9892,-1.9892,-2.0931,-2.2215,-2.3538,-2.4637,-2.5488,-2.5909,-2.5463,-2.4788,-2.3861,-2.3599,-2.4228,-2.4998,-2.6189,2.7883,2.7279,2.8516,2.9189,2.9523,3.0745,3.0879,3.0478,3.0432,3.0206,2.9957,2.9934,3.0164,2.9959,3.1033,3.1284,3.1716,3.2623,3.2988,3.3293,3.3259,3.2845,3.2064,3.1964,3.1361,3.0583,3.0532,3.0206,2.988,2.9779,2.9779,2.9779,2.9702,2.9106,2.8108,2.7924,2.693,2.5294,2.4744,2.4292,2.368,2.3713,2.3789,2.4023,2.459,2.5137,2.5547,2.5684,2.584,2.6289,2.5469,2.5,2.4562,2.1884,2.0475,1.9909,1.8115,1.6494,1.6292,1.6372,1.571,1.4734,1.3102,1.0849,0.8773,0.6807,0.4722,0.2213,0.0903,-0.1105,-0.384,-0.6444,-0.7801,-0.8472,-0.9808,-0.9869,-0.9399,-0.918,-0.9375,-0.9368,-0.9478,-0.9375,-0.9154,-0.9044,-0.914,-0.8804,-0.8832,-0.8872,-0.8899,-0.8906,-0.892,-0.894,-0.9354,-1.0085,-1.1593,-1.3096,-1.5105,-1.7003,-1.8212,-1.9668,-2.1309,-2.1728,-2.2381,-2.332,-2.429,-2.5114,-2.5925,-2.6021,-2.5798,-2.5451,-2.4924,-2.4055,-2.3664,-2.4528,-2.5617,2.884,2.8056,2.956,2.956,2.8778,3.0053,3.0482,3.0005,2.998,2.993,3.0036,3.057,3.0846,3.0973,3.2075,3.2847,3.3046,3.3907,3.458,3.4214,3.3822,3.2808,3.1909,3.1644,3.0984,3.0231,2.998,2.9905,2.9804,2.9779,2.9779,2.9779,2.9702,2.9263,2.8347,2.8187,2.7522,2.6213,2.5378,2.4787,2.4296,2.366,2.3565,2.3789,2.4277,2.4746,2.5117,2.5215,2.543,2.5547,2.5078,2.4551,2.4156,2.2354,2.1031,2.0616,1.9579,1.858,1.8488,1.7762,1.7217,1.6452,1.3753,1.1239,0.9633,0.7304,0.4918,0.2615,0.1609,-0.0101,-0.3672,-0.5653,-0.7217,-0.8342,-0.9098,-0.9823,-1.0582,-1.1511,-1.1855,-1.2082,-1.2073,-1.1864,-1.0781,-1.046,-0.9983,-0.9138,-0.8818,-0.8859,-0.8879,-0.8886,-0.8879,-0.8886,-0.9064,-0.9776,-1.1541,-1.3244,-1.5479,-1.7365,-1.8702,-1.976,-2.1379,-2.2839,-2.3188,-2.3962,-2.4895,-2.5637,-2.6387,-2.6851,-2.6788,-2.643,-2.5954,-2.4994,-2.4445,-2.4754,-2.5138,2.9443,2.8973,2.987,2.9717,2.9101,2.9845,3.0055,2.9829,2.9779,3.0062,3.0495,3.1044,3.1622,3.2307,3.3147,3.3542,3.3928,3.4479,3.4694,3.4416,3.4095,3.3224,3.1992,3.1547,3.1084,3.0009,2.9804,2.9779,2.9779,2.9779,2.9779,2.9779,2.9779,2.9546,2.9028,2.8846,2.8347,2.7441,2.6707,2.5942,2.4872,2.4296,2.3759,2.38,2.4023,2.4316,2.4727,2.4766,2.4883,2.4883,2.4512,2.4219,2.4055,2.2497,2.1427,2.1105,2.0206,1.9588,1.9222,1.8948,1.8226,1.7684,1.4601,1.2576,1.0635,0.84,0.5822,0.3717,0.2513,0.1109,-0.3459,-0.5449,-0.6906,-0.8329,-0.9312,-1.0377,-1.1702,-1.229,-1.2615,-1.3048,-1.3156,-1.2398,-1.1755,-1.1402,-1.0311,-0.9159,-0.8743,-0.8784,-0.8866,-0.8866,-0.8804,-0.8791,-0.8757,-0.9555,-1.1274,-1.3351,-1.5688,-1.7354,-1.8802,-1.9797,-2.1014,-2.2425,-2.3688,-2.4417,-2.5172,-2.5875,-2.6484,-2.709,-2.748,-2.7132,-2.6523,-2.5721,-2.5406,-2.5758,-2.5856,2.9779,2.9779,2.9779,2.9779,2.9779,2.9804,2.9804,2.9804,3.0011,3.0495,3.1167,3.1389,3.2554,3.3445,3.3888,3.4209,3.4629,3.4696,3.4938,3.476,3.4538,3.3608,3.2551,3.1882,3.1265,3.0113,2.9856,2.9779,2.9779,2.9779,2.9779,2.9779,2.9779,2.9702,2.9779,2.9702,2.9287,2.8426,2.7924,2.7174,2.5775,2.5294,2.4846,2.4574,2.4167,2.4337,2.4584,2.452,2.4375,2.4375,2.4004,2.4023,2.3731,2.2787,2.1569,2.1569,2.0854,2.0494,2.0404,1.9951,1.9314,1.8041,1.5334,1.3335,1.1638,0.9304,0.6719,0.4618,0.3015,0.0907,-0.3442,-0.5043,-0.6709,-0.8329,-0.9854,-1.1246,-1.2342,-1.1846,-1.2126,-1.3911,-1.4545,-1.4008,-1.2548,-1.1657,-1.0373,-0.9268,-0.896,-0.8696,-0.8764,-0.8791,-0.871,-0.8635,-0.8587,-0.9684,-1.1578,-1.3711,-1.6023,-1.7008,-1.8552,-1.9543,-2.0524,-2.1667,-2.2975,-2.4478,-2.535,-2.5974,-2.6665,-2.7341,-2.7617,-2.748,-2.778,-2.7773,-2.7428,-2.6957,-2.6848,2.9779,2.9779,2.9779,2.9779,2.9779,2.9779,2.9856,2.9934,3.062,3.1044,3.1462,3.2806,3.3589,3.4174,3.4882,3.5533,3.5889,3.5809,3.5706,3.5411,3.5082,3.4184,3.3101,3.2159,3.14,3.0872,3.0343,2.9985,2.9779,2.9779,2.9856,2.9779,2.9779,2.9779,2.9856,2.9779,2.9702,2.9287,2.8688,2.7844,2.7256,2.6461,2.6008,2.5678,2.5083,2.4861,2.4819,2.4426,2.4062,2.4336,2.4004,2.3867,2.3789,2.3113,2.2706,2.258,2.2403,2.205,2.205,2.148,2.0494,1.8808,1.6033,1.3419,1.1726,0.9592,0.7,0.4418,0.2016,-0.0611,-0.3982,-0.4609,-0.61,-0.7877,-0.905,-0.9953,-1.105,-1.1531,-1.253,-1.5176,-1.5858,-1.5423,-1.3169,-1.1478,-1.0486,-0.9382,-0.8673,-0.8513,-0.8533,-0.856,-0.854,-0.8465,-0.8404,-0.9981,-1.1841,-1.4155,-1.6209,-1.6427,-1.7598,-1.8874,-1.9858,-2.0835,-2.2183,-2.3914,-2.5252,-2.6073,-2.6764,-2.7442,-2.8086,-2.8432,-2.9206,-2.996,-2.9539,-2.8834,-2.8349,2.9779,2.9779,2.9779,2.9779,2.9856,3.0343,3.057,3.0696,3.1536,3.2164,3.2834,3.3602,3.4516,3.5251,3.5703,3.6207,3.6327,3.6088,3.5882,3.5595,3.5321,3.4708,3.3776,3.2874,3.2362,3.1974,3.1415,3.0646,2.9856,2.9779,3.0164,3.0343,3.0062,3.0011,3.0292,3.0062,2.9856,2.9624,2.9287,2.8688,2.8084,2.7116,2.6565,2.6318,2.6047,2.5507,2.4974,2.4712,2.4135,2.3742,2.3555,2.3477,2.3398,2.3301,2.3144,2.3144,2.3144,2.3144,2.3057,2.2403,2.1498,1.9464,1.6863,1.4427,1.2234,0.9917,0.7254,0.4506,0.2414,-0.0101,-0.2776,-0.3335,-0.4771,-0.6921,-0.778,-0.8791,-1.0293,-1.0757,-1.2846,-1.5255,-1.4654,-1.3559,-1.2278,-1.1054,-1.0377,-0.9584,-0.8688,-0.8453,-0.8536,-0.8343,-0.837,-0.8734,-0.8976,-1.0414,-1.2173,-1.4091,-1.6038,-1.6326,-1.7176,-1.8444,-1.9838,-2.1147,-2.2253,-2.3502,-2.474,-2.6014,-2.6467,-2.7016,-2.8115,-2.9289,-3.0089,-3.0702,-3.0925,-3.082,-3.0284,2.9779,2.9779,2.9779,2.9934,3.0216,3.082,3.1315,3.1683,3.2478,3.3255,3.3945,3.4274,3.5037,3.6015,3.6237,3.6237,3.6237,3.5699,3.5544,3.5544,3.5448,3.5001,3.4476,3.3945,3.3504,3.2876,3.2451,3.1829,3.0846,3.057,3.0921,3.1119,3.0722,3.0722,3.1193,3.062,3.0216,2.9985,2.9779,2.9287,2.845,2.7626,2.7139,2.7058,2.6976,2.6318,2.5443,2.4935,2.4186,2.3466,2.3184,2.3164,2.3144,2.3144,2.3144,2.3144,2.3144,2.3144,2.3057,2.3057,2.205,2.0206,1.8171,1.5537,1.2565,0.9981,0.7211,0.4499,0.2714,0.0707,-0.1734,-0.2158,-0.3546,-0.5404,-0.6557,-0.7457,-0.8941,-0.9949,-1.0698,-1.2103,-1.2322,-1.2506,-1.2006,-1.22,-1.1836,-1.0509,-0.9625,-0.9142,-0.9019,-0.8309,-0.8418,-0.909,-0.9738,-1.095,-1.251,-1.3975,-1.5447,-1.6286,-1.7471,-1.8799,-2.0327,-2.1691,-2.2786,-2.3987,-2.4767,-2.5977,-2.6227,-2.6941,-2.854,-2.9935,-3.0881,-3.191,-3.2938,-3.2963,-3.2286,2.9779,2.9779,2.9779,3.0266,3.097,3.1267,3.1756,3.255,3.3463,3.3876,3.4177,3.4905,3.5419,3.5669,3.5669,3.5639,3.5609,3.5579,3.5489,3.5489,3.5489,3.5424,3.5133,3.4312,3.4062,3.3596,3.3003,3.2593,3.2109,3.2109,3.2236,3.2307,3.2191,3.2335,3.2236,3.1315,3.1018,3.082,3.0216,2.9702,2.9546,2.9287,2.9209,2.8949,2.8371,2.7441,2.6295,2.5546,2.4467,2.3387,2.3125,2.3125,2.3144,2.3144,2.3144,2.3144,2.3144,2.3144,2.3144,2.3057,2.2492,2.0766,1.8799,1.6155,1.3119,0.9494,0.6366,0.4307,0.2814,0.1011,-0.1226,-0.2062,-0.313,-0.4313,-0.562,-0.6273,-0.7422,-0.9078,-0.9824,-1.0323,-1.0961,-1.2363,-1.2972,-1.3259,-1.3435,-1.1905,-1.0645,-1.0078,-0.9498,-0.8907,-0.8607,-0.939,-1.0762,-1.2058,-1.292,-1.4352,-1.5337,-1.6273,-1.7583,-1.917,-2.0686,-2.2275,-2.3815,-2.4786,-2.543,-2.5723,-2.6014,-2.7099,-2.911,-3.0548,-3.1619,-3.3552,-3.573,-3.521,-3.4166,2.9779,2.9882,3.0343,3.0846,3.1315,3.2307,3.3045,3.3533,3.4409,3.4839,3.4905,3.5264,3.5489,3.5489,3.5489,3.5489,3.5489,3.5489,3.5489,3.5489,3.5489,3.5489,3.5305,3.4747,3.428,3.4178,3.3922,3.3798,3.3485,3.296,3.2806,3.3325,3.2975,3.2876,3.3017,3.1874,3.1315,3.0895,3.0343,2.9856,2.9779,2.9779,2.9779,2.9779,2.9263,2.8426,2.7337,2.6378,2.521,2.417,2.3361,2.2793,2.2773,2.2773,2.2773,2.2793,2.3027,2.3125,2.3144,2.3144,2.2492,2.1478,1.9724,1.7668,1.3946,1.0201,0.6606,0.4051,0.3495,0.1816,-0.0305,-0.0918,-0.1854,-0.3013,-0.4594,-0.5638,-0.6469,-0.7692,-0.8765,-0.9168,-0.9772,-1.1283,-1.2594,-1.279,-1.279,-1.2041,-1.0806,-1.0036,-0.9846,-0.964,-0.9533,-0.9723,-1.1473,-1.3199,-1.3872,-1.4796,-1.5596,-1.6576,-1.7709,-1.9315,-2.108,-2.2681,-2.4079,-2.502,-2.5528,-2.5723,-2.582,-2.6982,-2.8602,-3.0503,-3.2418,-3.405,-3.5561,-3.6213,-3.5307,3.0139,3.0216,3.0895,3.1462,3.1992,3.3614,3.4559,3.505,3.5529,3.5782,3.5748,3.5619,3.5489,3.5489,3.5489,3.5489,3.5489,3.5489,3.5489,3.5489,3.5489,3.5489,3.531,3.4827,3.4439,3.4505,3.4358,3.436,3.4074,3.3732,3.3657,3.4283,3.3905,3.3602,3.3366,3.2451,3.1462,3.062,3.0139,2.9779,2.9779,2.9779,2.9679,2.9654,2.9576,2.9213,2.7997,2.7151,2.6155,2.4514,2.3429,2.2745,2.2428,2.2344,2.2695,2.2879,2.3137,2.3162,2.3327,2.3299,2.2668,2.1813,2.036,1.8017,1.427,1.1311,0.8328,0.4679,0.3949,0.2496,0.0,0.0,-0.1017,-0.2251,-0.3488,-0.4716,-0.6047,-0.737,-0.8275,-0.8707,-0.9343,-1.0216,-1.1306,-1.1775,-1.1863,-1.1755,-1.0974,-0.9993,-0.9805,-0.9706,-1.0288,-1.0485,-1.2037,-1.3776,-1.4651,-1.5338,-1.6122,-1.6742,-1.7879,-1.9094,-2.066,-2.2381,-2.3881,-2.4707,-2.5333,-2.5742,-2.5723,-2.6941,-2.8116,-2.9789,-3.1467,-3.3315,-3.4795,-3.566,-3.6413,3.1119,3.1093,3.1241,3.2225,3.3675,3.4706,3.6044,3.7112,3.6753,3.6508,3.6352,3.5816,3.5489,3.5489,3.5489,3.5489,3.5489,3.5489,3.5489,3.5489,3.5489,3.5489,3.525,3.4831,3.4415,3.4388,3.4364,3.4386,3.4593,3.4752,3.4879,3.5215,3.483,3.4551,3.3905,3.2664,3.1341,3.0469,2.9858,2.9909,2.9807,2.9757,2.958,2.9252,2.9326,2.904,2.7496,2.7136,2.6404,2.4691,2.3717,2.2859,2.2389,2.2389,2.2838,2.2978,2.3112,2.3333,2.3705,2.3434,2.3125,2.2183,2.0606,1.8249,1.5034,1.2372,0.925,0.5691,0.4201,0.2479,0.0,0.0,0.0,-0.192,-0.324,-0.4549,-0.5962,-0.7284,-0.8072,-0.8343,-0.8924,-0.9608,-1.0002,-1.0386,-1.156,-1.1551,-1.0779,-0.9805,-0.9312,-0.9312,-1.0583,-1.1463,-1.2716,-1.4172,-1.5343,-1.5965,-1.6126,-1.6576,-1.7485,-1.8469,-1.9725,-2.1459,-2.2868,-2.4196,-2.4707,-2.5216,-2.5859,-2.6774,-2.7717,-2.8921,-3.0395,-3.2254,-3.403,-3.5257,-3.6227,3.2352,3.2835,3.3362,3.4042,3.4771,3.623,3.714,3.7706,3.7472,3.7024,3.6569,3.5846,3.5489,3.5489,3.5489,3.5489,3.5489,3.5489,3.5489,3.5489,3.5489,3.5489,3.516,3.4562,3.3844,3.3908,3.3962,3.4491,3.5134,3.5614,3.6309,3.6437,3.5523,3.4646,3.3733,3.2412,3.0966,3.0265,2.9934,3.0028,2.9951,2.9641,2.9481,2.9326,2.8672,2.8575,2.7803,2.71,2.6387,2.5552,2.447,2.346,2.2708,2.2866,2.2991,2.294,2.298,2.3429,2.3438,2.3315,2.3125,2.2766,2.1167,1.8896,1.6082,1.3123,0.9518,0.6367,0.3678,0.1673,0.0,0.0,-0.0497,-0.1897,-0.3302,-0.4694,-0.6001,-0.7329,-0.7939,-0.8237,-0.8336,-0.8627,-0.8825,-0.9122,-1.0386,-1.1463,-1.0485,-0.9706,-0.9122,-0.9046,-1.0332,-1.1511,-1.2683,-1.4027,-1.53,-1.5652,-1.5909,-1.6579,-1.7076,-1.7952,-1.8935,-1.9656,-2.1151,-2.2667,-2.4251,-2.5036,-2.5722,-2.6447,-2.7377,-2.8582,-2.9878,-3.1263,-3.3007,-3.4751,-3.594,3.3516,3.4376,3.551,3.592,3.6076,3.7462,3.8246,3.8446,3.8246,3.7499,3.66,3.607,3.5683,3.5554,3.5489,3.5489,3.5489,3.5489,3.5489,3.5489,3.5489,3.5489,3.51,3.4532,3.3844,3.3638,3.382,3.4469,3.502,3.639,3.687,3.6533,3.5538,3.4425,3.2911,3.1361,2.998,2.9503,2.9718,2.9915,2.9836,2.9857,2.9667,2.9528,2.8957,2.8503,2.8041,2.7359,2.6622,2.5934,2.5033,2.4011,2.3589,2.3308,2.322,2.2919,2.2837,2.333,2.3197,2.2957,2.3125,2.2892,2.2198,1.9869,1.6957,1.356,0.9993,0.5073,0.2683,0.0685,-0.0702,-0.1598,-0.2189,-0.3707,-0.4196,-0.549,-0.6509,-0.7633,-0.7839,-0.8038,-0.8137,-0.8137,-0.8237,-0.8528,-0.9015,-0.9993,-0.9509,-0.8924,-0.8741,-0.9069,-1.022,-1.1203,-1.2278,-1.3636,-1.4992,-1.498,-1.5197,-1.6246,-1.6837,-1.7324,-1.815,-1.8994,-2.0215,-2.2064,-2.3555,-2.4734,-2.5756,-2.6566,-2.7422,-2.8329,-2.953,-3.0745,-3.2361,-3.4115,-3.5649,3.453,3.5383,3.699,3.7604,3.7559,3.8482,3.9229,3.951,3.9003,3.7979,3.6872,3.6631,3.6165,3.5653,3.5619,3.5489,3.5489,3.5489,3.5489,3.5489,3.5489,3.5489,3.525,3.4711,3.4053,3.3789,3.4104,3.4491,3.4757,3.6152,3.6766,3.659,3.5644,3.3706,3.1818,2.9451,2.8245,2.8293,2.9061,2.9337,2.9635,2.9984,2.9874,2.9804,2.9156,2.8578,2.8135,2.741,2.6672,2.607,2.5541,2.4655,2.3807,2.3734,2.3668,2.3721,2.3062,2.3175,2.3846,2.3348,2.2921,2.2785,2.1938,2.0268,1.7172,1.3786,0.9803,0.4512,0.1426,-0.1067,-0.2668,-0.3801,-0.4288,-0.4785,-0.5264,-0.5556,-0.6564,-0.7235,-0.7335,-0.7229,-0.7633,-0.8038,-0.8038,-0.8038,-0.8038,-0.8329,-0.8137,-0.8045,-0.8151,-0.867,-0.9713,-1.0635,-1.1608,-1.2495,-1.3636,-1.3966,-1.4509,-1.5647,-1.6599,-1.7068,-1.8065,-1.9271,-2.0531,-2.1828,-2.3256,-2.4815,-2.581,-2.6738,-2.7578,-2.8324,-2.9208,-3.043,-3.2028,-3.3538,-3.5226,3.6272,3.7022,3.8075,3.8821,3.9215,3.9577,3.9581,3.9227,3.8598,3.8123,3.7866,3.7112,3.6508,3.6165,3.5718,3.5554,3.5489,3.5489,3.5489,3.5489,3.5489,3.5489,3.531,3.4891,3.4415,3.4273,3.4585,3.5342,3.6424,3.7067,3.8031,3.8067,3.5474,3.3006,3.1155,2.917,2.8122,2.8167,2.8601,2.905,2.9564,2.9663,2.9748,3.0058,2.9089,2.8398,2.8079,2.7387,2.6721,2.6276,2.591,2.5441,2.4636,2.4492,2.3909,2.3338,2.2478,2.2269,2.1938,2.1193,2.1404,2.1571,2.1291,1.9538,1.6224,1.2439,0.8253,0.4054,0.0287,-0.2054,-0.3492,-0.3814,-0.4272,-0.4988,-0.5373,-0.5271,-0.5781,-0.6179,-0.6431,-0.6121,-0.6321,-0.7434,-0.7839,-0.7939,-0.7939,-0.7839,-0.7839,-0.7939,-0.8045,-0.8244,-0.887,-0.9797,-1.0708,-1.151,-1.219,-1.2921,-1.3738,-1.474,-1.5849,-1.68,-1.7879,-1.9502,-2.0718,-2.1946,-2.3456,-2.4815,-2.6021,-2.7129,-2.7695,-2.8423,-2.9112,-3.0517,-3.2405,-3.3673,-3.4879,3.6767,3.7472,3.79,3.8635,3.9294,3.958,3.9309,3.867,3.8538,3.8626,3.833,3.763,3.7231,3.6843,3.629,3.5879,3.5816,3.5554,3.5489,3.5489,3.5489,3.5489,3.531,3.5108,3.4753,3.4698,3.4974,3.5673,3.6614,3.8003,3.8259,3.7255,3.5318,3.2665,3.0492,2.8731,2.7774,2.7717,2.7945,2.8599,2.9241,2.9596,2.996,3.0115,2.956,2.8583,2.8065,2.7404,2.6782,2.6645,2.6371,2.6233,2.5652,2.4992,2.4181,2.3141,2.2092,2.151,2.0522,2.0364,2.0318,1.9703,1.971,1.771,1.4358,1.0745,0.6304,0.2296,-0.0777,-0.315,-0.4769,-0.4839,-0.5032,-0.5858,-0.547,-0.5368,-0.4882,-0.5264,-0.5827,-0.5522,-0.5922,-0.703,-0.7434,-0.7739,-0.7839,-0.7739,-0.7633,-0.7839,-0.7945,-0.8158,-0.8272,-0.9007,-0.9746,-1.0271,-1.125,-1.2278,-1.2997,-1.38,-1.5291,-1.7018,-1.8467,-2.0184,-2.1127,-2.2265,-2.3872,-2.5481,-2.655,-2.75,-2.7969,-2.8301,-2.8564,-3.0431,-3.2738,-3.3834,-3.4727,3.6055,3.6682,3.6767,3.727,3.801,3.8764,3.858,3.8058,3.9276,3.9008,3.7854,3.8393,3.8001,3.754,3.6808,3.6383,3.626,3.5763,3.5574,3.5601,3.567,3.5664,3.5695,3.5574,3.537,3.5136,3.5281,3.5892,3.6347,3.7826,3.7744,3.6355,3.5208,3.2528,3.0249,2.8757,2.7773,2.731,2.7352,2.8159,2.8922,2.9651,3.0329,3.0598,3.0329,2.9628,2.9002,2.8233,2.743,2.6985,2.6577,2.6508,2.6164,2.5511,2.4492,2.329,2.1822,2.0736,1.9616,1.9537,1.8734,1.7679,1.7026,1.4707,1.2118,0.9299,0.526,0.1354,-0.1963,-0.4646,-0.6755,-0.6628,-0.66,-0.6323,-0.564,-0.513,-0.4321,-0.4555,-0.5304,-0.5722,-0.6326,-0.683,-0.6226,-0.6426,-0.683,-0.7036,-0.7036,-0.764,-0.7859,-0.8119,-0.8234,-0.8261,-0.8794,-0.9135,-1.0205,-1.1707,-1.2824,-1.3715,-1.6359,-1.816,-1.9512,-2.0769,-2.1977,-2.3313,-2.4763,-2.5993,-2.6832,-2.7578,-2.8164,-2.8398,-2.8555,-3.0018,-3.2249,-3.3369,-3.4578,3.6567,3.6827,3.733,3.7916,3.8345,3.8597,3.8413,3.8004,3.7889,3.7643,3.7852,3.7448,3.742,3.6938,3.623,3.6014,3.5843,3.5697,3.5582,3.5712,3.5942,3.6213,3.6275,3.6185,3.6132,3.6071,3.6149,3.6337,3.6998,3.8129,3.7739,3.6328,3.5183,3.2802,3.0782,2.9597,2.8201,2.7204,2.7043,2.7907,2.8748,2.9442,3.0329,3.0896,3.0777,3.0208,2.969,2.9066,2.8233,2.7537,2.7364,2.7162,2.6465,2.4921,2.3305,2.1603,2.0762,2.0033,1.8412,1.8091,1.7543,1.5965,1.4937,1.368,1.1169,0.8424,0.476,0.1076,-0.1577,-0.3765,-0.564,-0.6208,-0.5987,-0.5479,-0.472,-0.3953,-0.3349,-0.3867,-0.451,-0.4922,-0.5722,-0.5622,-0.5122,-0.5018,-0.5422,-0.5927,-0.6431,-0.7036,-0.7653,-0.7905,-0.814,-0.8153,-0.8679,-0.9097,-1.0079,-1.15,-1.2618,-1.3881,-1.6691,-1.8834,-1.9731,-2.0997,-2.2698,-2.4177,-2.5404,-2.6226,-2.6914,-2.7578,-2.8262,-2.8437,-2.8702,-3.012,-3.1506,-3.2768,-3.4479,3.6332,3.6446,3.7047,3.7487,3.7681,3.7724,3.735,3.6683,3.7009,3.7381,3.7435,3.7318,3.7153,3.7119,3.6502,3.6099,3.6045,3.576,3.5594,3.5721,3.603,3.6087,3.6238,3.6286,3.6149,3.6287,3.6455,3.657,3.722,3.7566,3.7369,3.5545,3.4909,3.2512,3.0387,2.932,2.8781,2.79,2.7551,2.8336,2.8939,2.9504,3.0389,3.1073,3.0896,3.0718,3.0329,2.969,2.9129,2.8233,2.8065,2.7537,2.6552,2.4874,2.2988,2.1527,2.0799,1.9863,1.8531,1.7794,1.676,1.5416,1.4103,1.3252,1.1612,0.9235,0.5201,0.1378,-0.0296,-0.2077,-0.3733,-0.4979,-0.4651,-0.4138,-0.3312,-0.2564,-0.2776,-0.3188,-0.3601,-0.3917,-0.4121,-0.4117,-0.4017,-0.3917,-0.3917,-0.4318,-0.5222,-0.6431,-0.7036,-0.7659,-0.7872,-0.8085,-0.8707,-0.943,-1.0492,-1.1757,-1.3255,-1.5,-1.7399,-1.9225,-2.0038,-2.1672,-2.3832,-2.5017,-2.5887,-2.6517,-2.6992,-2.7695,-2.832,-2.8457,-2.8691,-2.9669,-3.0888,-3.2141,-3.4136,3.5622,3.5756,3.6249,3.6602,3.6451,3.6457,3.5786,3.4786,3.6468,3.711,3.6637,3.7246,3.7185,3.6592,3.6191,3.5976,3.5678,3.5291,3.5072,3.5412,3.5473,3.5473,3.5517,3.5562,3.5817,3.5844,3.6038,3.6464,3.6824,3.6775,3.584,3.4304,3.3111,3.1158,2.9147,2.9055,2.8791,2.8517,2.8691,2.9397,2.9907,3.0329,3.0629,3.1336,3.1336,3.1161,3.0629,3.0269,2.9997,2.9129,2.8427,2.7907,2.6408,2.5228,2.343,2.2092,2.1298,2.0138,1.9127,1.8353,1.7725,1.6505,1.506,1.4397,1.3009,1.0281,0.6312,0.372,0.2054,-0.0194,-0.1922,-0.2907,-0.2907,-0.2905,-0.2536,-0.1663,-0.1368,-0.2165,-0.3375,-0.3692,-0.371,-0.351,-0.2314,-0.2213,-0.3015,-0.3015,-0.3917,-0.5422,-0.7223,-0.7925,-0.8322,-0.8528,-0.9046,-1.0053,-1.1502,-1.2834,-1.4351,-1.6211,-1.8473,-1.9975,-2.096,-2.2902,-2.51,-2.5664,-2.6109,-2.6618,-2.7109,-2.7715,-2.8164,-2.8418,-2.873,-2.9297,-3.0338,-3.147,-3.2934,3.5854,3.6291,3.7137,3.7099,3.6394,3.6159,3.5491,3.4515,3.4404,3.4472,3.437,3.4945,3.5115,3.4823,3.5138,3.4968,3.4375,3.4413,3.3972,3.4247,3.4512,3.4721,3.4858,3.5148,3.5418,3.569,3.5877,3.6035,3.6103,3.5359,3.4056,3.2475,3.1341,2.9842,2.8509,2.8674,2.8712,2.8884,2.9638,3.0015,3.0245,3.0421,3.0629,3.1219,3.1424,3.1424,3.1131,3.1131,3.0718,3.0025,2.9129,2.7749,2.5697,2.4992,2.3745,2.2392,2.1811,2.074,1.9781,1.9092,1.8667,1.8321,1.7397,1.6535,1.4722,1.1424,0.8676,0.6526,0.4334,0.1997,0.0189,-0.0575,-0.1164,-0.1458,-0.1657,-0.0775,0.0,-0.1555,-0.3046,-0.3271,-0.3393,-0.2506,-0.1208,0.0,0.0,-0.2716,-0.3616,-0.5214,-0.7997,-0.9402,-0.9887,-1.0083,-0.9797,-1.069,-1.2308,-1.4028,-1.5738,-1.7331,-1.9412,-2.0715,-2.1879,-2.3522,-2.5059,-2.5625,-2.6133,-2.6621,-2.707,-2.7461,-2.7871,-2.8262,-2.8769,-2.9336,-2.9687,-3.0618,-3.1881,3.5898,3.6429,3.7077,3.7077,3.6463,3.5792,3.4853,3.3836,3.3175,3.2713,3.2645,3.3423,3.3761,3.3389,3.3863,3.3829,3.3355,3.3457,3.3532,3.3651,3.3626,3.3912,3.4235,3.4438,3.4418,3.4695,3.5035,3.5154,3.513,3.4023,3.2598,3.1366,3.0209,2.9051,2.8299,2.8355,2.8655,2.9122,2.9983,3.0357,3.0426,3.0661,3.0925,3.1452,3.1539,3.1539,3.1482,3.1482,3.1278,3.0539,2.9628,2.7973,2.6321,2.53,2.4492,2.3452,2.2542,2.1486,2.0566,1.9975,1.9674,1.9401,1.9129,1.8056,1.7919,1.4854,1.2089,0.9836,0.7058,0.4708,0.3164,0.2153,0.1611,0.124,0.0958,0.1245,0.0287,-0.1344,-0.2333,-0.2556,-0.2474,-0.1892,0.0,0.0,0.0,-0.2611,-0.3413,-0.6075,-0.875,-1.1327,-1.1619,-1.2017,-1.2007,-1.249,-1.4017,-1.5725,-1.7252,-1.8915,-2.0387,-2.1554,-2.2719,-2.3836,-2.4922,-2.541,-2.6016,-2.6699,-2.7109,-2.7402,-2.7812,-2.8262,-2.8789,-2.9336,-2.976,-3.0187,-3.1511,3.6071,3.6561,3.679,3.6739,3.6494,3.5259,3.4056,3.3087,3.2412,3.1799,3.1534,3.2659,3.3134,3.3119,3.3254,3.3186,3.3051,3.2747,3.2916,3.2949,3.2983,3.2949,3.3017,3.322,3.3439,3.3598,3.383,3.3938,3.3917,3.253,3.1341,3.0642,2.9451,2.8008,2.7891,2.7965,2.8248,2.8727,2.9432,3.0177,3.0664,3.1091,3.1447,3.1567,3.1625,3.1625,3.1625,3.1625,3.1655,3.0837,2.9842,2.8168,2.6824,2.5746,2.5229,2.4397,2.3503,2.2542,2.1727,2.107,2.066,2.0292,2.0041,1.9901,1.9736,1.8268,1.5454,1.3008,1.0315,0.7915,0.6338,0.5045,0.4547,0.3824,0.3468,0.2548,0.0755,-0.0851,-0.1244,-0.1648,-0.1566,-0.1085,0.0,0.0,0.0,0.0,-0.4785,-0.7524,-1.0149,-1.2693,-1.4266,-1.4848,-1.524,-1.5819,-1.6115,-1.7409,-1.8915,-1.9935,-2.1338,-2.24,-2.3332,-2.401,-2.459,-2.5137,-2.5762,-2.6328,-2.6934,-2.7324,-2.7754,-2.8231,-2.916,-2.9856,-3.053,-3.1005,-3.1552,3.6786,3.7613,3.7426,3.7098,3.6453,3.4724,3.3565,3.2879,3.1871,3.1292,3.1414,3.1682,3.1956,3.1698,3.2273,3.2341,3.1968,3.1867,3.1698,3.1596,3.2021,3.1845,3.1867,3.23,3.2724,3.2764,3.2656,3.2275,3.2183,3.0841,2.9688,2.9139,2.7871,2.7225,2.759,2.7624,2.7617,2.8248,2.9175,2.9971,3.0317,3.0914,3.1784,3.2104,3.2382,3.2382,3.2382,3.2382,3.2023,3.119,2.9907,2.8282,2.7059,2.6202,2.5787,2.5229,2.4325,2.3526,2.2746,2.2443,2.2049,2.1563,2.1472,2.1603,2.1337,2.0783,1.8507,1.6903,1.4242,1.1551,0.9809,0.8407,0.7472,0.6317,0.5589,0.3468,0.147,0.0739,0.028,-0.0379,-0.0866,-0.0681,0.0,0.0,0.0,-0.4487,-0.7131,-0.9947,-1.3495,-1.5337,-1.6807,-1.7565,-1.8257,-1.784,-1.7654,-1.9174,-2.0567,-2.1391,-2.2069,-2.279,-2.3338,-2.366,-2.4219,-2.4707,-2.5176,-2.5664,-2.6289,-2.7012,-2.7629,-2.8172,-2.9454,-3.0348,-3.127,-3.2007,-3.2643]},{"header":{"parameterUnit":"m.s-1","parameterCategory":1,"la1":31.0,"la2":29.5877,"lo1":-88.7671,"lo2":-86.6584,"dy":0.0162,"dx":0.0185,"nx":115,"ny":88,"refTime":"2023-09-03T06:00:00:Z","depth":0,"parameterNumber":3,"parameterNumberName":"V-component_of_WINDS"},"data":[0.0,0.0,0.0,0.0,0.0,0.0,0.0,0.0,0.0,0.0,0.0,0.0,0.0,0.0,0.0,0.0,0.0,0.0,0.0,0.0,0.0,0.0,0.0,0.0,0.0,0.0,0.0,0.0,0.0,0.0,0.0,0.0,0.0,0.0,0.0,0.0,0.0,0.0,0.0,0.0,0.0,0.0,0.0,0.0,0.0,0.0,0.0,0.0,0.0,0.0,0.0,0.0,0.0,0.0,0.0,0.0,0.0,0.0,0.0,0.0,0.0,0.0,0.0,0.0,0.0,0.0,0.0,0.0,0.0,0.0,0.0,0.0,0.0,0.0,0.0,0.0,0.0,0.0,0.0,0.0,0.0,0.0,0.0,0.0,0.0,0.0,0.0,0.0,0.0,0.0,0.0,0.0,0.0,0.0,0.0,0.0,0.0,0.0,0.0,0.0,0.0,0.0,0.0,0.0,0.0,0.0,0.0,0.0,0.0,0.0,0.0,0.0,0.0,0.0,0.0,0.0,0.0,0.0,0.0,0.0,0.0,0.0,0.0,0.0,0.0,0.0,0.0,0.0,0.0,0.0,0.0,0.0,0.0,0.0,0.0,0.0,0.0,0.0,0.0,0.0,0.0,0.0,0.0,0.0,0.0,0.0,0.0,0.0,0.0,0.0,0.0,0.0,0.0,0.0,0.0,0.0,0.0,0.0,0.0,0.0,0.0,0.0,0.0,0.0,0.0,0.0,0.0,0.0,0.0,0.0,0.0,0.0,0.0,0.0,0.0,0.0,0.0,0.0,0.0,0.0,0.0,0.0,0.0,0.0,0.0,0.0,0.0,0.0,0.0,0.0,0.0,0.0,0.0,0.0,0.0,0.0,0.0,0.0,0.0,0.0,0.0,0.0,0.0,0.0,0.0,0.0,0.0,0.0,0.0,0.0,0.0,0.0,0.0,0.0,0.0,0.0,0.0,0.0,0.0,0.0,0.0,0.0,0.0,0.0,0.0,0.0,0.0,0.0,0.0,0.0,0.0,0.0,0.0,0.0,0.0,0.0,0.0,0.0,0.0,0.0,0.0,0.0,0.0,0.0,0.0,0.0,0.0,0.0,0.0,0.0,0.0,0.0,0.0,0.0,0.0,0.0,0.0,0.0,0.0,0.0,0.0,0.0,0.0,0.0,0.0,0.0,0.0,0.0,0.0,0.0,0.0,0.0,0.0,0.0,0.0,0.0,0.0,0.0,0.0,0.0,0.0,0.0,0.0,0.0,0.0,0.0,0.0,0.0,0.0,0.0,0.0,0.0,0.0,0.0,0.0,0.0,0.0,0.0,0.0,0.0,0.0,0.0,0.0,0.0,0.0,0.0,0.0,0.0,0.0,0.0,0.0,0.0,0.0,0.0,0.0,0.0,0.0,0.0,0.0,0.0,0.0,0.0,0.0,0.0,0.0,0.0,0.0,0.0,0.0,0.0,0.0,0.0,0.0,0.0,0.0,0.0,0.0,0.0,0.0,0.0,0.0,0.0,0.0,0.0,0.0,0.0,0.0,0.0,0.0,0.0,0.0,0.0,0.0,0.0,0.0,0.0,0.0,0.0,0.0,0.0,0.0,0.0,0.0,0.0,0.0,0.0,0.0,0.0,0.0,0.0,0.0,0.0,0.0,0.0,0.0,0.0,0.0,0.0,0.0,0.0,0.0,0.0,0.0,0.0,0.0,0.0,0.0,0.0,0.0,0.0,0.0,0.0,0.0,0.0,0.0,0.0,0.0,0.0,0.0,0.0,0.0,0.0,0.0,0.0,0.0,0.0,0.0,0.0,0.0,0.0,0.0,0.0,0.0,0.0,0.0,0.0,0.0,0.0,0.0,0.0,0.0,0.0,0.0,0.0,0.0,0.0,0.0,0.0,0.0,0.0,0.0,0.0,0.0,0.0,0.0,0.0,0.0,0.0,0.0,0.0,0.0,0.0,0.0,0.0,0.0,0.0,0.0,0.0,0.0,0.0,0.0,0.0,0.0,0.0,0.0,0.0,0.0,0.0,0.0,0.0,0.0,0.0,0.0,0.0,0.0,0.0,0.0,0.0,0.0,0.0,0.0,0.0,0.0,0.0,0.0,0.0,0.0,0.0,0.0,0.0,0.0,0.0,0.0,0.0,0.0,0.0,0.0,0.0,0.0,0.0,0.0,0.0,0.0,0.0,0.0,0.0,0.0,0.0,0.0,0.0,0.0,0.0,0.0,0.0,0.0,0.0,0.0,0.0,0.0,0.0,0.0,0.0,0.0,0.0,0.0,0.0,0.0,0.0,0.0,0.0,0.0,0.0,0.0,0.0,0.0,0.0,0.0,0.0,0.0,0.0,0.0,0.0,0.0,0.0,0.0,0.0,0.0,0.0,0.0,0.0,0.0,0.0,0.0,0.0,0.0,0.0,0.0,0.0,0.0,0.0,0.0,0.0,0.0,0.0,0.0,0.0,0.0,0.0,0.0,0.0,0.0,0.0,0.0,0.0,0.0,0.0,0.0,0.0,0.0,0.0,0.0,0.0,0.0,0.0,0.0,0.0,0.0,0.0,0.0,0.0,0.0,0.0,0.0,0.0,0.0,0.0,0.0,0.0,0.0,0.0,0.0,0.0,0.0,0.0,0.0,0.0,0.0,0.0,0.0,0.0,0.0,0.0,0.0,0.0,0.0,0.0,0.0,0.0,0.0,0.0,0.0,0.0,0.0,0.0,0.0,0.0,0.0,0.0,0.0,0.0,0.0,0.0,0.0,0.0,0.0,0.0,0.0,0.0,0.0,0.0,0.0,0.0,0.0,0.0,0.0,0.0,0.0,0.0,0.0,0.0,0.0,0.0,0.0,0.0,0.0,0.0,0.0,0.0,0.0,0.0,0.0,0.0,0.0,0.0,0.0,0.0,0.0,0.0,0.0,0.0,0.0,0.0,0.0,0.0,0.0,0.0,0.0,0.0,0.0,0.0,0.0,0.0,0.0,0.0,0.0,0.0,0.0,0.0,0.0,0.0,0.0,0.0,0.0,0.0,0.0,0.0,0.0,0.0,0.0,0.0,0.0,0.0,0.0,0.0,0.0,0.0,0.0,0.0,0.0,0.0,0.0,0.0,0.0,0.0,0.0,0.0,0.0,0.0,0.0,0.0,0.0,0.0,0.0,0.0,0.0,0.0,0.0,0.0,0.0,0.0,0.0,0.0,0.0,0.0,0.0,0.0,0.0,0.0,0.0,0.0,0.0,0.0,0.0,0.0,0.0,0.0,0.0,0.0,0.0,0.0,0.0,0.0,0.0,0.0,0.0,0.0,0.0,0.0,0.0,0.0,0.0,0.0,0.0,0.0,0.0,0.0,0.0,0.0,0.0,0.0,0.0,0.0,0.0,0.0,0.0,0.0,0.0,0.0,0.0,0.0,0.0,0.0,0.0,0.0,0.0,0.0,0.0,0.0,0.0,0.0,0.0,0.0,0.0,0.0,0.0,0.0,0.0,0.0,0.0,0.0,0.0,0.0,0.0,0.0,0.0,0.0,0.0,0.0,0.0,0.0,0.0,0.0,0.0,0.0,0.0,0.0,0.0,0.0,0.0,0.0,0.0,0.0,0.0,0.0,0.0,0.0,0.0,0.0,0.0,0.0,0.0,0.0,0.0,0.0,0.0,0.0,0.0,0.0,0.0,0.0,0.0,0.0,0.0,0.0,0.0,0.0,0.0,0.0,0.0,0.0,0.0,0.0,0.0,0.0,0.0,0.0,0.0,0.0,0.0,0.0,0.0,0.0,0.0,0.0,0.0,0.0,0.0,0.0,0.0,0.0,0.0,0.0,0.0,0.0,0.0,0.0,0.0,0.0,0.0,0.0,0.0,0.0,0.0,0.0,0.0,0.0,0.0,0.0,0.0,0.0,0.0,0.0,0.0,0.0,0.0,0.0,0.0,0.0,0.0,0.0,0.0,0.0,0.0,0.0,0.0,0.0,0.0,0.0,0.0,0.0,0.0,0.0,0.0,0.0,0.0,0.0,0.0,0.0,0.0,0.0,0.0,0.0,0.0,0.0,0.0,0.0,0.0,0.0,0.0,0.0,0.0,0.0,0.0,0.0,0.0,0.0,0.0,0.0,0.0,0.0,0.0,0.0,0.0,0.0,0.0,0.0,0.0,0.0,0.0,0.0,0.0,0.0,0.0,0.0,0.0,0.0,0.0,0.0,0.0,0.0,0.0,0.0,0.0,0.0,0.0,0.0,0.0,0.0,0.0,0.0,0.0,0.0,0.0,0.0,0.0,0.0,3.5733,0.0,0.0,0.0,0.0,0.0,0.0,0.0,0.0,0.0,0.0,0.0,0.0,0.0,0.0,0.0,0.0,0.0,0.0,0.0,0.0,0.0,0.0,0.0,0.0,0.0,0.0,0.0,0.0,0.0,0.0,0.0,0.0,0.0,0.0,0.0,0.0,0.0,0.0,0.0,0.0,0.0,0.0,0.0,0.0,0.0,0.0,0.0,0.0,0.0,0.0,0.0,0.0,0.0,0.0,0.0,0.0,0.0,0.0,0.0,0.0,0.0,0.0,0.0,0.0,0.0,0.0,0.0,0.0,0.0,0.0,0.0,0.0,0.0,0.0,0.0,0.0,0.0,0.0,0.0,0.0,0.0,0.0,0.0,0.0,0.0,0.0,0.0,0.0,0.0,0.0,0.0,0.0,0.0,0.0,0.0,0.0,0.0,0.0,0.0,0.0,0.0,0.0,0.0,0.0,0.0,0.0,0.0,0.0,0.0,0.0,3.8892,3.8046,3.8007,3.7231,3.5697,0.0,0.0,0.0,0.0,0.0,0.0,0.0,0.0,0.0,0.0,0.0,0.0,0.0,0.0,0.0,0.0,0.0,0.0,0.0,0.0,0.0,0.0,0.0,0.0,0.0,0.0,0.0,0.0,0.0,0.0,0.0,0.0,0.0,0.0,0.0,0.0,0.0,0.0,0.0,0.0,0.0,0.0,0.0,0.0,0.0,0.0,0.0,0.0,0.0,0.0,0.0,0.0,0.0,0.0,0.0,0.0,0.0,0.0,0.0,0.0,0.0,0.0,0.0,0.0,0.0,0.0,0.0,0.0,0.0,0.0,0.0,0.0,0.0,0.0,0.0,0.0,0.0,0.0,0.0,0.0,0.0,0.0,0.0,0.0,0.0,0.0,0.0,0.0,0.0,0.0,0.0,0.0,0.0,0.0,0.0,0.0,0.0,0.0,0.0,0.0,0.0,0.0,0.0,0.0,0.0,0.0,0.0,0.0,0.0,0.0,0.0,0.0,3.8315,3.7527,3.597,0.0,0.0,0.0,0.0,0.0,0.0,0.0,0.0,0.0,0.0,0.0,0.0,0.0,0.0,0.0,0.0,0.0,0.0,0.0,0.0,0.0,0.0,0.0,0.0,0.0,0.0,0.0,0.0,0.0,0.0,0.0,0.0,0.0,0.0,0.0,0.0,0.0,0.0,0.0,0.0,0.0,0.0,0.0,0.0,0.0,0.0,0.0,0.0,0.0,0.0,0.0,0.0,0.0,0.0,0.0,0.0,0.0,0.0,0.0,0.0,0.0,0.0,0.0,0.0,0.0,0.0,0.0,0.0,0.0,0.0,0.0,0.0,0.0,0.0,0.0,0.0,0.0,0.0,0.0,0.0,0.0,0.0,0.0,0.0,0.0,0.0,0.0,0.0,0.0,0.0,0.0,0.0,0.0,0.0,0.0,0.0,0.0,0.0,0.0,0.0,0.0,0.0,0.0,0.0,0.0,0.0,0.0,0.0,0.0,0.0,3.7661,3.9123,3.9161,0.0,3.6953,0.0,0.0,0.0,0.0,0.0,0.0,0.0,0.0,0.0,0.0,0.0,0.0,0.0,0.0,0.0,0.0,0.0,0.0,0.0,0.0,0.0,0.0,0.0,0.0,0.0,0.0,0.0,0.0,0.0,0.0,0.0,0.0,0.0,0.0,0.0,0.0,0.0,0.0,0.0,0.0,0.0,0.0,0.0,0.0,0.0,0.0,0.0,0.0,0.0,0.0,0.0,0.0,0.0,0.0,0.0,0.0,0.0,0.0,0.0,0.0,0.0,0.0,0.0,0.0,0.0,0.0,0.0,0.0,0.0,0.0,0.0,0.0,0.0,0.0,0.0,0.0,0.0,0.0,0.0,0.0,0.0,0.0,0.0,0.0,0.0,0.0,0.0,0.0,0.0,0.0,0.0,0.0,0.0,0.0,0.0,0.0,0.0,0.0,0.0,0.0,0.0,0.0,0.0,0.0,0.0,0.0,0.0,0.0,0.0,0.0,3.6776,3.8507,3.8046,3.727,0.0,0.0,0.0,0.0,0.0,0.0,0.0,0.0,0.0,0.0,0.0,0.0,0.0,0.0,0.0,0.0,0.0,0.0,0.0,0.0,0.0,0.0,0.0,0.0,0.0,0.0,0.0,0.0,0.0,0.0,0.0,0.0,0.0,0.0,0.0,0.0,0.0,0.0,0.0,0.0,0.0,0.0,0.0,0.0,0.0,0.0,0.0,0.0,0.0,0.0,0.0,0.0,0.0,0.0,0.0,0.0,0.0,0.0,0.0,0.0,0.0,0.0,0.0,0.0,0.0,0.0,0.0,0.0,0.0,0.0,0.0,0.0,0.0,0.0,0.0,0.0,0.0,0.0,0.0,0.0,0.0,0.0,0.0,0.0,0.0,0.0,0.0,0.0,0.0,0.0,0.0,0.0,0.0,0.0,0.0,0.0,0.0,0.0,0.0,0.0,0.0,0.0,0.0,0.0,0.0,0.0,0.0,0.0,0.0,0.0,3.543,3.643,3.8161,3.7084,3.6357,3.6278,0.0,0.0,0.0,0.0,0.0,0.0,0.0,0.0,0.0,0.0,0.0,0.0,0.0,0.0,0.0,0.0,0.0,0.0,0.0,0.0,0.0,0.0,0.0,0.0,0.0,0.0,0.0,0.0,0.0,0.0,0.0,0.0,0.0,0.0,0.0,0.0,0.0,0.0,0.0,0.0,0.0,0.0,0.0,0.0,0.0,0.0,0.0,0.0,0.0,0.0,0.0,0.0,0.0,0.0,0.0,0.0,0.0,0.0,0.0,0.0,0.0,0.0,0.0,0.0,0.0,0.0,0.0,0.0,0.0,0.0,0.0,0.0,0.0,0.0,0.0,0.0,0.0,0.0,0.0,0.0,0.0,0.0,0.0,0.0,0.0,0.0,0.0,0.0,0.0,0.0,0.0,0.0,0.0,0.0,0.0,0.0,0.0,0.0,0.0,0.0,0.0,0.0,0.0,0.0,0.0,0.0,0.0,0.0,3.7546,3.6276,3.6699,3.9046,3.6853,3.6318,0.0,0.0,0.0,0.0,0.0,0.0,0.0,0.0,0.0,0.0,0.0,0.0,0.0,0.0,0.0,0.0,0.0,0.0,0.0,0.0,0.0,0.0,0.0,0.0,0.0,0.0,0.0,0.0,0.0,0.0,0.0,0.0,0.0,0.0,0.0,0.0,0.0,0.0,0.0,0.0,0.0,0.0,0.0,0.0,0.0,0.0,0.0,0.0,0.0,0.0,0.0,0.0,0.0,0.0,0.0,0.0,0.0,0.0,0.0,0.0,0.0,0.0,0.0,0.0,0.0,0.0,0.0,0.0,0.0,0.0,0.0,0.0,0.0,0.0,0.0,0.0,0.0,0.0,0.0,0.0,0.0,0.0,0.0,0.0,0.0,0.0,0.0,0.0,0.0,0.0,0.0,0.0,0.0,0.0,0.0,0.0,0.0,0.0,0.0,0.0,0.0,0.0,0.0,0.0,0.0,0.0,0.0,0.0,0.0,3.393,3.5468,3.6699,3.7584,3.7276,3.7151,0.0,0.0,0.0,0.0,0.0,0.0,0.0,0.0,0.0,0.0,0.0,0.0,0.0,0.0,0.0,0.0,0.0,0.0,0.0,0.0,0.0,0.0,0.0,0.0,0.0,0.0,0.0,0.0,0.0,0.0,0.0,0.0,0.0,0.0,0.0,0.0,0.0,0.0,0.0,0.0,0.0,0.0,0.0,0.0,0.0,0.0,0.0,0.0,0.0,0.0,0.0,0.0,0.0,0.0,0.0,0.0,0.0,0.0,0.0,0.0,0.0,0.0,0.0,0.0,0.0,0.0,0.0,0.0,0.0,0.0,0.0,0.0,0.0,0.0,0.0,0.0,0.0,0.0,0.0,0.0,0.0,0.0,0.0,0.0,0.0,0.0,0.0,0.0,0.0,0.0,0.0,0.0,0.0,0.0,0.0,0.0,0.0,0.0,0.0,0.0,0.0,0.0,0.0,0.0,0.0,0.0,0.0,0.0,0.0,3.2545,0.0,3.7276,3.6738,3.7276,3.7199,0.0,0.0,0.0,0.0,0.0,0.0,0.0,0.0,0.0,0.0,0.0,0.0,0.0,0.0,0.0,0.0,0.0,0.0,0.0,0.0,0.0,0.0,0.0,0.0,0.0,0.0,0.0,0.0,0.0,0.0,0.0,0.0,0.0,0.0,0.0,0.0,0.0,0.0,0.0,0.0,0.0,0.0,0.0,0.0,0.0,0.0,0.0,0.0,0.0,0.0,0.0,0.0,0.0,0.0,0.0,0.0,0.0,0.0,0.0,0.0,0.0,0.0,0.0,0.0,0.0,0.0,0.0,0.0,0.0,0.0,0.0,0.0,0.0,0.0,0.0,0.0,0.0,0.0,0.0,0.0,0.0,0.0,0.0,0.0,0.0,0.0,0.0,0.0,0.0,0.0,0.0,0.0,0.0,0.0,0.0,0.0,0.0,0.0,0.0,0.0,0.0,0.0,0.0,0.0,0.0,0.0,0.0,0.0,3.1398,3.4122,3.7392,3.8223,3.6815,3.6738,3.6353,0.0,0.0,0.0,0.0,0.0,0.0,0.0,0.0,0.0,0.0,0.0,0.0,0.0,0.0,0.0,0.0,0.0,0.0,0.0,0.0,0.0,0.0,0.0,0.0,0.0,0.0,0.0,0.0,0.0,0.0,0.0,0.0,0.0,0.0,0.0,0.0,0.0,0.0,0.0,0.0,0.0,0.0,0.0,0.0,0.0,0.0,0.0,0.0,0.0,0.0,0.0,0.0,0.0,0.0,0.0,0.0,0.0,0.0,0.0,0.0,0.0,0.0,0.0,0.0,0.0,0.0,0.0,0.0,0.0,0.0,0.0,0.0,0.0,0.0,0.0,0.0,0.0,0.0,0.0,0.0,0.0,0.0,0.0,0.0,0.0,0.0,0.0,0.0,0.0,0.0,0.0,0.0,0.0,0.0,0.0,0.0,0.0,0.0,0.0,0.0,0.0,0.0,0.0,0.0,0.0,0.0,0.0,0.0,0.0,3.3301,3.4764,3.645,3.8315,3.6776,3.6584,0.0,0.0,0.0,0.0,0.0,0.0,0.0,0.0,0.0,0.0,0.0,0.0,0.0,0.0,0.0,0.0,0.0,0.0,0.0,0.0,0.0,0.0,0.0,0.0,0.0,0.0,0.0,0.0,0.0,0.0,0.0,0.0,0.0,0.0,0.0,0.0,0.0,0.0,0.0,0.0,0.0,0.0,0.0,0.0,0.0,0.0,0.0,0.0,0.0,0.0,0.0,0.0,0.0,0.0,0.0,0.0,0.0,0.0,0.0,0.0,0.0,0.0,0.0,0.0,0.0,0.0,0.0,0.0,0.0,0.0,0.0,0.0,0.0,0.0,0.0,0.0,0.0,0.0,0.0,0.0,0.0,0.0,0.0,0.0,0.0,0.0,0.0,0.0,0.0,0.0,0.0,0.0,0.0,0.0,0.0,0.0,0.0,0.0,0.0,0.0,0.0,0.0,0.0,0.0,0.0,0.0,0.0,0.0,0.0,3.4034,3.4978,3.6365,3.8153,3.7233,3.7226,3.8238,0.0,0.0,0.0,0.0,0.0,0.0,0.0,0.0,0.0,0.0,0.0,0.0,0.0,0.0,0.0,0.0,0.0,0.0,0.0,0.0,0.0,0.0,0.0,0.0,0.0,0.0,0.0,0.0,0.0,0.0,0.0,0.0,0.0,0.0,0.0,0.0,0.0,0.0,0.0,0.0,0.0,0.0,0.0,0.0,0.0,0.0,0.0,0.0,0.0,0.0,0.0,0.0,0.0,0.0,0.0,0.0,0.0,0.0,0.0,0.0,0.0,0.0,0.0,0.0,0.0,0.0,0.0,0.0,0.0,0.0,0.0,0.0,0.0,0.0,0.0,0.0,0.0,0.0,0.0,0.0,0.0,0.0,0.0,0.0,0.0,0.0,0.0,0.0,0.0,0.0,0.0,0.0,0.0,0.0,0.0,0.0,0.0,0.0,0.0,0.0,0.0,0.0,0.0,0.0,0.0,0.0,0.0,0.0,3.5942,3.7612,3.7898,3.6728,3.806,3.8206,0.0,0.0,0.0,0.0,0.0,0.0,0.0,0.0,0.0,0.0,0.0,0.0,0.0,0.0,0.0,0.0,0.0,0.0,0.0,0.0,0.0,0.0,0.0,0.0,0.0,0.0,0.0,0.0,0.0,0.0,0.0,0.0,0.0,0.0,0.0,0.0,0.0,0.0,0.0,0.0,0.0,0.0,0.0,0.0,0.0,0.0,0.0,0.0,0.0,0.0,0.0,0.0,0.0,0.0,0.0,0.0,0.0,0.0,0.0,0.0,0.0,0.0,0.0,0.0,0.0,0.0,0.0,0.0,0.0,0.0,0.0,0.0,0.0,0.0,0.0,0.0,0.0,0.0,0.0,0.0,0.0,0.0,0.0,0.0,0.0,0.0,0.0,0.0,0.0,0.0,0.0,0.0,0.0,0.0,0.0,0.0,0.0,0.0,0.0,0.0,0.0,0.0,0.0,0.0,0.0,0.0,0.0,0.0,0.0,3.7923,3.9192,3.99,3.9966,3.9482,3.9292,0.0,0.0,0.0,0.0,0.0,0.0,0.0,0.0,0.0,0.0,0.0,0.0,0.0,0.0,0.0,0.0,0.0,0.0,0.0,0.0,0.0,0.0,0.0,0.0,0.0,0.0,0.0,0.0,0.0,0.0,0.0,0.0,0.0,0.0,0.0,0.0,0.0,0.0,0.0,0.0,0.0,0.0,0.0,0.0,0.0,0.0,0.0,0.0,0.0,0.0,0.0,0.0,0.0,0.0,0.0,0.0,0.0,0.0,0.0,0.0,0.0,0.0,0.0,0.0,0.0,0.0,0.0,0.0,0.0,0.0,0.0,0.0,0.0,0.0,0.0,0.0,0.0,0.0,0.0,0.0,0.0,0.0,0.0,0.0,0.0,0.0,0.0,0.0,0.0,0.0,0.0,0.0,0.0,0.0,0.0,0.0,0.0,0.0,0.0,0.0,0.0,0.0,0.0,0.0,0.0,0.0,0.0,0.0,3.7588,3.9166,4.0993,4.2002,4.2155,4.1189,4.0619,0.0,0.0,0.0,0.0,0.0,0.0,0.0,0.0,0.0,0.0,0.0,0.0,0.0,0.0,0.0,0.0,0.0,0.0,0.0,0.0,0.0,0.0,0.0,0.0,0.0,0.0,0.0,0.0,0.0,0.0,0.0,0.0,0.0,0.0,0.0,0.0,0.0,0.0,0.0,0.0,0.0,0.0,0.0,0.0,0.0,0.0,0.0,0.0,0.0,0.0,0.0,0.0,0.0,0.0,0.0,0.0,0.0,0.0,0.0,0.0,0.0,0.0,0.0,0.0,0.0,0.0,0.0,0.0,0.0,0.0,0.0,0.0,0.0,0.0,0.0,0.0,0.0,0.0,0.0,0.0,0.0,0.0,0.0,0.0,0.0,0.0,0.0,0.0,0.0,0.0,0.0,0.0,0.0,0.0,0.0,0.0,0.0,0.0,0.0,0.0,0.0,0.0,0.0,0.0,0.0,0.0,0.0,0.0,3.8432,4.012,4.2668,4.381,4.3389,4.2943,4.2087,0.0,0.0,0.0,0.0,0.0,0.0,0.0,0.0,0.0,0.0,0.0,0.0,0.0,0.0,0.0,0.0,0.0,0.0,0.0,0.0,0.0,0.0,0.0,0.0,0.0,0.0,0.0,0.0,0.0,0.0,0.0,0.0,0.0,0.0,0.0,0.0,0.0,0.0,0.0,0.0,0.0,0.0,0.0,0.0,0.0,0.0,0.0,0.0,0.0,0.0,0.0,0.0,0.0,0.0,0.0,0.0,0.0,0.0,0.0,0.0,0.0,0.0,0.0,0.0,0.0,0.0,0.0,0.0,0.0,0.0,0.0,0.0,0.0,0.0,0.0,0.0,0.0,0.0,0.0,0.0,0.0,0.0,0.0,0.0,0.0,0.0,0.0,0.0,0.0,0.0,0.0,0.0,0.0,0.0,0.0,0.0,0.0,0.0,0.0,0.0,0.0,0.0,0.0,0.0,0.0,0.0,0.0,0.0,3.9533,4.1735,4.3225,4.3953,4.3855,4.3677,4.291,0.0,0.0,0.0,0.0,0.0,0.0,0.0,0.0,0.0,0.0,0.0,0.0,0.0,0.0,0.0,0.0,0.0,0.0,0.0,0.0,0.0,0.0,0.0,0.0,0.0,0.0,0.0,0.0,0.0,0.0,0.0,0.0,0.0,0.0,0.0,0.0,0.0,0.0,0.0,0.0,0.0,0.0,0.0,0.0,0.0,0.0,0.0,0.0,4.5,0.0,0.0,0.0,0.0,0.0,0.0,0.0,0.0,0.0,0.0,0.0,0.0,0.0,0.0,0.0,0.0,0.0,0.0,0.0,0.0,0.0,0.0,0.0,0.0,0.0,0.0,0.0,0.0,0.0,0.0,0.0,0.0,0.0,0.0,0.0,0.0,0.0,0.0,0.0,0.0,0.0,0.0,0.0,0.0,0.0,0.0,0.0,0.0,0.0,0.0,0.0,0.0,0.0,0.0,0.0,0.0,0.0,0.0,0.0,4.023,4.2213,4.3254,4.3849,4.3998,4.3922,4.3275,0.0,0.0,0.0,0.0,0.0,0.0,0.0,0.0,0.0,0.0,0.0,0.0,0.0,0.0,0.0,0.0,0.0,0.0,0.0,0.0,0.0,0.0,0.0,0.0,0.0,0.0,0.0,0.0,0.0,0.0,0.0,0.0,0.0,0.0,0.0,0.0,0.0,0.0,0.0,0.0,0.0,0.0,0.0,0.0,0.0,0.0,0.0,0.0,0.0,0.0,0.0,0.0,0.0,0.0,0.0,0.0,0.0,0.0,0.0,0.0,0.0,0.0,0.0,0.0,0.0,0.0,0.0,0.0,0.0,0.0,0.0,0.0,0.0,0.0,0.0,0.0,0.0,0.0,0.0,0.0,0.0,0.0,0.0,0.0,0.0,0.0,0.0,0.0,0.0,0.0,0.0,0.0,0.0,0.0,0.0,0.0,0.0,0.0,0.0,0.0,0.0,0.0,0.0,0.0,0.0,0.0,0.0,3.9239,4.0744,4.2396,4.313,4.3627,4.3912,4.3943,4.3312,4.2006,0.0,0.0,0.0,0.0,0.0,0.0,0.0,0.0,0.0,0.0,0.0,0.0,0.0,0.0,0.0,0.0,0.0,0.0,0.0,0.0,0.0,0.0,0.0,0.0,0.0,0.0,0.0,0.0,0.0,0.0,0.0,0.0,0.0,0.0,0.0,0.0,0.0,0.0,4.3807,4.5417,0.0,0.0,0.0,0.0,0.0,0.0,0.0,0.0,4.6289,0.0,0.0,0.0,0.0,0.0,0.0,0.0,0.0,0.0,0.0,0.0,0.0,0.0,0.0,0.0,0.0,0.0,0.0,0.0,0.0,0.0,0.0,0.0,0.0,0.0,0.0,0.0,0.0,0.0,0.0,0.0,0.0,0.0,0.0,0.0,0.0,0.0,0.0,0.0,0.0,0.0,0.0,0.0,0.0,0.0,0.0,0.0,0.0,0.0,0.0,0.0,0.0,0.0,0.0,0.0,0.0,4.0451,4.012,4.1001,4.3204,4.3424,4.3532,4.3563,4.3597,4.2824,4.1409,0.0,0.0,0.0,0.0,0.0,0.0,0.0,0.0,0.0,0.0,0.0,0.0,0.0,0.0,0.0,0.0,0.0,0.0,0.0,0.0,0.0,0.0,0.0,0.0,0.0,0.0,0.0,0.0,0.0,0.0,0.0,0.0,0.0,0.0,0.0,0.0,0.0,0.0,0.0,4.6488,4.6956,0.0,0.0,0.0,0.0,0.0,0.0,0.0,0.0,4.6289,0.0,0.0,0.0,0.0,0.0,0.0,0.0,0.0,0.0,0.0,0.0,0.0,0.0,0.0,0.0,0.0,0.0,0.0,0.0,0.0,0.0,0.0,0.0,0.0,0.0,0.0,0.0,0.0,0.0,0.0,0.0,0.0,0.0,0.0,0.0,0.0,0.0,0.0,0.0,0.0,0.0,0.0,0.0,0.0,0.0,0.0,0.0,0.0,0.0,0.0,0.0,0.0,0.0,0.0,0.0,3.9753,4.0708,4.1919,4.3424,4.3497,4.3497,4.3461,4.269,4.1981,0.0,0.0,0.0,0.0,0.0,0.0,0.0,0.0,0.0,0.0,0.0,0.0,0.0,0.0,0.0,0.0,0.0,0.0,0.0,0.0,0.0,0.0,0.0,0.0,0.0,0.0,0.0,0.0,0.0,0.0,0.0,0.0,0.0,0.0,0.0,0.0,0.0,0.0,0.0,0.0,4.6705,4.6987,4.6074,0.0,0.0,0.0,0.0,0.0,0.0,4.6289,4.6289,0.0,0.0,0.0,0.0,0.0,0.0,0.0,0.0,0.0,0.0,0.0,0.0,0.0,0.0,0.0,0.0,0.0,0.0,0.0,0.0,0.0,0.0,0.0,0.0,0.0,0.0,0.0,0.0,0.0,0.0,0.0,0.0,0.0,0.0,0.0,0.0,0.0,0.0,0.0,0.0,0.0,0.0,0.0,0.0,0.0,0.0,0.0,0.0,0.0,0.0,0.0,0.0,0.0,0.0,0.0,3.8982,4.1148,4.269,4.3461,4.3497,4.3424,4.324,4.1992,4.1309,0.0,0.0,0.0,0.0,0.0,0.0,0.0,0.0,0.0,0.0,0.0,0.0,0.0,0.0,0.0,0.0,0.0,0.0,0.0,0.0,0.0,0.0,0.0,0.0,0.0,0.0,0.0,0.0,0.0,0.0,0.0,0.0,0.0,0.0,0.0,0.0,0.0,0.0,0.0,0.0,0.0,4.724,4.5996,4.6701,0.0,0.0,0.0,0.0,4.6519,4.6992,0.0,0.0,0.0,0.0,0.0,0.0,0.0,0.0,0.0,0.0,0.0,0.0,0.0,0.0,0.0,0.0,0.0,0.0,0.0,0.0,0.0,0.0,0.0,0.0,0.0,0.0,0.0,0.0,0.0,0.0,0.0,0.0,0.0,0.0,0.0,0.0,0.0,0.0,0.0,0.0,0.0,0.0,0.0,0.0,0.0,0.0,0.0,0.0,0.0,0.0,0.0,0.0,0.0,0.0,0.0,0.0,3.9753,4.1405,4.269,4.3424,4.3497,4.313,4.247,4.2249,4.1511,0.0,0.0,0.0,0.0,0.0,0.0,0.0,0.0,0.0,0.0,0.0,0.0,0.0,0.0,0.0,0.0,0.0,0.0,0.0,0.0,0.0,0.0,0.0,0.0,0.0,0.0,0.0,0.0,0.0,0.0,0.0,0.0,0.0,0.0,0.0,0.0,0.0,0.0,0.0,0.0,0.0,4.8463,4.6125,4.7184,4.7895,0.0,0.0,4.8008,4.7372,4.925,0.0,0.0,0.0,0.0,0.0,0.0,0.0,0.0,0.0,0.0,0.0,0.0,0.0,0.0,0.0,0.0,0.0,0.0,0.0,0.0,0.0,0.0,0.0,0.0,0.0,0.0,0.0,0.0,0.0,0.0,0.0,0.0,0.0,0.0,0.0,0.0,0.0,0.0,0.0,0.0,0.0,0.0,0.0,0.0,0.0,0.0,0.0,0.0,0.0,0.0,0.0,0.0,0.0,0.0,0.0,3.8762,3.99,4.1919,4.3167,4.3461,4.3057,4.2653,4.2286,4.0524,3.968,0.0,0.0,0.0,0.0,0.0,0.0,0.0,0.0,0.0,0.0,0.0,0.0,0.0,0.0,0.0,0.0,0.0,0.0,0.0,0.0,0.0,0.0,0.0,0.0,0.0,0.0,0.0,0.0,0.0,0.0,0.0,0.0,0.0,0.0,0.0,0.0,0.0,0.0,0.0,0.0,0.0,0.0,4.7301,4.8593,0.0,0.0,0.0,4.9919,4.963,0.0,0.0,0.0,0.0,0.0,0.0,0.0,0.0,0.0,0.0,0.0,0.0,0.0,0.0,0.0,0.0,0.0,0.0,0.0,0.0,0.0,0.0,0.0,0.0,0.0,0.0,0.0,0.0,0.0,0.0,0.0,0.0,0.0,0.0,0.0,0.0,0.0,0.0,0.0,0.0,0.0,0.0,0.0,0.0,0.0,0.0,0.0,0.0,0.0,0.0,0.0,0.0,0.0,0.0,0.0,0.0,0.0,4.023,4.2359,4.3497,4.3461,4.2727,4.2213,4.1956,3.9276,0.0,0.0,0.0,0.0,0.0,0.0,0.0,0.0,0.0,0.0,0.0,0.0,0.0,0.0,0.0,0.0,0.0,0.0,0.0,0.0,0.0,0.0,0.0,0.0,0.0,0.0,0.0,4.06,0.0,0.0,0.0,0.0,0.0,0.0,0.0,0.0,0.0,0.0,0.0,0.0,0.0,0.0,4.974,4.8856,5.0477,5.1494,0.0,0.0,5.2104,5.1898,5.2021,5.1406,0.0,0.0,0.0,0.0,0.0,0.0,0.0,0.0,0.0,0.0,0.0,0.0,0.0,0.0,0.0,0.0,0.0,0.0,0.0,0.0,0.0,0.0,0.0,0.0,0.0,0.0,0.0,0.0,0.0,0.0,0.0,0.0,0.0,0.0,0.0,0.0,0.0,0.0,0.0,0.0,0.0,0.0,0.0,0.0,0.0,0.0,0.0,0.0,0.0,0.0,0.0,0.0,0.0,0.0,0.0,4.1038,4.2653,4.3497,4.3461,4.2727,4.1956,4.1185,3.9496,3.8652,0.0,0.0,0.0,0.0,0.0,0.0,0.0,0.0,0.0,0.0,0.0,0.0,0.0,0.0,0.0,0.0,0.0,0.0,0.0,0.0,0.0,0.0,0.0,0.0,0.0,0.0,0.0,0.0,0.0,0.0,0.0,0.0,0.0,0.0,0.0,0.0,0.0,0.0,0.0,0.0,0.0,5.1433,5.0625,5.2773,5.4119,0.0,0.0,5.4572,5.3743,5.5734,5.543,4.9844,0.0,0.0,0.0,0.0,0.0,0.0,0.0,0.0,0.0,0.0,0.0,0.0,0.0,0.0,0.0,0.0,0.0,0.0,0.0,0.0,0.0,0.0,0.0,0.0,0.0,0.0,0.0,0.0,0.0,0.0,0.0,0.0,0.0,0.0,0.0,0.0,0.0,0.0,0.0,0.0,0.0,0.0,0.0,0.0,0.0,0.0,0.0,0.0,0.0,0.0,0.0,0.0,0.0,3.979,4.1111,4.2213,4.2983,4.3424,4.2249,4.1405,4.1111,3.8579,3.7441,0.0,0.0,0.0,0.0,0.0,0.0,0.0,0.0,0.0,0.0,0.0,0.0,0.0,0.0,0.0,0.0,0.0,0.0,0.0,0.0,0.0,0.0,0.0,0.0,0.0,0.0,0.0,0.0,4.2316,4.2239,4.2585,0.0,0.0,0.0,0.0,0.0,0.0,0.0,0.0,0.0,0.0,5.2184,5.3061,5.4923,0.0,0.0,5.6839,5.7182,5.6319,5.6239,5.5156,5.1758,4.9957,0.0,0.0,0.0,0.0,0.0,0.0,0.0,0.0,0.0,0.0,0.0,0.0,0.0,0.0,0.0,0.0,0.0,0.0,0.0,0.0,0.0,0.0,0.0,0.0,0.0,0.0,0.0,0.0,0.0,0.0,0.0,0.0,0.0,0.0,0.0,0.0,0.0,0.0,0.0,0.0,0.0,0.0,0.0,0.0,0.0,0.0,0.0,0.0,0.0,0.0,0.0,0.0,3.9974,4.1111,4.2139,4.291,4.3461,4.1919,4.1079,4.1038,3.8212,3.7,0.0,0.0,0.0,0.0,0.0,0.0,0.0,0.0,0.0,0.0,0.0,0.0,0.0,0.0,0.0,0.0,0.0,0.0,0.0,0.0,0.0,0.0,0.0,0.0,0.0,0.0,0.0,0.0,4.3239,4.3008,4.2739,0.0,0.0,0.0,0.0,0.0,0.0,0.0,0.0,0.0,0.0,5.3703,5.5226,5.6742,5.7741,5.7896,5.8337,5.8534,5.8215,5.7182,5.5703,5.3476,0.0,0.0,0.0,0.0,0.0,0.0,0.0,0.0,0.0,0.0,0.0,0.0,0.0,0.0,0.0,0.0,0.0,0.0,0.0,0.0,0.0,0.0,0.0,0.0,0.0,0.0,0.0,0.0,0.0,0.0,2.7961,0.0,0.0,0.0,0.0,0.0,0.0,0.0,0.0,0.0,0.0,0.0,0.0,0.0,0.0,0.0,0.0,0.0,0.0,0.0,0.0,0.0,0.0,4.1038,4.1111,4.2616,4.3461,4.3461,4.1919,4.1148,4.1075,3.8762,3.7845,3.8615,0.0,0.0,0.0,0.0,0.0,0.0,0.0,0.0,0.0,0.0,0.0,0.0,0.0,0.0,0.0,0.0,0.0,0.0,0.0,0.0,0.0,0.0,0.0,0.0,0.0,0.0,4.4162,4.3585,4.2816,0.0,0.0,0.0,0.0,0.0,0.0,0.0,0.0,0.0,0.0,5.4181,5.6211,5.7008,5.812,5.8877,5.8928,5.8387,5.8281,5.9062,5.9101,5.793,0.0,0.0,0.0,0.0,0.0,0.0,0.0,0.0,0.0,0.0,0.0,0.0,0.0,0.0,0.0,0.0,0.0,0.0,0.0,0.0,0.0,0.0,0.0,0.0,0.0,0.0,0.0,2.9687,2.9652,0.0,0.0,0.0,0.0,0.0,0.0,0.0,0.0,0.0,0.0,0.0,3.7441,3.7184,0.0,0.0,0.0,0.0,0.0,0.0,0.0,0.0,0.0,0.0,0.0,0.0,4.0561,4.1148,4.2139,4.2947,4.3461,4.2433,4.1919,4.1882,3.957,3.8175,3.7918,0.0,0.0,0.0,0.0,0.0,0.0,0.0,0.0,0.0,0.0,0.0,0.0,0.0,0.0,0.0,0.0,0.0,0.0,0.0,0.0,0.0,0.0,0.0,0.0,0.0,4.4008,0.0,0.0,0.0,0.0,0.0,0.0,0.0,0.0,0.0,0.0,0.0,4.9894,5.2433,5.4589,5.649,5.7975,5.9083,5.9998,0.0,0.0,0.0,0.0,0.0,0.0,0.0,0.0,0.0,0.0,0.0,0.0,0.0,0.0,5.8587,5.4092,5.282,5.2647,5.3454,0.0,0.0,0.0,0.0,0.0,0.0,0.0,0.0,0.0,0.0,0.0,0.0,0.0,0.0,3.0688,0.0,3.0175,0.0,0.0,0.0,0.0,0.0,0.0,0.0,0.0,3.6863,3.8016,3.8689,3.8689,3.9045,0.0,3.9557,3.8287,0.0,0.0,0.0,0.0,0.0,0.0,0.0,0.0,4.0598,4.1148,4.2176,4.2947,4.3424,4.2727,4.2286,4.2286,4.0524,3.9019,3.7955,3.8175,3.8579,0.0,0.0,0.0,0.0,0.0,0.0,0.0,0.0,0.0,0.0,0.0,0.0,0.0,0.0,0.0,0.0,0.0,0.0,0.0,0.0,0.0,0.0,0.0,4.4624,0.0,0.0,0.0,0.0,0.0,0.0,0.0,0.0,0.0,4.9028,5.0064,5.1738,5.4284,5.5932,5.7492,5.9026,0.0,0.0,0.0,0.0,0.0,0.0,0.0,6.0896,6.0514,5.9721,5.9165,5.9314,6.065,6.1396,6.055,0.0,0.0,5.7973,5.6703,5.6665,5.778,5.8896,5.9896,6.0781,6.2281,6.3435,0.0,0.0,0.0,0.0,0.0,0.0,0.0,0.0,3.0987,3.1157,0.0,3.0886,0.0,0.0,0.0,0.0,0.0,3.4409,0.0,0.0,3.7386,3.831,3.8805,3.8909,3.8872,3.8915,4.0419,4.0404,3.9118,3.8136,0.0,0.0,0.0,0.0,0.0,0.0,4.1079,4.1222,4.269,4.3497,4.3461,4.2763,4.2323,4.2286,4.1552,4.0414,3.8909,3.9533,3.9937,3.9974,4.0267,0.0,0.0,0.0,0.0,0.0,0.0,0.0,0.0,0.0,0.0,0.0,0.0,0.0,0.0,0.0,0.0,0.0,0.0,0.0,0.0,4.5086,0.0,0.0,0.0,0.0,0.0,0.0,0.0,0.0,0.0,0.0,5.1105,5.2498,5.4444,5.6885,0.0,0.0,0.0,0.0,6.0429,6.0508,6.1104,6.1868,6.2648,6.3971,6.4673,6.392,0.0,0.0,6.1634,6.2425,6.3243,6.2474,6.3705,6.4705,6.4641,6.3089,6.2589,6.4166,6.4551,6.5013,6.591,6.7191,6.8345,3.5723,0.0,0.0,0.0,0.0,3.4979,3.5588,3.6941,3.4912,3.4269,3.4573,3.3119,0.0,0.0,0.0,0.0,0.0,0.0,3.7218,3.8075,3.9698,4.0707,4.1295,4.1846,4.1933,4.1579,4.1823,4.1535,4.0709,3.971,3.9118,3.9,0.0,0.0,0.0,0.0,4.1405,4.1992,4.2983,4.3497,4.3497,4.3277,4.2873,4.2323,4.2103,4.1479,4.0451,4.0671,4.1038,4.1589,4.1927,0.0,0.0,0.0,0.0,0.0,0.0,0.0,0.0,0.0,0.0,0.0,0.0,0.0,0.0,0.0,0.0,0.0,0.0,0.0,4.4261,4.5086,4.5509,0.0,0.0,0.0,0.0,0.0,0.0,0.0,0.0,0.0,5.6175,5.6356,5.6819,0.0,0.0,5.9904,6.0177,6.0234,6.071,6.192,6.2703,0.0,0.0,6.4774,6.5095,6.4782,6.4948,6.5116,6.5341,6.5702,6.6128,6.6474,6.6974,6.7357,6.7446,6.6057,6.5487,6.6936,6.7821,6.8559,6.9559,7.0642,7.1369,3.8227,3.7347,3.6772,3.6806,3.7178,3.6705,3.7313,3.8464,3.6806,3.64,3.684,3.5385,3.4641,3.4506,3.4201,0.0,0.0,0.0,3.8063,3.9297,4.0515,4.1685,4.2766,4.3066,4.2995,4.2732,4.2523,4.2159,4.1554,4.0817,4.0237,3.9693,0.0,0.0,4.0377,4.1185,4.1809,4.2323,4.3094,4.3497,4.3497,4.3497,4.324,4.28,4.2763,4.2396,4.1625,4.1589,4.1809,4.2286,4.2474,4.2691,0.0,0.0,0.0,0.0,0.0,0.0,0.0,0.0,0.0,0.0,0.0,4.181,4.1622,0.0,0.0,0.0,4.345,4.4231,4.4778,4.5586,0.0,0.0,0.0,0.0,0.0,0.0,0.0,5.3016,5.5171,5.7229,5.91,5.956,5.9723,5.9793,6.0099,6.0376,6.0662,0.0,6.1179,6.25,6.3845,6.497,6.5722,6.6602,6.6889,6.5931,6.5689,6.5879,6.6624,6.6984,6.746,6.8282,6.856,6.864,6.8935,6.8007,6.7483,6.8585,6.9464,7.0358,7.1331,7.2206,7.2776,4.0087,3.9952,3.8633,3.8091,3.8091,3.8091,3.8091,3.8024,3.728,3.7719,3.887,3.7483,3.7246,3.7855,3.7178,0.0,3.596,3.7415,3.8722,3.9868,4.0577,4.1923,4.3574,4.3176,4.2951,4.2951,4.2951,4.2641,4.2056,4.1818,4.1346,4.0754,4.031,4.0459,4.1052,4.1818,4.2255,4.2328,4.313,4.3497,4.3497,4.3497,4.3497,4.3461,4.3497,4.313,4.2433,4.2396,4.2396,4.2396,4.2396,4.2727,4.3424,0.0,0.0,0.0,0.0,0.0,0.0,0.0,0.0,0.0,0.0,0.0,0.0,0.0,0.0,0.0,4.4037,0.0,4.5624,4.6432,0.0,0.0,0.0,4.971,4.9989,5.2214,5.4103,5.5112,0.0,0.0,6.0319,6.187,6.2535,6.1637,6.0969,6.0815,6.1398,6.1452,6.172,6.2522,6.4472,6.6283,6.7209,6.8559,6.8773,6.6863,6.6473,6.6281,6.6542,6.6892,6.7563,6.8744,6.8879,6.8897,6.9202,6.9046,6.9155,6.9077,6.9916,7.0825,7.1534,7.2251,7.2703,4.0087,4.0104,3.9715,3.9546,3.958,3.958,3.958,3.9512,3.8768,3.8667,3.8937,3.8058,3.7753,3.7889,3.7719,3.7855,3.8227,3.9174,4.0295,4.1568,4.2722,4.3793,4.4621,4.4965,4.5113,4.515,4.515,4.4748,4.4053,4.398,4.3322,4.225,4.2082,4.1609,4.0792,4.132,4.1904,4.2594,4.3212,4.3497,4.3497,4.3497,4.3497,4.3497,4.3497,4.3424,4.3204,4.3204,4.3204,4.3204,4.3204,4.3314,4.3461,4.3314,0.0,0.0,0.0,0.0,0.0,0.0,0.0,0.0,0.0,4.3584,4.3584,0.0,4.4399,0.0,4.5055,4.5663,4.6509,4.6778,0.0,0.0,5.0782,5.2109,5.3514,5.545,5.7024,5.7902,5.9241,6.0388,6.1248,6.1757,6.1914,6.1677,6.1985,6.2071,6.1582,6.1273,6.1632,6.3081,6.4229,6.5727,6.7705,6.8148,6.7673,6.6144,6.5638,6.5824,6.7082,6.7375,6.798,6.9408,6.9435,6.9086,6.8683,6.8219,6.7887,6.8148,6.9424,7.0696,7.1125,7.1322,7.1434,4.0087,4.0087,4.0087,4.0087,4.0087,4.0087,4.0087,4.0054,3.9648,3.9478,3.9445,3.9039,3.887,3.8903,3.9242,3.9614,4.002,4.0764,4.163,4.2653,4.3617,4.4421,4.5039,4.5358,4.5548,4.5548,4.5548,4.5022,4.4109,4.4313,4.3596,4.2035,4.2035,4.1471,4.0502,4.1462,4.2405,4.3159,4.3397,4.3497,4.3497,4.3497,4.3497,4.3497,4.3497,4.3314,4.2983,4.3314,4.3314,4.2983,4.3314,4.3497,4.3461,4.313,4.291,0.0,0.0,0.0,0.0,0.0,0.0,0.0,0.0,0.0,0.0,0.0,4.5118,4.5857,4.609,4.6701,4.7894,4.8424,4.9428,5.1305,5.2628,5.4136,5.5942,5.7395,5.8597,5.9517,6.0076,6.0586,6.1055,6.1133,6.1289,6.164,6.1949,6.1946,6.15,6.1161,6.1465,6.2741,6.39,6.5359,6.7717,6.747,6.6759,6.5841,6.5335,6.5454,6.6505,6.7216,6.7787,6.8224,6.8357,6.8122,6.7258,6.6741,6.6482,6.6648,6.7183,6.821,6.9753,7.0036,7.0036,4.029,4.0223,4.0223,4.0155,4.0087,4.0087,4.0087,4.0087,4.0087,4.0087,4.0087,4.0087,4.0121,4.0257,4.0899,4.1271,4.1407,4.2189,4.286,4.338,4.4166,4.4828,4.5287,4.545,4.549,4.5526,4.5445,4.4721,4.358,4.3885,4.3092,4.1223,4.1138,4.0866,4.0324,4.1753,4.2901,4.3707,4.3688,4.3644,4.3644,4.3644,4.3608,4.3497,4.3387,4.302,4.2359,4.2947,4.3057,4.2506,4.313,4.3497,4.3461,4.2837,4.2763,0.0,4.2837,0.0,0.0,0.0,0.0,0.0,0.0,0.0,0.0,4.5232,4.5913,4.6991,4.7048,4.772,4.9278,5.0294,5.1294,5.2318,5.403,5.5779,5.7504,5.8441,5.9273,6.0156,6.0234,6.0273,6.0273,6.0234,6.0547,6.1094,6.1017,6.0962,6.1083,6.1035,6.1254,6.2021,6.3628,6.5448,6.6727,6.6789,6.6325,6.5686,6.5361,6.527,6.5652,6.6554,6.7085,6.6443,6.6574,6.6479,6.5367,6.4919,6.472,6.4741,6.4166,6.4525,6.7213,6.7982,6.8109,4.1542,4.1001,4.1001,4.0629,4.0087,4.0087,4.0087,4.0087,4.0087,4.0087,4.0087,4.0087,4.0426,4.1001,4.1136,4.1542,4.217,4.3426,4.4042,4.4227,4.598,4.6866,4.6994,4.7441,4.7714,4.7675,4.7202,4.6182,4.4755,4.4289,4.3044,4.0974,4.0974,4.1008,4.0951,0.0,0.0,0.0,4.4196,4.4488,4.4488,4.4488,4.4158,4.3497,4.2873,0.0,4.2323,4.2433,4.2763,4.324,4.3424,0.0,0.0,0.0,0.0,0.0,0.0,0.0,0.0,0.0,0.0,0.0,4.4966,4.5265,4.5917,4.695,4.7645,4.7855,4.7855,4.8312,4.9459,5.0371,5.1618,5.3338,5.5087,5.6563,5.7731,5.8633,5.9218,5.9375,5.9414,5.9414,5.9375,5.9414,5.9492,5.9648,5.9378,5.951,6.0188,6.0553,6.1142,6.2074,6.3974,6.5372,6.5179,6.6178,6.6461,6.5581,6.5541,6.5665,6.5537,6.5691,6.6067,6.5888,6.5345,6.4659,6.4273,6.2798,6.1751,6.2241,6.1286,6.1211,6.4245,6.4399,6.3939,4.2083,0.0,4.1745,4.1508,0.0,4.117,4.117,4.1136,4.0798,4.0832,4.117,4.117,4.1373,4.1779,4.2117,4.2489,4.2895,4.3985,4.4506,4.4593,4.5839,4.6635,4.691,4.7554,4.7838,4.7838,4.7192,4.6119,4.4759,4.405,4.281,4.1062,4.1062,4.0948,4.068,4.0796,4.1647,4.3105,4.3796,4.4121,4.4121,4.4121,4.3901,4.3497,0.0,0.0,0.0,0.0,0.0,0.0,0.0,0.0,0.0,4.3497,0.0,4.3497,4.3497,4.3497,4.3497,4.3864,4.4438,4.5127,4.6169,4.6937,4.7238,4.7819,4.831,4.8715,4.893,4.9603,5.1022,5.1823,5.3156,5.5405,5.6188,5.7026,5.8281,5.8555,5.8555,5.8555,5.8555,5.8437,5.7969,5.789,5.8125,5.8476,5.8286,5.8371,5.9192,5.9821,6.0589,6.1858,6.3435,6.4436,6.4205,6.5397,6.6141,6.5214,6.5102,6.4958,6.4478,6.437,6.4174,6.3527,6.3014,6.2682,6.1813,6.0682,5.9926,5.9824,5.9005,5.858,6.0316,6.1406,6.2364,4.2625,4.2489,4.2489,4.2388,4.2286,4.2286,4.2354,4.2455,0.0,0.0,0.0,4.2151,4.2252,4.2523,4.2997,4.3369,4.3639,4.4449,4.4776,4.4776,4.5372,4.5915,4.6448,4.6955,4.7255,4.7176,4.6521,4.5488,4.4193,4.3469,4.243,4.112,4.1001,4.0696,4.0172,4.0625,4.1385,4.2342,4.3178,4.3576,4.3576,4.3646,4.3608,4.3497,4.3351,4.2983,4.2323,4.2947,4.3057,4.258,4.313,4.3497,4.3497,4.3497,4.3497,4.3497,4.3608,4.3681,4.3718,4.4452,4.5109,4.5531,4.7239,4.8336,4.8415,4.8574,4.8912,4.9566,5.0123,5.1032,5.2433,5.3335,5.4704,5.6985,5.6816,5.7146,5.8398,5.8125,5.7617,5.75,5.7383,5.7109,5.6289,5.6133,5.6445,5.7148,5.7063,5.7364,5.8273,5.9051,6.0012,6.1281,6.2435,6.3128,6.3281,6.432,6.5051,6.4487,6.4334,6.4047,6.3285,6.3007,6.2332,6.1143,6.1051,6.0616,5.9305,5.8591,5.8159,5.7339,5.6606,5.6111,5.6487,5.8491,6.048,4.3876,4.3267,4.3267,4.2895,4.2286,4.2286,4.2658,4.32,4.2455,4.2185,4.2252,4.1644,4.2049,4.3234,4.2692,4.3166,4.4439,4.5074,4.5372,4.5425,4.6014,4.6318,4.6413,4.6507,4.6507,4.6507,4.5909,4.4863,4.3519,4.2757,4.168,4.0443,4.0223,4.0189,4.0104,4.0625,4.1013,4.1196,4.2946,4.386,4.386,4.4273,4.4195,4.3497,4.2873,4.2433,4.2323,4.2433,4.2727,4.3277,4.3424,4.3497,4.3497,4.3497,4.3497,4.3534,4.4158,4.4525,4.4562,4.5296,4.6101,4.6902,4.7438,4.8109,4.9152,5.0011,5.0538,5.0546,5.1489,5.204,5.1875,5.3404,5.4751,5.5317,5.601,5.6563,5.6879,5.6875,5.6562,5.5898,5.5664,5.539,5.4687,5.4492,5.4762,5.5318,5.5459,5.5735,5.7041,5.8539,5.9473,6.0012,6.1243,6.2127,6.2358,6.3012,6.3628,6.3551,6.3474,6.331,6.2711,6.2541,6.2057,6.1139,6.0438,5.9374,5.7688,5.617,5.5107,5.3882,5.3341,5.3375,5.4022,5.5244,5.6269,4.4384,4.4045,4.4045,4.3842,4.3538,4.3538,4.3741,4.4012,4.3673,4.3538,4.3436,4.2726,4.3031,4.3944,4.3234,4.3504,4.4643,4.4906,4.4981,4.5035,4.5267,4.5597,4.5865,4.5915,4.5915,4.5795,4.4779,4.3784,4.274,4.163,4.073,4.0087,4.0087,4.0087,4.0138,4.0319,4.0431,4.0514,4.1956,4.3099,4.3888,4.4118,4.4418,4.4782,4.4415,4.4048,4.3644,4.3608,4.3571,4.3497,4.3497,4.3497,4.3497,4.3497,4.3576,4.3651,4.4013,4.4261,4.4304,4.5492,4.655,4.739,4.789,4.8565,4.9485,5.0398,5.0845,5.0821,5.2059,5.2433,5.143,5.3338,5.4774,5.4897,5.5794,5.6386,5.6397,5.6515,5.625,5.5469,5.5312,5.4961,5.4101,5.3941,5.4005,5.4318,5.4237,5.4521,5.5497,5.6665,5.7973,5.9281,6.055,6.1281,6.1435,6.2512,6.3012,6.2743,6.2666,6.2465,6.2022,6.1629,6.0833,5.996,5.916,5.7862,5.6052,5.4812,5.3458,5.22,5.1707,5.1995,5.2739,5.3754,5.4938,4.4553,4.4553,4.4553,4.4553,4.4553,4.4553,4.4553,4.4553,4.4553,4.4553,4.4451,4.3741,4.3842,4.4451,4.3775,4.3842,4.4519,4.4553,4.4553,4.4553,4.4553,4.4852,4.5267,4.532,4.532,4.5129,4.394,4.2997,4.2204,4.0967,4.0223,4.0087,4.0087,4.0087,4.0087,4.0087,4.0155,4.0391,4.1197,4.2334,4.3652,4.3808,4.4556,4.5773,4.5883,4.5626,4.5002,4.4819,4.4415,4.3791,4.3608,4.3536,4.3577,4.3541,4.3651,4.3832,4.4001,4.4328,4.4809,4.5787,4.6864,4.7779,4.8061,4.8622,4.9477,5.0101,5.0562,5.0777,5.2057,5.2485,5.1634,5.3032,5.4483,5.4813,5.5567,5.6095,5.6352,5.6358,5.5976,5.5195,5.4844,5.4297,5.3476,5.3188,5.3225,5.3315,5.3365,5.3623,5.4167,5.478,5.6088,5.805,5.955,6.0127,6.0319,6.1166,6.1666,6.132,6.1166,6.1031,6.0748,6.0189,5.9482,5.869,5.7861,5.6578,5.4784,5.3673,5.2572,5.1321,5.0845,5.1128,5.2101,5.3008,5.4291,4.4553,4.4553,4.4553,4.4553,4.4553,4.4553,4.4553,4.4553,4.4553,4.4553,4.4485,4.3775,4.3842,4.4418,4.3775,4.3842,4.4553,4.4553,4.4553,4.4553,4.4553,4.4643,4.472,4.4665,4.4665,4.4529,4.3803,4.2935,4.2185,4.1441,4.073,4.0155,4.0087,4.0087,4.0087,4.0087,4.0392,4.1102,4.1172,4.1836,4.303,4.3647,4.4556,4.5883,4.592,4.5883,4.5737,4.5076,4.4672,4.4562,4.3866,4.3579,4.371,4.374,4.3822,4.4015,4.4643,4.5705,4.6989,4.6844,4.7176,4.837,4.7419,4.7452,4.899,4.9252,4.9522,5.0222,5.1639,5.2246,5.1471,5.256,5.3742,5.4449,5.4914,5.5403,5.6035,5.5812,5.5078,5.4219,5.3555,5.2383,5.1328,5.1349,5.1725,5.211,5.263,5.3051,5.33,5.3433,5.4126,5.5857,5.7434,5.8434,5.8665,5.8627,5.9127,5.8896,5.8742,5.9081,5.9306,5.8819,5.7862,5.7968,5.7155,5.5706,5.4143,5.283,5.188,5.0725,5.024,5.0314,5.1536,5.2098,5.2776,4.4553,4.4553,4.4553,4.4553,4.4553,4.4553,4.4553,4.4553,4.4079,4.4147,4.4451,4.3775,4.3842,4.4519,4.3775,4.3842,4.4553,4.4553,4.4553,4.4553,4.4553,4.4553,4.4553,4.4553,4.435,4.3842,4.3098,4.2354,4.1644,4.0899,4.0358,4.0121,4.0087,4.0087,4.0087,4.0087,4.046,4.117,4.1204,4.2055,4.3615,4.4085,4.5027,4.6585,4.6812,4.6557,4.6121,4.5758,4.4983,4.3764,4.3328,4.3171,4.3244,4.328,4.3554,4.4139,4.5027,4.575,4.6458,4.6632,4.6977,4.7626,4.6898,4.687,4.7707,4.7938,4.8164,4.8897,5.1066,5.2106,5.1053,5.2281,5.332,5.3469,5.4285,5.4989,5.4819,5.5148,5.4805,5.3476,5.293,5.2266,5.1211,5.105,5.0987,5.0879,5.1275,5.1895,5.2318,5.2433,5.2933,5.4049,5.528,5.6665,5.7819,5.828,5.828,5.828,5.828,5.8489,5.817,5.8092,5.7528,5.7148,5.622,5.5077,5.365,5.2308,5.1229,5.023,4.9873,5.0039,5.1065,5.1084,5.1508,4.4553,4.4553,4.4553,4.4553,4.4553,4.435,4.4384,4.4451,4.3741,4.3842,4.4485,4.3978,4.4045,4.4451,4.3978,4.4045,4.4519,4.4553,4.4553,4.4553,4.4553,4.4553,4.4553,4.4553,4.4282,4.3673,4.276,4.1813,4.0933,4.0392,4.0087,4.0087,4.0087,4.0189,4.0392,4.0392,4.0865,4.1745,4.1813,4.2686,4.4216,4.444,4.5404,4.7183,4.7385,4.7132,4.6555,4.6338,4.5358,4.3616,4.3147,4.3023,4.323,4.3089,4.3476,4.4595,4.5512,4.6007,4.6007,4.6515,4.6903,4.6965,4.6446,4.6336,4.6779,4.6915,4.7095,4.7681,4.9951,5.0933,5.0598,5.1726,5.2537,5.2446,5.367,5.4167,5.3994,5.4411,5.4062,5.293,5.2226,5.1639,5.0806,5.0374,5.0048,4.9823,5.0275,5.0856,5.1395,5.1587,5.1895,5.2702,5.3433,5.4664,5.678,5.7319,5.7489,5.7459,5.7344,5.7335,5.709,5.6978,5.6801,5.5992,5.5137,5.4415,5.3425,5.2125,5.0924,5.0232,4.9989,5.0204,5.1163,5.0788,5.0486,4.4553,4.4553,4.4553,4.4553,4.4519,4.3753,4.391,4.4463,4.3686,4.3753,4.4395,4.4485,4.4519,4.4519,4.4451,4.4519,4.4553,4.4553,4.4553,4.4553,4.4553,4.4553,4.4553,4.4553,4.4553,4.4215,4.3031,4.1644,4.029,4.0121,4.0087,4.0087,4.0037,4.0426,4.0933,4.1035,4.1847,4.2929,4.3132,4.3694,4.4461,4.4597,4.5511,4.7088,4.7342,4.7263,4.7198,4.6585,4.5781,4.5092,4.3658,4.3289,4.4054,4.3588,4.3976,4.5399,4.6302,4.6684,4.6709,4.6743,4.7033,4.7306,4.6204,4.5717,4.6797,4.6426,4.6417,4.6999,4.8153,4.9098,4.9692,5.0646,5.1646,5.2317,5.2567,5.3104,5.3789,5.3281,5.2891,5.2461,5.1406,5.0156,4.895,4.8642,4.9006,4.9396,5.0106,5.0702,5.0818,5.0818,5.1202,5.1741,5.2202,5.2702,5.4318,5.5484,5.5677,5.5733,5.6026,5.5796,5.5551,5.5276,5.5047,5.4689,5.3788,5.3203,5.2937,5.2197,5.1046,5.0453,5.046,5.0834,5.146,5.0918,5.055,4.4113,4.4553,4.4553,4.4553,4.4429,4.326,4.3098,4.3606,4.2532,4.2399,4.3089,4.3586,4.3842,4.3876,4.435,4.4553,4.4553,4.4553,4.4553,4.4553,4.4553,4.4553,4.4553,4.4553,4.4282,4.3775,4.3267,4.2004,4.0288,4.0101,3.9834,3.9382,3.9315,3.9692,4.0476,4.0967,4.1711,4.2625,4.3166,4.3809,4.4485,4.4553,4.5142,4.6112,4.6161,4.6353,4.6774,4.6118,4.5236,4.4079,4.3477,4.334,4.3712,4.3985,4.432,4.4981,4.5669,4.6306,4.6597,4.6653,4.6946,4.7417,4.6239,4.5583,4.6132,4.5925,4.5795,4.6374,4.7301,4.8096,4.8521,4.9586,5.0762,5.1641,5.2305,5.25,5.2461,5.25,5.25,5.1875,5.082,4.9609,4.8365,4.8218,4.8522,4.8725,4.9371,5.0067,5.0587,5.0702,5.0856,5.1125,5.1587,5.2125,5.2587,5.3813,5.4511,5.4714,5.4787,5.4162,5.3724,5.3253,5.297,5.279,5.2059,5.2071,5.1923,5.2269,5.1185,5.0924,5.0927,5.135,5.1756,5.1099,5.0639,4.3876,4.4519,4.4553,4.444,4.4021,4.256,4.2209,4.2337,4.1122,4.0932,4.1835,4.2377,4.2741,4.3098,4.3829,4.4006,4.3856,4.4293,4.4553,4.4553,4.4553,4.4553,4.4553,4.4553,4.4181,4.3348,4.2589,4.1498,4.0213,3.9588,3.9347,3.9262,3.9049,3.9448,4.0357,4.0967,4.1542,4.2286,4.3031,4.3707,4.4181,4.4451,4.5043,4.5683,4.5699,4.5823,4.6414,4.6047,4.5352,4.4258,4.3707,4.3403,4.3504,4.4384,4.4925,4.4993,4.5864,4.6268,4.6254,4.6413,4.6575,4.6671,4.578,4.5326,4.5828,4.5591,4.557,4.5974,4.6588,4.7185,4.7695,4.8552,4.9645,5.082,5.1758,5.2031,5.1523,5.1953,5.1797,5.1055,5.0195,4.9,4.7795,4.8049,4.8308,4.8245,4.9101,5.0067,5.0548,5.0702,5.0548,5.0394,5.0971,5.1356,5.17,5.2449,5.3072,5.3356,5.365,5.2906,5.2151,5.156,5.1157,5.0851,5.0748,5.0915,5.1239,5.1808,5.1731,5.1336,5.1715,5.22,5.196,5.1303,5.101,4.3842,4.4451,4.4553,4.4088,4.333,4.1749,4.1075,4.0919,3.9578,3.9674,4.0667,4.1018,4.1526,4.2074,4.2855,4.2863,4.2583,4.368,4.4384,4.444,4.4497,4.4497,4.444,4.4327,4.3923,4.306,4.1156,4.018,3.9845,3.8697,3.8576,3.954,3.9102,3.9421,4.1084,4.1084,4.1542,4.2219,4.2963,4.3436,4.3504,4.4181,4.5124,4.6217,4.5896,4.5964,4.655,4.6584,4.6206,4.5513,4.4282,4.3504,4.3707,4.4812,4.5659,4.5671,4.679,4.6738,4.5684,4.5993,4.5889,4.5539,4.4746,4.4934,4.5612,4.5591,4.5592,4.5896,4.6129,4.6502,4.7301,4.7603,4.8379,4.9922,5.0976,5.1328,5.1406,5.1406,5.105,5.02,4.9445,4.8327,4.7556,4.7663,4.8097,4.8386,4.9298,5.0356,5.0587,5.0702,5.0317,4.9971,5.0356,5.0933,5.0985,5.1063,5.1471,5.1869,5.2219,5.2016,5.1264,5.0638,5.038,5.0108,5.0168,5.0242,5.0079,5.0647,5.1614,5.1637,5.2226,5.2501,5.2094,5.1528,5.1409,4.2624,4.363,4.318,4.348,4.3714,4.0877,3.9975,4.0703,3.8965,3.8309,3.8874,4.0323,4.0892,4.0892,4.1848,4.2236,4.2078,4.2645,4.3108,4.3621,4.368,4.368,4.3621,4.3075,4.2439,4.1689,4.0599,3.9462,3.8531,3.7957,3.7828,3.7738,3.8019,3.8655,3.9661,4.0639,4.1373,4.1644,4.2794,4.3403,4.347,4.4181,4.4856,4.5171,4.5513,4.6021,4.6692,4.6726,4.6408,4.5737,4.5263,4.4756,4.4529,4.5083,4.5299,4.4905,4.5506,4.5811,4.5294,4.5336,4.5498,4.5515,4.5412,4.5469,4.5746,4.5748,4.5784,4.5913,4.6014,4.6296,4.653,4.7,4.8041,4.9856,5.0289,5.0668,5.1063,5.1167,5.0789,5.0065,4.962,4.8769,4.7495,4.7414,4.7766,4.8123,4.8779,4.9394,5.0394,5.0702,5.0664,5.0394,5.0664,5.0567,5.0483,5.0444,5.0608,5.0749,5.0907,5.0967,5.0303,4.9781,4.9561,4.9358,4.9409,4.941,4.9184,4.9907,5.0974,5.1612,5.1997,5.2046,5.2001,5.1911,5.1932,4.1855,4.3259,4.2526,4.2749,4.3304,4.0293,3.924,3.9435,3.7957,3.7238,3.7582,3.8681,3.9218,3.928,4.0448,4.0921,4.0786,4.1531,4.2109,4.2395,4.2707,4.2802,4.2737,4.1979,4.1245,4.048,3.9561,3.8649,3.7775,3.7156,3.694,3.7087,3.7263,3.7905,3.8832,3.9801,4.0452,4.0915,4.1948,4.2591,4.2794,4.3606,4.4282,4.4621,4.5331,4.6041,4.6718,4.6786,4.6583,4.6075,4.5635,4.506,4.4643,4.4902,4.4819,4.4555,4.473,4.4979,4.4633,4.4798,4.4966,4.5171,4.529,4.542,4.5567,4.5736,4.5918,4.5969,4.6014,4.6064,4.6153,4.6372,4.7505,4.9145,4.9386,4.9808,5.0451,5.0899,5.0869,5.0331,4.992,4.9097,4.8275,4.789,4.805,4.8489,4.8894,4.924,5.0394,5.0664,5.0587,5.0548,5.0548,5.0335,5.0002,4.9916,4.9834,4.9776,4.9669,4.9586,4.9233,4.8895,4.8673,4.8206,4.8064,4.8199,4.8085,4.9696,5.0964,5.131,5.1486,5.1752,5.1917,5.2502,5.252,4.1178,4.3014,4.2311,4.1894,4.1788,4.0156,3.8744,3.7556,3.6723,3.649,3.652,3.6833,3.7067,3.7647,3.9057,3.9388,3.897,4.068,4.1295,4.1095,4.1396,4.1692,4.1436,4.0768,4.0103,3.9407,3.8153,3.753,3.7333,3.6318,3.6196,3.7235,3.6904,3.735,3.8525,3.8854,3.9468,4.024,4.0933,4.1339,4.1441,4.2625,4.3707,4.4418,4.506,4.5771,4.6481,4.6616,4.665,4.6515,4.5263,4.4485,4.4461,4.4353,4.4331,4.4173,4.4654,4.4525,4.4147,4.4271,4.4412,4.4183,4.4515,4.4796,4.5227,4.5622,4.5959,4.6041,4.5997,4.5981,4.6047,4.6008,4.6681,4.7907,4.8771,4.9332,4.9829,5.0625,5.0855,5.071,5.0162,4.9537,4.9258,4.9201,4.9221,4.9356,4.9817,5.0202,5.0548,5.0587,5.0279,5.0317,5.0471,5.0274,5.0013,4.9771,4.9673,4.9271,4.8962,4.8643,4.8526,4.8263,4.7838,4.7339,4.7085,4.7081,4.7491,4.8978,4.996,5.0152,5.0627,5.1299,5.1931,5.2334,5.2716,3.8882,4.079,3.9966,4.0286,4.0994,3.8955,3.7928,3.7453,3.629,3.5848,3.5848,3.6267,3.6537,3.6903,3.8129,3.8572,3.8692,3.9586,3.999,3.9809,3.992,3.9725,3.9306,3.8696,3.8055,3.7414,3.6736,3.6061,3.61,3.5748,3.5748,3.607,3.6508,3.7024,3.8019,3.858,3.9315,4.0054,4.0798,4.117,4.1305,4.2049,4.2929,4.3673,4.3944,4.4722,4.5805,4.6007,4.6007,4.5872,4.4553,4.3741,4.3817,4.3969,4.3851,4.3543,4.416,4.4419,4.3797,4.3722,4.375,4.3734,4.4233,4.4662,4.4819,4.5492,4.5913,4.6058,4.6048,4.6008,4.5959,4.5897,4.6394,4.7284,4.88,5.0008,5.0317,5.0632,5.0791,5.0738,5.0506,5.0085,4.9663,4.9471,4.9471,4.951,4.974,5.0087,5.051,5.0664,5.0471,5.051,5.0606,5.0308,5.003,4.9796,4.9408,4.894,4.8495,4.8035,4.7951,4.7875,4.7342,4.6707,4.6815,4.6813,4.7049,4.7838,4.839,4.9345,5.0435,5.1402,5.1564,5.1913,5.2379,3.7761,3.952,3.856,3.8968,3.987,3.8152,3.7352,3.7075,3.6321,3.5759,3.5639,3.5878,3.6088,3.6178,3.7135,3.7734,3.8063,3.8691,3.914,3.9409,3.9481,3.9122,3.8522,3.7943,3.7375,3.6507,3.6118,3.5789,3.5614,3.5489,3.5489,3.5619,3.5973,3.6538,3.7263,3.77,3.8525,3.9435,4.0046,4.0385,4.0764,4.1441,4.1948,4.2591,4.3031,4.4045,4.506,4.5229,4.5365,4.5297,4.4316,4.3403,4.341,4.3519,4.3395,4.2987,4.3754,4.3975,4.3644,4.3497,4.3563,4.3791,4.4261,4.4649,4.4977,4.5529,4.59,4.6084,4.6055,4.5976,4.5966,4.6087,4.6622,4.7489,4.8912,4.9928,5.0144,5.0471,5.0664,5.0702,5.0664,5.0548,4.9971,4.9933,4.9933,4.9971,5.0048,5.0317,5.0587,5.0625,5.0702,5.0702,5.0527,5.0227,4.9858,4.9559,4.8984,4.8524,4.7976,4.7529,4.7147,4.7147,4.6738,4.6315,4.6446,4.6581,4.67,4.7227,4.8398,4.9447,5.0593,5.1189,5.137,5.1825,5.2241,3.734,3.8599,3.7842,3.7869,3.8302,3.7631,3.6963,3.6484,3.6267,3.5998,3.5544,3.5359,3.5317,3.5389,3.5857,3.6467,3.6971,3.7529,3.8453,3.8809,3.8941,3.8627,3.8212,3.8093,3.7375,3.6447,3.6387,3.5998,3.5609,3.5489,3.5489,3.5489,3.5554,3.5943,3.6631,3.6722,3.7408,3.858,3.9028,3.9448,4.0001,4.0661,4.1204,4.161,4.2591,4.3538,4.4248,4.4485,4.4756,4.5534,4.4113,4.3301,4.3192,4.2949,4.2687,4.2695,4.2936,4.3251,4.3286,4.3213,4.3458,4.3717,4.4233,4.4759,4.5132,4.5549,4.589,4.608,4.5968,4.6041,4.6208,4.6588,4.7251,4.8048,4.875,4.9056,4.9506,5.0143,5.0584,5.0545,5.0525,5.0584,5.0624,5.0644,5.0547,4.9933,5.0087,5.0317,5.0471,5.051,5.0587,5.0702,5.0469,5.0128,4.9721,4.9306,4.8646,4.8016,4.7445,4.6902,4.6223,4.6071,4.5888,4.5768,4.5925,4.6014,4.6056,4.6942,4.8264,4.9153,4.999,5.0717,5.1331,5.2006,5.2523,3.6257,3.7063,3.6831,3.6831,3.7001,3.6784,3.6327,3.5759,3.5729,3.5669,3.5323,3.4706,3.4409,3.4399,3.4396,3.4312,3.4824,3.573,3.676,3.7999,3.7564,3.7575,3.7526,3.7545,3.6926,3.6028,3.5729,3.5639,3.5519,3.5489,3.5489,3.5489,3.5554,3.5816,3.6446,3.6569,3.7024,3.7962,3.8525,3.8908,3.9262,3.9967,4.0611,4.1204,4.2049,4.2861,4.3504,4.3673,4.4045,4.4248,4.3436,4.2523,4.2479,4.1822,4.1499,4.1576,4.1987,4.2226,4.2266,4.2619,4.2884,4.3141,4.3953,4.4662,4.4836,4.5472,4.5831,4.6059,4.6066,4.625,4.6653,4.6887,4.7581,4.8546,4.9086,4.9384,4.9786,4.986,4.986,4.9846,4.9808,4.9898,5.0183,5.0291,5.0189,4.9912,5.001,5.024,5.0356,5.0394,5.0356,5.0394,5.0124,4.9712,4.9011,4.8578,4.7995,4.7387,4.6876,4.627,4.5587,4.5312,4.5265,4.5303,4.5377,4.5546,4.5703,4.6743,4.808,4.8678,4.9331,5.013,5.0964,5.1899,5.2408,3.5718,3.61,3.6075,3.6049,3.6098,3.6045,3.5818,3.5549,3.5489,3.5198,3.4773,3.4177,3.3911,3.3748,3.3584,3.3688,3.4076,3.463,3.546,3.6109,3.5929,3.5942,3.616,3.6291,3.5917,3.5448,3.5519,3.5489,3.5489,3.5489,3.5489,3.5489,3.5489,3.5683,3.6006,3.6102,3.6446,3.7084,3.7616,3.8101,3.8854,3.9262,4.0135,4.1017,4.161,4.2117,4.2828,4.2895,4.3098,4.3098,4.2455,4.1948,4.2087,4.1435,4.0943,4.0978,4.1429,4.1768,4.1937,4.2062,4.2422,4.2693,4.3638,4.4223,4.4729,4.5322,4.5764,4.5944,4.6025,4.6198,4.6551,4.6911,4.7627,4.8469,4.9046,4.935,4.9695,4.9754,4.9673,4.9561,4.9532,4.9728,4.9924,4.9885,5.0122,5.0028,4.9586,4.9817,5.0279,5.0279,4.9933,4.9856,4.9663,4.9158,4.8351,4.7738,4.7228,4.6725,4.6246,4.553,4.4809,4.4733,4.4785,4.4971,4.5179,4.5501,4.5872,4.6921,4.7597,4.8201,4.885,4.9673,5.0404,5.1102,5.1577,3.5489,3.5489,3.5489,3.5489,3.5489,3.5519,3.5519,3.5519,3.5294,3.4773,3.4013,3.3808,3.3127,3.301,3.2725,3.3179,3.3587,3.3799,3.3887,3.4458,3.4238,3.45,3.4754,3.4946,3.503,3.5258,3.5424,3.5489,3.5489,3.5489,3.5489,3.5489,3.5489,3.5554,3.5489,3.5554,3.5846,3.6384,3.6722,3.7231,3.8213,3.858,3.9379,4.0101,4.062,4.111,4.1735,4.2044,4.2219,4.2219,4.1576,4.161,4.1732,4.1321,4.078,4.078,4.115,4.1331,4.1375,4.1595,4.1895,4.2501,4.3302,4.3959,4.46,4.5225,4.5641,4.5862,4.5995,4.6202,4.6317,4.6996,4.7734,4.8469,4.8979,4.92,4.95,4.9822,4.9554,4.9326,4.9102,4.9258,4.9408,4.9505,4.987,5.0008,4.9548,4.9317,4.9702,4.9856,4.9394,4.8971,4.8702,4.8137,4.7315,4.666,4.6207,4.6103,4.5631,4.5215,4.452,4.4671,4.4848,4.4849,4.5035,4.5445,4.5722,4.6186,4.6885,4.7597,4.7875,4.8105,4.8976,5.0169,5.0493,3.5489,3.5489,3.5489,3.5489,3.5489,3.5489,3.5424,3.5359,3.461,3.4177,3.3739,3.2379,3.1736,3.1453,3.0725,3.0752,3.1473,3.1681,3.215,3.2877,3.2715,3.2867,3.3684,3.3889,3.4117,3.4438,3.4905,3.5264,3.5489,3.5489,3.5424,3.5489,3.5489,3.5489,3.5424,3.5489,3.5554,3.5846,3.6228,3.6783,3.7172,3.779,3.8197,3.8795,3.9183,3.9785,4.05,4.1057,4.1677,4.2151,4.1576,4.1339,4.1204,4.0646,4.0337,4.0319,4.0417,4.0611,4.0611,4.0827,4.1331,4.1996,4.2882,4.3893,4.4537,4.5125,4.548,4.5881,4.6167,4.6637,4.7921,4.7864,4.88,4.9732,5.0048,5.0035,4.9844,4.9455,4.8889,4.8501,4.8447,4.8546,4.872,4.8745,4.8808,4.8833,4.8567,4.8279,4.8394,4.8548,4.8432,4.8009,4.7663,4.6959,4.6202,4.5587,4.5147,4.5442,4.5253,4.5287,4.4864,4.4936,4.4984,4.4975,4.509,4.5388,4.5664,4.5671,4.6057,4.6624,4.6513,4.6356,4.7502,4.8707,4.8855,3.5489,3.5489,3.5489,3.5489,3.5424,3.4905,3.4706,3.4543,3.3671,3.3017,3.2407,3.1609,3.1078,3.0778,3.0494,3.0382,3.0482,3.0281,3.0646,3.1216,3.1113,3.1389,3.2334,3.2588,3.2932,3.3255,3.3837,3.4639,3.5424,3.5489,3.5162,3.4905,3.5198,3.5294,3.5001,3.5198,3.5424,3.5619,3.5846,3.6228,3.66,3.7322,3.7764,3.7937,3.8076,3.8721,3.9391,3.974,4.0366,4.0915,4.0798,4.0663,4.0527,4.0358,4.0087,4.0087,4.0087,4.0087,4.0138,4.0417,4.0861,4.174,4.2268,4.3119,4.4116,4.4734,4.5163,4.5755,4.6069,4.6445,4.7067,4.7696,4.8437,4.9243,4.9826,4.9856,4.9488,4.9029,4.8362,4.7657,4.7559,4.768,4.7905,4.7881,4.7793,4.7639,4.7453,4.7337,4.7203,4.7317,4.7471,4.7127,4.6724,4.6024,4.5429,4.5034,4.4669,4.4856,4.5039,4.5084,4.5086,4.5092,4.5124,4.5147,4.5329,4.5286,4.4933,4.4741,4.5213,4.5534,4.5244,4.5303,4.6283,4.7008,4.7309,3.5489,3.5489,3.5489,3.5359,3.5067,3.438,3.3876,3.3533,3.2763,3.1974,3.1241,3.0996,3.0726,3.0489,3.0407,3.0407,3.0407,2.9955,2.9957,2.9957,3.0009,3.0292,3.0771,3.1241,3.1656,3.2307,3.2735,3.3394,3.4409,3.4706,3.4341,3.4109,3.4572,3.4572,3.4041,3.461,3.5067,3.5264,3.5489,3.5846,3.6415,3.6995,3.7354,3.7413,3.7472,3.7937,3.8623,3.8952,3.9468,4.0036,4.0155,4.0121,4.0087,4.0087,4.0087,4.0087,4.0087,4.0087,4.0138,4.0138,4.0611,4.1429,4.1296,4.2399,4.382,4.456,4.4893,4.5677,4.6014,4.6284,4.6726,4.706,4.772,4.8371,4.8977,4.9164,4.8837,4.8362,4.7762,4.7224,4.6803,4.6674,4.6845,4.6755,4.6606,4.6443,4.6275,4.6492,4.6397,4.6529,4.655,4.6224,4.5812,4.5176,4.4729,4.4661,4.4546,4.4745,4.4926,4.5106,4.5125,4.5223,4.5207,4.5113,4.4912,4.4767,4.4303,4.3964,4.4158,4.4172,4.3898,4.4123,4.4921,4.5579,4.6109,3.5489,3.5489,3.5489,3.4971,3.4245,3.3973,3.3463,3.2692,3.1756,3.1315,3.1044,3.0343,2.9984,2.993,2.993,2.9905,2.988,2.9854,2.9779,2.9779,2.9779,2.9856,3.0139,3.0895,3.0939,3.1329,3.201,3.2593,3.2961,3.2961,3.2947,3.2876,3.3045,3.2904,3.2947,3.3876,3.4148,3.438,3.5067,3.5554,3.5683,3.5846,3.591,3.607,3.6477,3.7084,3.7905,3.8414,3.9156,3.9901,4.0054,4.0054,4.0087,4.0087,4.0087,4.0087,4.0087,4.0087,4.0087,4.0138,4.0368,4.0976,4.1014,4.2084,4.3249,4.4666,4.5297,4.5774,4.6008,4.6356,4.682,4.7221,4.7749,4.8088,4.8386,4.8463,4.8221,4.7818,4.7231,4.6565,4.6098,4.5741,4.5613,4.549,4.5357,4.5217,4.5209,4.5459,4.5663,4.5822,4.5879,4.5646,4.5261,4.461,4.4327,4.4172,4.4543,4.4709,4.4924,4.5162,4.5391,4.5418,4.5027,4.4947,4.472,4.4553,4.4384,4.4005,4.3361,4.3224,4.3321,4.3333,4.3344,4.4067,4.493,3.5489,3.5454,3.4905,3.4409,3.3876,3.2876,3.2191,3.1683,3.0846,3.0419,3.0343,2.9985,2.9779,2.9779,2.9779,2.9779,2.9779,2.9779,2.9779,2.9779,2.9779,2.9779,2.9756,2.9808,2.9931,3.0106,3.0277,3.0299,3.0818,3.1829,3.2379,3.1901,3.2263,3.2307,3.2164,3.3296,3.3876,3.4312,3.4905,3.5424,3.5489,3.5489,3.5489,3.5489,3.5816,3.6384,3.7112,3.7847,3.8635,3.9249,3.9463,3.9478,3.9445,3.9445,3.9445,3.9478,3.9884,4.0054,4.0087,4.0087,4.0368,4.0607,4.0664,4.0876,4.2291,4.3748,4.4868,4.517,4.5687,4.6214,4.664,4.6749,4.719,4.7561,4.7709,4.7636,4.753,4.7229,4.6724,4.6089,4.5485,4.5255,4.503,4.4974,4.4974,4.4938,4.501,4.5268,4.535,4.5354,4.5337,4.5256,4.4764,4.4204,4.3998,4.3902,4.466,4.493,4.4958,4.5228,4.5726,4.574,4.5285,4.4906,4.4665,4.4553,4.4497,4.4031,4.3418,4.3161,4.302,4.3192,4.3331,4.3349,4.4189,3.5133,3.5067,3.4312,3.3739,3.3129,3.1483,3.0441,2.9935,2.9549,2.9365,2.9468,2.9624,2.9779,2.9779,2.9779,2.9779,2.9779,2.9779,2.9779,2.9779,2.9779,2.9779,2.9628,2.9353,2.9026,2.8825,2.8575,2.845,2.8973,2.9844,3.0572,3.0869,3.1341,3.1609,3.1802,3.2735,3.3739,3.461,3.5133,3.5489,3.5489,3.5489,3.537,3.534,3.5404,3.5755,3.6322,3.6861,3.7527,3.848,3.842,3.8421,3.8652,3.87,3.8722,3.8841,3.9278,3.9716,3.98,3.9952,4.0269,4.0384,4.0393,4.0467,4.1151,4.2586,4.3865,4.452,4.514,4.5713,4.6172,4.6328,4.659,4.686,4.6941,4.6833,4.672,4.6529,4.6337,4.586,4.5416,4.5148,4.4927,4.4726,4.4662,4.465,4.4849,4.5077,4.5159,4.518,4.5011,4.4966,4.4535,4.4028,4.3786,4.3922,4.4597,4.5077,4.5101,4.5534,4.6132,4.5888,4.539,4.5035,4.4776,4.4587,4.4553,4.3964,4.3502,4.3751,4.3913,4.3614,4.3548,4.3452,4.3588,3.4109,3.4081,3.3945,3.2793,3.1129,3.0036,2.8542,2.7337,2.7947,2.8267,2.853,2.9263,2.9779,2.9779,2.9779,2.9779,2.9779,2.9779,2.9779,2.9779,2.9779,2.9779,2.9578,2.9227,2.875,2.86,2.7704,2.6986,2.6784,2.7152,2.8371,2.968,3.0012,3.0568,3.1341,3.2522,3.3905,3.4743,3.527,3.5175,3.521,3.515,3.4942,3.4707,3.5105,3.5543,3.5672,3.5848,3.6342,3.7481,3.7228,3.7303,3.7633,3.7633,3.7636,3.8054,3.8656,3.9025,3.9257,3.9783,4.0054,4.0226,4.0224,4.0277,4.0753,4.1434,4.2601,4.3969,4.4646,4.5401,4.5937,4.6289,4.6172,4.6288,4.6332,4.6183,4.6061,4.5989,4.5778,4.5571,4.5381,4.5201,4.5115,4.4988,4.4701,4.4663,4.4896,4.5159,4.5263,4.5263,4.4943,4.4726,4.4346,4.3943,4.3631,4.3864,4.4305,4.493,4.5255,4.6001,4.6751,4.6283,4.5865,4.5267,4.5035,4.4797,4.4564,4.434,4.4357,4.4749,4.4851,4.4598,4.4149,4.3929,4.3946,3.2778,3.2126,3.1522,3.0786,2.9961,2.8306,2.7233,2.6648,2.6976,2.7522,2.8187,2.9287,2.9779,2.9779,2.9779,2.9779,2.9779,2.9779,2.9779,2.9779,2.9779,2.9779,2.9503,2.9001,2.8398,2.8076,2.6893,2.5756,2.5409,2.4937,2.5306,2.6473,2.8004,2.9985,3.1182,3.2553,3.409,3.4662,3.4587,3.409,3.4002,3.3651,3.3323,3.3147,3.3868,3.4205,3.4334,3.4842,3.5336,3.5657,3.5605,3.5953,3.634,3.6241,3.6439,3.707,3.787,3.842,3.9008,3.9581,4.0054,4.0034,4.002,4.0064,4.0309,4.0998,4.2062,4.3245,4.4261,4.5086,4.6055,4.5859,4.5544,4.5742,4.5779,4.5618,4.5583,4.5626,4.5603,4.555,4.5532,4.5438,4.54,4.5341,4.4988,4.4726,4.4966,4.518,4.5341,4.5476,4.5201,4.4915,4.4599,4.4153,4.3812,4.3894,4.4009,4.4638,4.5369,4.6163,4.6866,4.7162,4.6682,4.5965,4.5371,4.5166,4.5004,4.4899,4.5117,4.552,4.5571,4.5488,4.5016,4.4479,4.4382,3.1529,3.0413,2.9142,2.8572,2.8313,2.6721,2.5797,2.5568,2.5797,2.6871,2.8084,2.8949,2.9546,2.9702,2.9779,2.9779,2.9779,2.9779,2.9779,2.9779,2.9779,2.9779,2.9453,2.8976,2.8398,2.7729,2.6187,2.4929,2.3733,2.2849,2.2594,2.3499,2.5584,2.7753,3.069,3.276,3.4185,3.4392,3.3739,3.2934,3.2847,3.2299,3.1675,3.1804,3.2587,3.2933,3.3123,3.3486,3.4075,3.426,3.4297,3.445,3.4646,3.4883,3.5082,3.5976,3.6904,3.7701,3.8606,3.9564,4.0054,4.0052,3.9637,3.9634,3.9948,4.0526,4.1228,4.2865,4.3863,4.4877,4.5932,4.5753,4.5572,4.5827,4.5667,4.553,4.5592,4.5616,4.562,4.5586,4.5568,4.5568,4.555,4.5457,4.5323,4.5077,4.5222,4.5381,4.5496,4.5591,4.5627,4.5355,4.5036,4.4603,4.4165,4.4128,4.4136,4.4635,4.5334,4.6027,4.6673,4.7011,4.7052,4.6257,4.5736,4.5554,4.5524,4.5554,4.5865,4.6229,4.6353,4.645,4.5578,4.5067,4.4816,3.0416,2.9297,2.7371,2.6453,2.6177,2.523,2.4276,2.374,2.449,2.5981,2.7659,2.8108,2.8767,2.9521,2.9624,2.9779,2.9779,2.9779,2.9779,2.9779,2.9779,2.9779,2.9578,2.9126,2.8574,2.7607,2.5816,2.3816,2.2143,2.0663,1.9962,2.0282,2.2273,2.563,2.9283,3.2141,3.3513,3.3421,3.2703,3.2298,3.1919,3.1321,3.0667,3.0462,3.1403,3.1878,3.1801,3.2378,3.2938,3.3218,3.2987,3.3168,3.3686,3.3738,3.4118,3.4839,3.5512,3.6554,3.7793,3.9244,3.9901,4.0068,3.9782,3.9564,3.9729,4.0037,4.0832,4.2928,4.357,4.444,4.5234,4.5741,4.558,4.553,4.532,4.5246,4.5269,4.568,4.5665,4.5642,4.5616,4.5586,4.5586,4.5586,4.5586,4.5494,4.5568,4.5624,4.5645,4.5668,4.5698,4.5612,4.5294,4.5057,4.4603,4.4296,4.4326,4.4807,4.5297,4.5956,4.6455,4.6813,4.6659,4.6283,4.5889,4.5466,4.5852,4.6312,4.6817,4.7373,4.7431,4.7308,4.6384,4.574,4.5495,2.6962,2.5923,2.5561,2.4851,2.4149,2.378,2.3315,2.2992,2.3885,2.4994,2.6146,2.7337,2.8267,2.8767,2.9443,2.9702,2.9779,2.9779,2.9779,2.9779,2.9779,2.9779,2.9628,2.9277,2.875,2.7878,2.5826,2.3393,2.167,1.9399,1.7432,1.7448,2.0275,2.4872,2.9308,3.2396,3.3514,3.3272,3.2328,3.1289,3.0749,3.0053,2.9361,2.8648,3.0122,3.0721,3.0643,3.1367,3.1987,3.2304,3.1996,3.2272,3.2841,3.2949,3.3519,3.4438,3.5284,3.6519,3.7807,3.9032,3.9628,3.9937,4.0043,4.0059,4.0925,4.1006,4.197,4.3091,4.3905,4.4797,4.5648,4.472,4.4365,4.4644,4.456,4.4533,4.4666,4.5402,4.5761,4.5725,4.5698,4.5648,4.562,4.5603,4.5603,4.562,4.562,4.5603,4.5624,4.5589,4.563,4.56,4.5475,4.5319,4.51,4.4693,4.4244,4.4374,4.5068,4.5847,4.6275,4.6506,4.6534,4.627,4.5787,4.5466,4.6226,4.6989,4.797,4.8495,4.845,4.7902,4.693,4.656,4.6497,2.4916,2.3987,2.4261,2.3676,2.2801,2.2852,2.2695,2.2552,2.3385,2.4136,2.4892,2.6349,2.7174,2.7763,2.8609,2.9184,2.9263,2.9702,2.9779,2.9779,2.9779,2.9779,2.9628,2.9199,2.8648,2.7724,2.5761,2.3388,2.04,1.8228,1.6437,1.6199,1.8779,2.3624,2.8186,3.0945,3.2375,3.2167,3.1448,3.0534,2.9756,2.8957,2.8183,2.796,2.8546,2.947,2.9964,3.0569,3.1219,3.1336,3.1567,3.1682,3.2104,3.2571,3.313,3.4147,3.5527,3.67,3.7796,3.8501,3.945,4.0848,4.0411,4.073,4.1699,4.1926,4.282,4.3807,4.4524,4.5046,4.5375,4.4189,4.4167,4.4499,4.4548,4.4521,4.4577,4.532,4.5803,4.5801,4.5751,4.5673,4.5648,4.5637,4.562,4.5637,4.5616,4.562,4.5642,4.5683,4.5742,4.5802,4.5851,4.5856,4.5545,4.5036,4.459,4.4102,4.4724,4.5516,4.5707,4.5873,4.6092,4.6161,4.5615,4.5499,4.669,4.7631,4.8443,4.9018,4.9227,4.8464,4.7412,4.7215,4.7145,2.4434,2.3482,2.3423,2.2839,2.2056,2.2155,2.2162,2.1973,2.2676,2.3438,2.4115,2.4577,2.5391,2.6408,2.7485,2.7917,2.7949,2.8831,2.9065,2.9217,2.8885,2.9139,2.9164,2.9065,2.8009,2.6718,2.4934,2.2319,1.8921,1.5959,1.4489,1.5525,1.8231,2.267,2.6411,2.9136,3.071,3.1279,3.119,3.0197,2.9303,2.8509,2.767,2.743,2.767,2.8363,2.9002,2.9752,3.0598,3.1043,3.1394,3.1452,3.1739,3.2216,3.2949,3.4046,3.5785,3.665,3.7482,3.8138,3.9276,4.0659,4.1105,4.1245,4.1916,4.283,4.3629,4.4315,4.4957,4.5152,4.5201,4.5022,4.4829,4.4987,4.5118,4.5021,4.487,4.524,4.5669,4.5776,4.5736,4.5703,4.575,4.5722,4.5703,4.5712,4.5712,4.5654,4.5736,4.6047,4.6106,4.626,4.6321,4.6454,4.6031,4.5268,4.4721,4.417,4.4344,4.4947,4.5143,4.5311,4.5563,4.5509,4.5138,4.5479,4.6709,4.7767,4.8781,4.9187,4.9458,4.9226,4.8264,4.7878,4.7593,2.219,2.191,2.2209,2.1671,2.082,2.0847,2.1183,2.1831,2.1875,2.2063,2.2631,2.3514,2.4069,2.4449,2.5487,2.5926,2.6161,2.6294,2.645,2.6667,2.7207,2.7041,2.7088,2.7144,2.6493,2.5374,2.3588,2.1511,1.8851,1.5115,1.4392,1.646,1.8024,2.1711,2.4927,2.76,2.9459,3.0748,3.0837,3.0058,2.9254,2.8556,2.767,2.7095,2.7229,2.7802,2.8298,2.8939,2.9752,3.045,3.0658,3.0837,3.1539,3.2625,3.3751,3.4911,3.578,3.6327,3.7131,3.7506,3.8496,4.0271,4.1038,4.2419,4.3188,4.3847,4.4355,4.4831,4.5168,4.5312,4.5118,4.4885,4.4718,4.4626,4.4909,4.5179,4.5071,4.5343,4.5794,4.5869,4.5776,4.5789,4.5847,4.582,4.5813,4.579,4.5761,4.5712,4.5731,4.6005,4.6163,4.624,4.6263,4.6262,4.5938,4.5281,4.4739,4.4363,4.4346,4.4371,4.4578,4.4774,4.5033,4.5233,4.5363,4.5886,4.6616,4.7767,4.8951,4.9255,4.9463,4.9392,4.9217,4.881,4.8338,2.0977,2.0936,2.0747,2.0354,1.9825,1.9743,2.0279,2.1072,2.1367,2.1582,2.1722,2.2534,2.2879,2.3082,2.4046,2.4579,2.4657,2.5273,2.5506,2.5597,2.5228,2.5622,2.5611,2.5408,2.5194,2.4018,2.2449,2.048,1.8053,1.5465,1.4158,1.6199,1.7787,2.1013,2.4171,2.6632,2.8283,2.9529,3.0067,2.96,2.9066,2.8492,2.7604,2.6892,2.7095,2.7297,2.767,2.8298,2.8876,2.9752,2.9964,3.045,3.1364,3.2563,3.3921,3.4958,3.5487,3.6019,3.6766,3.7517,3.8545,3.9899,4.1249,4.2677,4.3718,4.4401,4.4777,4.5096,4.5272,4.5304,4.4923,4.4566,4.4248,4.3985,4.4565,4.5162,4.5384,4.5592,4.5757,4.5927,4.5948,4.5909,4.5918,4.5927,4.5927,4.5891,4.5836,4.5761,4.5712,4.577,4.5813,4.5855,4.586,4.5837,4.5445,4.5054,4.4391,4.3874,4.361,4.3692,4.397,4.419,4.4354,4.5132,4.5988,4.6394,4.6752,4.797,4.9052,4.9289,4.9695,5.0118,5.0158,4.9969,4.9437,2.0566,2.0333,1.9274,1.8851,1.8975,1.8877,1.9229,1.9983,2.1055,2.1426,2.1152,2.1504,2.1686,2.177,2.2505,2.2919,2.2949,2.347,2.3656,2.4681,2.404,2.404,2.4183,2.467,2.3595,2.2616,2.1017,1.878,1.6879,1.5233,1.4937,1.5905,1.826,2.1215,2.4027,2.5933,2.7202,2.7659,2.8318,2.8265,2.8011,2.767,2.7338,2.6645,2.6645,2.685,2.7338,2.7736,2.7973,2.8876,2.9566,3.0058,3.1332,3.229,3.3617,3.4511,3.5098,3.5776,3.6547,3.7421,3.867,4.0095,4.1658,4.2717,4.3568,4.4532,4.491,4.4767,4.4797,4.4414,4.402,4.4358,4.4358,4.4319,4.4655,4.4813,4.4784,4.5065,4.5422,4.5632,4.5866,4.5881,4.6075,4.608,4.5995,4.5995,4.5927,4.5813,4.5603,4.5526,4.5455,4.5457,4.5476,4.5344,4.4878,4.4393,4.3844,4.3358,4.2996,4.2837,4.2973,4.3301,4.3694,4.4677,4.5682,4.6336,4.6955,4.8003,4.8781,4.9221,4.9763,5.0744,5.0994,5.0855,5.0713,2.0079,1.9195,1.7317,1.7398,1.8744,1.7734,1.8279,1.9827,1.9863,1.9902,1.9844,2.0176,2.0273,2.0308,2.0698,2.0907,2.0757,2.1295,2.0818,2.1192,2.1357,2.1907,2.1466,2.1963,2.1598,2.0605,1.8976,1.7091,1.5418,1.5466,1.661,1.7632,1.987,2.2385,2.3816,2.548,2.608,2.6007,2.6453,2.7144,2.7472,2.7511,2.7338,2.6782,2.6602,2.6602,2.6824,2.6824,2.7297,2.7999,2.8876,3.0151,3.2018,3.2571,3.3443,3.4317,3.4736,3.5386,3.6242,3.7269,3.8485,3.9514,4.0738,4.1978,4.3061,4.4172,4.4633,4.4327,4.4006,4.3548,4.3359,4.3902,4.4438,4.4546,4.4657,4.4407,4.4141,4.4543,4.4975,4.5351,4.5655,4.5908,4.6117,4.6211,4.6094,4.6053,4.5952,4.5759,4.5355,4.5204,4.5061,4.5017,4.512,4.4957,4.438,4.3825,4.324,4.2627,4.2108,4.2006,4.2029,4.2655,4.3403,4.4384,4.5263,4.6109,4.6887,4.7564,4.8274,4.8951,4.983,5.0811,5.142,5.1464,5.1519,2.0001,1.8762,1.6508,1.6218,1.71,1.669,1.7377,1.8563,1.8865,1.8887,1.8848,1.9297,1.9492,1.9277,1.9551,1.9531,1.9258,1.9316,1.9653,1.9527,1.9414,1.9777,1.9766,1.9883,2.0072,1.943,1.8141,1.6486,1.4912,1.6228,1.7977,1.894,2.135,2.2902,2.3641,2.454,2.491,2.4545,2.5159,2.5927,2.6801,2.6889,2.7002,2.6508,2.6465,2.6465,2.6533,2.6533,2.6714,2.7497,2.8363,2.9997,3.1507,3.2382,3.2949,3.3649,3.4219,3.4891,3.5802,3.6981,3.82,3.9126,4.0559,4.2027,4.2214,4.3139,4.3224,4.3031,4.3335,4.2985,4.2578,4.2876,4.3408,4.3693,4.3896,4.3888,4.3827,4.4003,4.4509,4.5006,4.5323,4.5625,4.5898,4.625,4.6172,4.5981,4.5928,4.5376,4.5017,4.46,4.4525,4.4459,4.4421,4.4288,4.3788,4.3204,4.2701,4.1991,4.134,4.1405,4.1626,4.2346,4.3166,4.4012,4.506,4.6244,4.6955,4.7462,4.8173,4.8951,4.9864,5.0811,5.1288,5.1763,5.1929,1.9687,1.8329,1.5997,1.5218,1.5397,1.5883,1.661,1.7316,1.8151,1.8359,1.8115,1.8666,1.8938,1.9121,1.9199,1.916,1.9082,1.8906,1.9004,1.9023,1.9043,1.9023,1.9062,1.918,1.9112,1.8912,1.8082,1.7199,1.6269,1.7939,1.9206,2.009,2.1202,2.258,2.3094,2.3674,2.4126,2.4104,2.4478,2.4987,2.5503,2.6088,2.6271,2.6371,2.6302,2.6302,2.6302,2.6302,2.6327,2.7162,2.8195,2.9813,3.1131,3.2079,3.2437,3.2971,3.3566,3.4219,3.511,3.6864,3.7854,3.898,4.0639,4.149,4.1611,4.1765,4.1889,4.1894,4.2155,4.2194,4.1788,4.1845,4.2374,4.2641,4.2868,4.3206,4.3236,4.3312,4.3849,4.4422,4.4855,4.5182,4.5664,4.6055,4.6133,4.5937,4.553,4.4961,4.4402,4.3905,4.3584,4.343,4.3336,4.3169,4.3101,4.2553,4.1991,4.156,4.099,4.1043,4.124,4.1798,4.2591,4.3538,4.4621,4.5602,4.665,4.7327,4.8071,4.8652,4.9013,4.9689,5.056,5.1094,5.1996,1.8141,1.616,1.4554,1.4427,1.5193,1.5551,1.628,1.7207,1.7758,1.8066,1.7773,1.7292,1.7441,1.8301,1.8633,1.8672,1.8457,1.8398,1.8301,1.8242,1.8209,1.8201,1.8398,1.8742,1.8233,1.8161,1.8195,1.8075,1.7839,1.9272,2.0596,2.1366,2.2873,2.3458,2.315,2.3593,2.3901,2.3703,2.3311,2.3627,2.4008,2.4701,2.5738,2.5652,2.53,2.53,2.53,2.53,2.5816,2.6756,2.8011,2.9543,3.0719,3.1504,3.1845,3.2437,3.3024,3.3598,3.4693,3.6091,3.7062,3.8112,3.9547,4.0629,4.077,4.1011,4.0846,4.031,4.0498,4.0616,4.0469,4.0863,4.1322,4.104,4.1067,4.1731,4.2084,4.2337,4.2772,4.3436,4.4093,4.4565,4.5195,4.5547,4.582,4.5561,4.5025,4.4407,4.3461,4.3011,4.2668,4.2405,4.2239,4.2544,4.2621,4.1831,4.1251,4.0874,4.0645,4.0694,4.0832,4.1188,4.1948,4.2794,4.3606,4.4451,4.5534,4.6786,4.7376,4.7827,4.783,4.8332,4.9321,5.0241,5.0994]}]]